[[{"header":{"parameterUnit":"m.s-1","parameterCategory":1,"la1":31.0,"la2":29.5877,"lo1":-88.7671,"lo2":-86.6584,"dy":0.0162,"dx":0.0185,"nx":115,"ny":88,"refTime":"2026-03-29T12:00:00:Z","depth":0,"parameterNumber":2,"parameterNumberName":"U-component_of_WINDS"},"data":[0.0,0.0,0.0,0.0,0.0,0.0,0.0,0.0,0.0,0.0,0.0,0.0,0.0,0.0,0.0,0.0,0.0,0.0,0.0,0.0,0.0,0.0,0.0,0.0,0.0,0.0,0.0,0.0,0.0,0.0,0.0,0.0,0.0,0.0,0.0,0.0,0.0,0.0,0.0,0.0,0.0,0.0,0.0,0.0,0.0,0.0,0.0,0.0,0.0,0.0,0.0,0.0,0.0,0.0,0.0,0.0,0.0,0.0,0.0,0.0,0.0,0.0,0.0,0.0,0.0,0.0,0.0,0.0,0.0,0.0,0.0,0.0,0.0,0.0,0.0,0.0,0.0,0.0,0.0,0.0,0.0,0.0,0.0,0.0,0.0,0.0,0.0,0.0,0.0,0.0,0.0,0.0,0.0,0.0,0.0,0.0,0.0,0.0,0.0,0.0,0.0,0.0,0.0,0.0,0.0,0.0,0.0,0.0,0.0,0.0,0.0,0.0,0.0,0.0,0.0,0.0,0.0,0.0,0.0,0.0,0.0,0.0,0.0,0.0,0.0,0.0,0.0,0.0,0.0,0.0,0.0,0.0,0.0,0.0,0.0,0.0,0.0,0.0,0.0,0.0,0.0,0.0,0.0,0.0,0.0,0.0,0.0,0.0,0.0,0.0,0.0,0.0,0.0,0.0,0.0,0.0,0.0,0.0,0.0,0.0,0.0,0.0,0.0,0.0,0.0,0.0,0.0,0.0,0.0,0.0,0.0,0.0,0.0,0.0,0.0,0.0,0.0,0.0,0.0,0.0,0.0,0.0,0.0,0.0,0.0,0.0,0.0,0.0,0.0,0.0,0.0,0.0,0.0,0.0,0.0,0.0,0.0,0.0,0.0,0.0,0.0,0.0,0.0,0.0,0.0,0.0,0.0,0.0,0.0,0.0,0.0,0.0,0.0,0.0,0.0,0.0,0.0,0.0,0.0,0.0,0.0,0.0,0.0,0.0,0.0,0.0,0.0,0.0,0.0,0.0,0.0,0.0,0.0,0.0,0.0,0.0,0.0,0.0,0.0,0.0,0.0,0.0,0.0,0.0,0.0,0.0,0.0,0.0,0.0,0.0,0.0,0.0,0.0,0.0,0.0,0.0,0.0,0.0,0.0,0.0,0.0,0.0,0.0,0.0,0.0,0.0,0.0,0.0,0.0,0.0,0.0,0.0,0.0,0.0,0.0,0.0,0.0,0.0,0.0,0.0,0.0,0.0,0.0,0.0,0.0,0.0,0.0,0.0,0.0,0.0,0.0,0.0,0.0,0.0,0.0,0.0,0.0,0.0,0.0,0.0,0.0,0.0,0.0,0.0,0.0,0.0,0.0,0.0,0.0,0.0,0.0,0.0,0.0,0.0,0.0,0.0,0.0,0.0,0.0,0.0,0.0,0.0,0.0,0.0,0.0,0.0,0.0,0.0,0.0,0.0,0.0,0.0,0.0,0.0,0.0,0.0,0.0,0.0,0.0,0.0,0.0,0.0,0.0,0.0,0.0,0.0,0.0,0.0,0.0,0.0,0.0,0.0,0.0,0.0,0.0,0.0,0.0,0.0,0.0,0.0,0.0,0.0,0.0,0.0,0.0,0.0,0.0,0.0,0.0,0.0,0.0,0.0,0.0,0.0,0.0,0.0,0.0,0.0,0.0,0.0,0.0,0.0,0.0,0.0,0.0,0.0,0.0,0.0,0.0,0.0,0.0,0.0,0.0,0.0,0.0,0.0,0.0,0.0,0.0,0.0,0.0,0.0,0.0,0.0,0.0,0.0,0.0,0.0,0.0,0.0,0.0,0.0,0.0,0.0,0.0,0.0,0.0,0.0,0.0,0.0,0.0,0.0,0.0,0.0,0.0,0.0,0.0,0.0,0.0,0.0,0.0,0.0,0.0,0.0,0.0,0.0,0.0,0.0,0.0,0.0,0.0,0.0,0.0,0.0,0.0,0.0,0.0,0.0,0.0,0.0,0.0,0.0,0.0,0.0,0.0,0.0,0.0,0.0,0.0,0.0,0.0,0.0,0.0,0.0,0.0,0.0,0.0,0.0,0.0,0.0,0.0,0.0,0.0,0.0,0.0,0.0,0.0,0.0,0.0,0.0,0.0,0.0,0.0,0.0,0.0,0.0,0.0,0.0,0.0,0.0,0.0,0.0,0.0,0.0,0.0,0.0,0.0,0.0,0.0,0.0,0.0,0.0,0.0,0.0,0.0,0.0,0.0,0.0,0.0,0.0,0.0,0.0,0.0,0.0,0.0,0.0,0.0,0.0,0.0,0.0,0.0,0.0,0.0,0.0,0.0,0.0,0.0,0.0,0.0,0.0,0.0,0.0,0.0,0.0,0.0,0.0,0.0,0.0,0.0,0.0,0.0,0.0,0.0,0.0,0.0,0.0,0.0,0.0,0.0,0.0,0.0,0.0,0.0,0.0,0.0,0.0,0.0,0.0,0.0,0.0,0.0,0.0,0.0,0.0,0.0,0.0,0.0,0.0,0.0,0.0,0.0,0.0,0.0,0.0,0.0,0.0,0.0,0.0,0.0,0.0,0.0,0.0,0.0,0.0,0.0,0.0,0.0,0.0,0.0,0.0,0.0,0.0,0.0,0.0,0.0,0.0,0.0,0.0,0.0,0.0,0.0,0.0,0.0,0.0,0.0,0.0,0.0,0.0,0.0,0.0,0.0,0.0,0.0,0.0,0.0,0.0,0.0,0.0,0.0,0.0,0.0,0.0,0.0,0.0,0.0,0.0,0.0,0.0,0.0,0.0,0.0,0.0,0.0,0.0,0.0,0.0,0.0,0.0,0.0,0.0,0.0,0.0,0.0,0.0,0.0,0.0,0.0,0.0,0.0,0.0,0.0,0.0,0.0,0.0,0.0,0.0,0.0,0.0,0.0,0.0,0.0,0.0,0.0,0.0,0.0,0.0,0.0,0.0,0.0,0.0,0.0,0.0,0.0,0.0,0.0,0.0,0.0,0.0,0.0,0.0,0.0,0.0,0.0,0.0,0.0,0.0,0.0,0.0,0.0,0.0,0.0,0.0,0.0,0.0,0.0,0.0,0.0,0.0,0.0,0.0,0.0,0.0,0.0,0.0,0.0,0.0,0.0,0.0,0.0,0.0,0.0,0.0,0.0,0.0,0.0,0.0,0.0,0.0,0.0,0.0,0.0,0.0,0.0,0.0,0.0,0.0,0.0,0.0,0.0,0.0,0.0,0.0,0.0,0.0,0.0,0.0,0.0,0.0,0.0,0.0,0.0,0.0,0.0,0.0,0.0,0.0,0.0,0.0,0.0,0.0,0.0,0.0,0.0,0.0,0.0,0.0,0.0,0.0,0.0,0.0,0.0,0.0,0.0,0.0,0.0,0.0,0.0,0.0,0.0,0.0,0.0,0.0,0.0,0.0,0.0,0.0,0.0,0.0,0.0,0.0,0.0,0.0,0.0,0.0,0.0,0.0,0.0,0.0,0.0,0.0,0.0,0.0,0.0,0.0,0.0,0.0,0.0,0.0,0.0,0.0,0.0,0.0,0.0,0.0,0.0,0.0,0.0,0.0,0.0,0.0,0.0,0.0,0.0,0.0,0.0,0.0,0.0,0.0,0.0,0.0,0.0,0.0,0.0,0.0,0.0,0.0,0.0,0.0,0.0,0.0,0.0,0.0,0.0,0.0,0.0,0.0,0.0,0.0,0.0,0.0,0.0,0.0,0.0,0.0,0.0,0.0,0.0,0.0,0.0,0.0,0.0,0.0,0.0,0.0,0.0,0.0,0.0,0.0,0.0,0.0,0.0,0.0,0.0,0.0,0.0,0.0,0.0,0.0,0.0,0.0,0.0,0.0,0.0,0.0,0.0,0.0,0.0,0.0,0.0,0.0,0.0,0.0,0.0,0.0,0.0,0.0,0.0,0.0,0.0,0.0,0.0,0.0,0.0,0.0,0.0,0.0,0.0,0.0,0.0,0.0,0.0,0.0,0.0,0.0,0.0,0.0,0.0,0.0,0.0,0.0,0.0,0.0,0.0,0.0,0.0,0.0,0.0,0.0,0.0,0.0,0.0,0.0,0.0,0.0,0.0,0.0,0.0,0.0,0.0,0.0,0.0,0.0,0.0,0.0,0.0,0.0,0.0,0.0,0.0,0.0,0.0,0.0,0.0,0.0,0.0,0.0,0.0,0.0,0.0,0.0,0.0,0.0,0.0,0.0,0.0,0.0,0.0,0.0,0.0,0.0,0.0,0.0,0.0,0.0,0.0,0.0,-0.978,0.0,0.0,0.0,0.0,0.0,0.0,0.0,0.0,0.0,0.0,0.0,0.0,0.0,0.0,0.0,0.0,0.0,0.0,0.0,0.0,0.0,0.0,0.0,0.0,0.0,0.0,0.0,0.0,0.0,0.0,0.0,0.0,0.0,0.0,0.0,0.0,0.0,0.0,0.0,0.0,0.0,0.0,0.0,0.0,0.0,0.0,0.0,0.0,0.0,0.0,0.0,0.0,0.0,0.0,0.0,0.0,0.0,0.0,0.0,0.0,0.0,0.0,0.0,0.0,0.0,0.0,0.0,0.0,0.0,0.0,0.0,0.0,0.0,0.0,0.0,0.0,0.0,0.0,0.0,0.0,0.0,0.0,0.0,0.0,0.0,0.0,0.0,0.0,0.0,0.0,0.0,0.0,0.0,0.0,0.0,0.0,0.0,0.0,0.0,0.0,0.0,0.0,0.0,0.0,0.0,0.0,0.0,0.0,0.0,0.0,-0.8778,-0.8804,-0.9159,-0.9484,-0.9821,0.0,0.0,0.0,0.0,0.0,0.0,0.0,0.0,0.0,0.0,0.0,0.0,0.0,0.0,0.0,0.0,0.0,0.0,0.0,0.0,0.0,0.0,0.0,0.0,0.0,0.0,0.0,0.0,0.0,0.0,0.0,0.0,0.0,0.0,0.0,0.0,0.0,0.0,0.0,0.0,0.0,0.0,0.0,0.0,0.0,0.0,0.0,0.0,0.0,0.0,0.0,0.0,0.0,0.0,0.0,0.0,0.0,0.0,0.0,0.0,0.0,0.0,0.0,0.0,0.0,0.0,0.0,0.0,0.0,0.0,0.0,0.0,0.0,0.0,0.0,0.0,0.0,0.0,0.0,0.0,0.0,0.0,0.0,0.0,0.0,0.0,0.0,0.0,0.0,0.0,0.0,0.0,0.0,0.0,0.0,0.0,0.0,0.0,0.0,0.0,0.0,0.0,0.0,0.0,0.0,0.0,0.0,0.0,0.0,0.0,0.0,0.0,-0.9501,-0.986,-1.0004,0.0,0.0,0.0,0.0,0.0,0.0,0.0,0.0,0.0,0.0,0.0,0.0,0.0,0.0,0.0,0.0,0.0,0.0,0.0,0.0,0.0,0.0,0.0,0.0,0.0,0.0,0.0,0.0,0.0,0.0,0.0,0.0,0.0,0.0,0.0,0.0,0.0,0.0,0.0,0.0,0.0,0.0,0.0,0.0,0.0,0.0,0.0,0.0,0.0,0.0,0.0,0.0,0.0,0.0,0.0,0.0,0.0,0.0,0.0,0.0,0.0,0.0,0.0,0.0,0.0,0.0,0.0,0.0,0.0,0.0,0.0,0.0,0.0,0.0,0.0,0.0,0.0,0.0,0.0,0.0,0.0,0.0,0.0,0.0,0.0,0.0,0.0,0.0,0.0,0.0,0.0,0.0,0.0,0.0,0.0,0.0,0.0,0.0,0.0,0.0,0.0,0.0,0.0,0.0,0.0,0.0,0.0,0.0,0.0,0.0,-0.9058,-0.9608,-0.9679,0.0,-1.0562,0.0,0.0,0.0,0.0,0.0,0.0,0.0,0.0,0.0,0.0,0.0,0.0,0.0,0.0,0.0,0.0,0.0,0.0,0.0,0.0,0.0,0.0,0.0,0.0,0.0,0.0,0.0,0.0,0.0,0.0,0.0,0.0,0.0,0.0,0.0,0.0,0.0,0.0,0.0,0.0,0.0,0.0,0.0,0.0,0.0,0.0,0.0,0.0,0.0,0.0,0.0,0.0,0.0,0.0,0.0,0.0,0.0,0.0,0.0,0.0,0.0,0.0,0.0,0.0,0.0,0.0,0.0,0.0,0.0,0.0,0.0,0.0,0.0,0.0,0.0,0.0,0.0,0.0,0.0,0.0,0.0,0.0,0.0,0.0,0.0,0.0,0.0,0.0,0.0,0.0,0.0,0.0,0.0,0.0,0.0,0.0,0.0,0.0,0.0,0.0,0.0,0.0,0.0,0.0,0.0,0.0,0.0,0.0,0.0,0.0,0.0,-0.9702,-0.9715,-0.9831,0.0,0.0,0.0,0.0,0.0,0.0,0.0,0.0,0.0,0.0,0.0,0.0,0.0,0.0,0.0,0.0,0.0,0.0,0.0,0.0,0.0,0.0,0.0,0.0,0.0,0.0,0.0,0.0,0.0,0.0,0.0,0.0,0.0,0.0,0.0,0.0,0.0,0.0,0.0,0.0,0.0,0.0,0.0,0.0,0.0,0.0,0.0,0.0,0.0,0.0,0.0,0.0,0.0,0.0,0.0,0.0,0.0,0.0,0.0,0.0,0.0,0.0,0.0,0.0,0.0,0.0,0.0,0.0,0.0,0.0,0.0,0.0,0.0,0.0,0.0,0.0,0.0,0.0,0.0,0.0,0.0,0.0,0.0,0.0,0.0,0.0,0.0,0.0,0.0,0.0,0.0,0.0,0.0,0.0,0.0,0.0,0.0,0.0,0.0,0.0,0.0,0.0,0.0,0.0,0.0,0.0,0.0,0.0,0.0,0.0,-0.9552,0.0,-0.9913,-0.9956,-0.9846,-0.9715,0.0,0.0,0.0,0.0,0.0,0.0,0.0,0.0,0.0,0.0,0.0,0.0,0.0,0.0,0.0,0.0,0.0,0.0,0.0,0.0,0.0,0.0,0.0,0.0,0.0,0.0,0.0,0.0,0.0,0.0,0.0,0.0,0.0,0.0,0.0,0.0,0.0,0.0,0.0,0.0,0.0,0.0,0.0,0.0,0.0,0.0,0.0,0.0,0.0,0.0,0.0,0.0,0.0,0.0,0.0,0.0,0.0,0.0,0.0,0.0,0.0,0.0,0.0,0.0,0.0,0.0,0.0,0.0,0.0,0.0,0.0,0.0,0.0,0.0,0.0,0.0,0.0,0.0,0.0,0.0,0.0,0.0,0.0,0.0,0.0,0.0,0.0,0.0,0.0,0.0,0.0,0.0,0.0,0.0,0.0,0.0,0.0,0.0,0.0,0.0,0.0,0.0,0.0,0.0,0.0,0.0,0.0,0.0,0.0,-0.997,-0.9983,-1.0533,-1.0546,-1.0291,0.0,0.0,0.0,0.0,0.0,0.0,0.0,0.0,0.0,0.0,0.0,0.0,0.0,0.0,0.0,0.0,0.0,0.0,0.0,0.0,0.0,0.0,0.0,0.0,0.0,0.0,0.0,0.0,0.0,0.0,0.0,0.0,0.0,0.0,0.0,0.0,0.0,0.0,0.0,0.0,0.0,0.0,0.0,0.0,0.0,0.0,0.0,0.0,0.0,0.0,0.0,0.0,0.0,0.0,0.0,0.0,0.0,0.0,0.0,0.0,0.0,0.0,0.0,0.0,0.0,0.0,0.0,0.0,0.0,0.0,0.0,0.0,0.0,0.0,0.0,0.0,0.0,0.0,0.0,0.0,0.0,0.0,0.0,0.0,0.0,0.0,0.0,0.0,0.0,0.0,0.0,0.0,0.0,0.0,0.0,0.0,0.0,0.0,0.0,0.0,0.0,0.0,0.0,0.0,0.0,0.0,0.0,0.0,0.0,-0.9391,-0.9593,-1.014,-1.1035,-1.0394,-1.0104,0.0,0.0,0.0,0.0,0.0,0.0,0.0,0.0,0.0,0.0,0.0,0.0,0.0,0.0,0.0,0.0,0.0,0.0,0.0,0.0,0.0,0.0,0.0,0.0,0.0,0.0,0.0,0.0,0.0,0.0,0.0,0.0,0.0,0.0,0.0,0.0,0.0,0.0,0.0,0.0,0.0,0.0,0.0,0.0,0.0,0.0,0.0,0.0,0.0,0.0,0.0,0.0,0.0,0.0,0.0,0.0,0.0,0.0,0.0,0.0,0.0,0.0,0.0,0.0,0.0,0.0,0.0,0.0,0.0,0.0,0.0,0.0,0.0,0.0,0.0,0.0,0.0,0.0,0.0,0.0,0.0,0.0,0.0,0.0,0.0,0.0,0.0,0.0,0.0,0.0,0.0,0.0,0.0,0.0,0.0,0.0,0.0,0.0,0.0,0.0,0.0,0.0,0.0,0.0,0.0,0.0,0.0,0.0,0.0,-0.9351,0.0,-1.0541,0.0,-1.0412,-1.001,0.0,0.0,0.0,0.0,0.0,0.0,0.0,0.0,0.0,0.0,0.0,0.0,0.0,0.0,0.0,0.0,0.0,0.0,0.0,0.0,0.0,0.0,0.0,0.0,0.0,0.0,0.0,0.0,0.0,0.0,0.0,0.0,0.0,0.0,0.0,0.0,0.0,0.0,0.0,0.0,0.0,0.0,0.0,0.0,0.0,0.0,0.0,0.0,0.0,0.0,0.0,0.0,0.0,0.0,0.0,0.0,0.0,0.0,0.0,0.0,0.0,0.0,0.0,0.0,0.0,0.0,0.0,0.0,0.0,0.0,0.0,0.0,0.0,0.0,0.0,0.0,0.0,0.0,0.0,0.0,0.0,0.0,0.0,0.0,0.0,0.0,0.0,0.0,0.0,0.0,0.0,0.0,0.0,0.0,0.0,0.0,0.0,0.0,0.0,0.0,0.0,0.0,0.0,0.0,0.0,0.0,0.0,0.0,-0.9392,-1.0519,-1.1062,-1.1129,-1.0653,-1.0586,-1.0037,0.0,0.0,0.0,0.0,0.0,0.0,0.0,0.0,0.0,0.0,0.0,0.0,0.0,0.0,0.0,0.0,0.0,0.0,0.0,0.0,0.0,0.0,0.0,0.0,0.0,0.0,0.0,0.0,0.0,0.0,0.0,0.0,0.0,0.0,0.0,0.0,0.0,0.0,0.0,0.0,0.0,0.0,0.0,0.0,0.0,0.0,0.0,0.0,0.0,0.0,0.0,0.0,0.0,0.0,0.0,0.0,0.0,0.0,0.0,0.0,0.0,0.0,0.0,0.0,0.0,0.0,0.0,0.0,0.0,0.0,0.0,0.0,0.0,0.0,0.0,0.0,0.0,0.0,0.0,0.0,0.0,0.0,0.0,0.0,0.0,0.0,0.0,0.0,0.0,0.0,0.0,0.0,0.0,0.0,0.0,0.0,0.0,0.0,0.0,0.0,0.0,0.0,0.0,0.0,0.0,0.0,0.0,0.0,0.0,-1.001,-1.0728,-1.1329,-1.1703,-1.0613,-1.0167,0.0,0.0,0.0,0.0,0.0,0.0,0.0,0.0,0.0,0.0,0.0,0.0,0.0,0.0,0.0,0.0,0.0,0.0,0.0,0.0,0.0,0.0,0.0,0.0,0.0,0.0,0.0,0.0,0.0,0.0,0.0,0.0,0.0,0.0,0.0,0.0,0.0,0.0,0.0,0.0,0.0,0.0,0.0,0.0,0.0,0.0,0.0,0.0,0.0,0.0,0.0,0.0,0.0,0.0,0.0,0.0,0.0,0.0,0.0,0.0,0.0,0.0,0.0,0.0,0.0,0.0,0.0,0.0,0.0,0.0,0.0,0.0,0.0,0.0,0.0,0.0,0.0,0.0,0.0,0.0,0.0,0.0,0.0,0.0,0.0,0.0,0.0,0.0,0.0,0.0,0.0,0.0,0.0,0.0,0.0,0.0,0.0,0.0,0.0,0.0,0.0,0.0,0.0,0.0,0.0,0.0,0.0,0.0,0.0,-1.1223,-1.1904,-1.2412,-1.2639,-1.1463,-1.0848,-1.0869,0.0,0.0,0.0,0.0,0.0,0.0,0.0,0.0,0.0,0.0,0.0,0.0,0.0,0.0,0.0,0.0,0.0,0.0,0.0,0.0,0.0,0.0,0.0,0.0,0.0,0.0,0.0,0.0,0.0,0.0,0.0,0.0,0.0,0.0,0.0,0.0,0.0,0.0,0.0,0.0,0.0,0.0,0.0,0.0,0.0,0.0,0.0,0.0,0.0,0.0,0.0,0.0,0.0,0.0,0.0,0.0,0.0,0.0,0.0,0.0,0.0,0.0,0.0,0.0,0.0,0.0,0.0,0.0,0.0,0.0,0.0,0.0,0.0,0.0,0.0,0.0,0.0,0.0,0.0,0.0,0.0,0.0,0.0,0.0,0.0,0.0,0.0,0.0,0.0,0.0,0.0,0.0,0.0,0.0,0.0,0.0,0.0,0.0,0.0,0.0,0.0,0.0,0.0,0.0,0.0,0.0,0.0,0.0,-1.3786,-1.4442,-1.4349,-1.3467,-1.3025,-1.2033,0.0,0.0,0.0,0.0,0.0,0.0,0.0,0.0,0.0,0.0,0.0,0.0,0.0,0.0,0.0,0.0,0.0,0.0,0.0,0.0,0.0,0.0,0.0,0.0,0.0,0.0,0.0,0.0,0.0,0.0,0.0,0.0,0.0,0.0,0.0,0.0,0.0,0.0,0.0,0.0,0.0,0.0,0.0,0.0,0.0,0.0,0.0,0.0,0.0,0.0,0.0,0.0,0.0,0.0,0.0,0.0,0.0,0.0,0.0,0.0,0.0,0.0,0.0,0.0,0.0,0.0,0.0,0.0,0.0,0.0,0.0,0.0,0.0,0.0,0.0,0.0,0.0,0.0,0.0,0.0,0.0,0.0,0.0,0.0,0.0,0.0,0.0,0.0,0.0,0.0,0.0,0.0,0.0,0.0,0.0,0.0,0.0,0.0,0.0,0.0,0.0,0.0,0.0,0.0,0.0,0.0,0.0,0.0,0.0,-1.6241,-1.7235,-1.7141,-1.5805,-1.4041,-1.2973,0.0,0.0,0.0,0.0,0.0,0.0,0.0,0.0,0.0,0.0,0.0,0.0,0.0,0.0,0.0,0.0,0.0,0.0,0.0,0.0,0.0,0.0,0.0,0.0,0.0,0.0,0.0,0.0,0.0,0.0,0.0,0.0,0.0,0.0,0.0,0.0,0.0,0.0,0.0,0.0,0.0,0.0,0.0,0.0,0.0,0.0,0.0,0.0,0.0,0.0,0.0,0.0,0.0,0.0,0.0,0.0,0.0,0.0,0.0,0.0,0.0,0.0,0.0,0.0,0.0,0.0,0.0,0.0,0.0,0.0,0.0,0.0,0.0,0.0,0.0,0.0,0.0,0.0,0.0,0.0,0.0,0.0,0.0,0.0,0.0,0.0,0.0,0.0,0.0,0.0,0.0,0.0,0.0,0.0,0.0,0.0,0.0,0.0,0.0,0.0,0.0,0.0,0.0,0.0,0.0,0.0,0.0,0.0,-1.5631,-1.7353,-1.8731,-1.9065,-1.821,-1.5912,-1.4349,0.0,0.0,0.0,0.0,0.0,0.0,0.0,0.0,0.0,0.0,0.0,0.0,0.0,0.0,0.0,0.0,0.0,0.0,0.0,0.0,0.0,0.0,0.0,0.0,0.0,0.0,0.0,0.0,0.0,0.0,0.0,0.0,0.0,0.0,0.0,0.0,0.0,0.0,0.0,0.0,0.0,0.0,0.0,0.0,0.0,0.0,0.0,0.0,0.0,0.0,0.0,0.0,0.0,0.0,0.0,0.0,0.0,0.0,0.0,0.0,0.0,0.0,0.0,0.0,0.0,0.0,0.0,0.0,0.0,0.0,0.0,0.0,0.0,0.0,0.0,0.0,0.0,0.0,0.0,0.0,0.0,0.0,0.0,0.0,0.0,0.0,0.0,0.0,0.0,0.0,0.0,0.0,0.0,0.0,0.0,0.0,0.0,0.0,0.0,0.0,0.0,0.0,0.0,0.0,0.0,0.0,0.0,0.0,-1.6567,-1.7809,-1.9452,-2.0307,-2.0153,-1.7983,-1.5845,0.0,0.0,0.0,0.0,0.0,0.0,0.0,0.0,0.0,0.0,0.0,0.0,0.0,0.0,0.0,0.0,0.0,0.0,0.0,0.0,0.0,0.0,0.0,0.0,0.0,0.0,0.0,0.0,0.0,0.0,0.0,0.0,0.0,0.0,0.0,0.0,0.0,0.0,0.0,0.0,0.0,0.0,0.0,0.0,0.0,0.0,0.0,0.0,0.0,0.0,0.0,0.0,0.0,0.0,0.0,0.0,0.0,0.0,0.0,0.0,0.0,0.0,0.0,0.0,0.0,0.0,0.0,0.0,0.0,0.0,0.0,0.0,0.0,0.0,0.0,0.0,0.0,0.0,0.0,0.0,0.0,0.0,0.0,0.0,0.0,0.0,0.0,0.0,0.0,0.0,0.0,0.0,0.0,0.0,0.0,0.0,0.0,0.0,0.0,0.0,0.0,0.0,0.0,0.0,0.0,0.0,0.0,0.0,-1.7715,-1.9292,-2.0374,-2.0815,-2.0575,-1.829,-1.6576,0.0,0.0,0.0,0.0,0.0,0.0,0.0,0.0,0.0,0.0,0.0,0.0,0.0,0.0,0.0,0.0,0.0,0.0,0.0,0.0,0.0,0.0,0.0,0.0,0.0,0.0,0.0,0.0,0.0,0.0,0.0,0.0,0.0,0.0,0.0,0.0,0.0,0.0,0.0,0.0,0.0,0.0,0.0,0.0,0.0,0.0,0.0,0.0,-1.1784,0.0,0.0,0.0,0.0,0.0,0.0,0.0,0.0,0.0,0.0,0.0,0.0,0.0,0.0,0.0,0.0,0.0,0.0,0.0,0.0,0.0,0.0,0.0,0.0,0.0,0.0,0.0,0.0,0.0,0.0,0.0,0.0,0.0,0.0,0.0,0.0,0.0,0.0,0.0,0.0,0.0,0.0,0.0,0.0,0.0,0.0,0.0,0.0,0.0,0.0,0.0,0.0,0.0,0.0,0.0,0.0,0.0,0.0,0.0,-1.8571,-2.016,-2.1069,-2.1443,-2.1229,-1.9336,-1.7568,0.0,0.0,0.0,0.0,0.0,0.0,0.0,0.0,0.0,0.0,0.0,0.0,0.0,0.0,0.0,0.0,0.0,0.0,0.0,0.0,0.0,0.0,0.0,0.0,0.0,0.0,0.0,0.0,0.0,0.0,0.0,0.0,0.0,0.0,0.0,0.0,0.0,0.0,0.0,0.0,0.0,0.0,0.0,0.0,0.0,0.0,0.0,0.0,0.0,0.0,0.0,0.0,0.0,0.0,0.0,0.0,0.0,0.0,0.0,0.0,0.0,0.0,0.0,0.0,0.0,0.0,0.0,0.0,0.0,0.0,0.0,0.0,0.0,0.0,0.0,0.0,0.0,0.0,0.0,0.0,0.0,0.0,0.0,0.0,0.0,0.0,0.0,0.0,0.0,0.0,0.0,0.0,0.0,0.0,0.0,0.0,0.0,0.0,0.0,0.0,0.0,0.0,0.0,0.0,0.0,0.0,0.0,-1.758,-1.9305,-2.1011,-2.1737,-2.2084,-2.1964,-2.0374,-1.8504,-1.642,0.0,0.0,0.0,0.0,0.0,0.0,0.0,0.0,0.0,0.0,0.0,0.0,0.0,0.0,0.0,0.0,0.0,0.0,0.0,0.0,0.0,0.0,0.0,0.0,0.0,0.0,0.0,0.0,0.0,0.0,0.0,0.0,0.0,0.0,0.0,0.0,0.0,0.0,-1.1095,-1.2208,0.0,0.0,0.0,0.0,0.0,0.0,0.0,0.0,-1.2556,0.0,0.0,0.0,0.0,0.0,0.0,0.0,0.0,0.0,0.0,0.0,0.0,0.0,0.0,0.0,0.0,0.0,0.0,0.0,0.0,0.0,0.0,0.0,0.0,0.0,0.0,0.0,0.0,0.0,0.0,0.0,0.0,0.0,0.0,0.0,0.0,0.0,0.0,0.0,0.0,0.0,0.0,0.0,0.0,0.0,0.0,0.0,0.0,0.0,0.0,0.0,0.0,0.0,0.0,0.0,0.0,-1.9031,-1.8714,-1.9786,-2.2432,-2.2713,-2.2485,-2.1977,-2.0762,-1.8998,-1.6727,0.0,0.0,0.0,0.0,0.0,0.0,0.0,0.0,0.0,0.0,0.0,0.0,0.0,0.0,0.0,0.0,0.0,0.0,0.0,0.0,0.0,0.0,0.0,0.0,0.0,0.0,0.0,0.0,0.0,0.0,0.0,0.0,0.0,0.0,0.0,0.0,0.0,0.0,0.0,-1.3762,-1.4095,0.0,0.0,0.0,0.0,0.0,0.0,0.0,0.0,-1.336,0.0,0.0,0.0,0.0,0.0,0.0,0.0,0.0,0.0,0.0,0.0,0.0,0.0,0.0,0.0,0.0,0.0,0.0,0.0,0.0,0.0,0.0,0.0,0.0,0.0,0.0,0.0,0.0,0.0,0.0,0.0,0.0,0.0,0.0,0.0,0.0,0.0,0.0,0.0,0.0,0.0,0.0,0.0,0.0,0.0,0.0,0.0,0.0,0.0,0.0,0.0,0.0,0.0,0.0,0.0,-1.9382,-2.0888,-2.2223,-2.3316,-2.334,-2.3046,-2.2432,-2.0722,-1.8811,0.0,0.0,0.0,0.0,0.0,0.0,0.0,0.0,0.0,0.0,0.0,0.0,0.0,0.0,0.0,0.0,0.0,0.0,0.0,0.0,0.0,0.0,0.0,0.0,0.0,0.0,0.0,0.0,0.0,0.0,0.0,0.0,0.0,0.0,0.0,0.0,0.0,0.0,0.0,0.0,-1.5174,-1.5431,-1.6659,0.0,0.0,0.0,0.0,0.0,0.0,-1.4755,-1.4634,0.0,0.0,0.0,0.0,0.0,0.0,0.0,0.0,0.0,0.0,0.0,0.0,0.0,0.0,0.0,0.0,0.0,0.0,0.0,0.0,0.0,0.0,0.0,0.0,0.0,0.0,0.0,0.0,0.0,0.0,0.0,0.0,0.0,0.0,0.0,0.0,0.0,0.0,0.0,0.0,0.0,0.0,0.0,0.0,0.0,0.0,0.0,0.0,0.0,0.0,0.0,0.0,0.0,0.0,0.0,-2.0098,-2.2917,-2.4465,-2.449,-2.4156,-2.3594,-2.2928,-2.0708,-1.8651,0.0,0.0,0.0,0.0,0.0,0.0,0.0,0.0,0.0,0.0,0.0,0.0,0.0,0.0,0.0,0.0,0.0,0.0,0.0,0.0,0.0,0.0,0.0,0.0,0.0,0.0,0.0,0.0,0.0,0.0,0.0,0.0,0.0,0.0,0.0,0.0,0.0,0.0,0.0,0.0,0.0,-1.7432,-1.839,-1.7232,0.0,0.0,0.0,0.0,-1.5648,-1.6147,0.0,0.0,0.0,0.0,0.0,0.0,0.0,0.0,0.0,0.0,0.0,0.0,0.0,0.0,0.0,0.0,0.0,0.0,0.0,0.0,0.0,0.0,0.0,0.0,0.0,0.0,0.0,0.0,0.0,0.0,0.0,0.0,0.0,0.0,0.0,0.0,0.0,0.0,0.0,0.0,0.0,0.0,0.0,0.0,0.0,0.0,0.0,0.0,0.0,0.0,0.0,0.0,0.0,0.0,0.0,0.0,-2.3461,-2.3771,-2.4889,-2.6892,-2.5395,-2.3995,-2.2941,-2.1082,-1.9052,0.0,0.0,0.0,0.0,0.0,0.0,0.0,0.0,0.0,0.0,0.0,0.0,0.0,0.0,0.0,0.0,0.0,0.0,0.0,0.0,0.0,0.0,0.0,0.0,0.0,0.0,0.0,0.0,0.0,0.0,0.0,0.0,0.0,0.0,0.0,0.0,0.0,0.0,0.0,0.0,0.0,-2.0744,-1.9018,-1.8844,-1.8245,0.0,0.0,-1.74,-1.7326,-1.8454,0.0,0.0,0.0,0.0,0.0,0.0,0.0,0.0,0.0,0.0,0.0,0.0,0.0,0.0,0.0,0.0,0.0,0.0,0.0,0.0,0.0,0.0,0.0,0.0,0.0,0.0,0.0,0.0,0.0,0.0,0.0,0.0,0.0,0.0,0.0,0.0,0.0,0.0,0.0,0.0,0.0,0.0,0.0,0.0,0.0,0.0,0.0,0.0,0.0,0.0,0.0,0.0,0.0,0.0,0.0,-2.3214,-2.458,-2.7276,-2.8316,-2.7518,-2.6634,-2.5198,-2.2954,-2.0842,-1.8784,0.0,0.0,0.0,0.0,0.0,0.0,0.0,0.0,0.0,0.0,0.0,0.0,0.0,0.0,0.0,0.0,0.0,0.0,0.0,0.0,0.0,0.0,0.0,0.0,0.0,0.0,0.0,0.0,0.0,0.0,0.0,0.0,0.0,0.0,0.0,0.0,0.0,0.0,0.0,0.0,0.0,0.0,-2.2545,-2.2333,0.0,0.0,0.0,-2.0458,-1.9531,0.0,0.0,0.0,0.0,0.0,0.0,0.0,0.0,0.0,0.0,0.0,0.0,0.0,0.0,0.0,0.0,0.0,0.0,0.0,0.0,0.0,0.0,0.0,0.0,0.0,0.0,0.0,0.0,0.0,0.0,0.0,0.0,0.0,0.0,0.0,0.0,0.0,0.0,0.0,0.0,0.0,0.0,0.0,0.0,0.0,0.0,0.0,0.0,0.0,0.0,0.0,0.0,0.0,0.0,0.0,0.0,0.0,-2.5611,-3.0158,-3.1358,-2.8972,-2.8429,-2.6766,-2.379,-2.1645,0.0,0.0,0.0,0.0,0.0,0.0,0.0,0.0,0.0,0.0,0.0,0.0,0.0,0.0,0.0,0.0,0.0,0.0,0.0,0.0,0.0,0.0,0.0,0.0,0.0,0.0,0.0,-0.9631,0.0,0.0,0.0,0.0,0.0,0.0,0.0,0.0,0.0,0.0,0.0,0.0,0.0,0.0,-2.4719,-2.5541,-2.5526,-2.5241,0.0,0.0,-2.3472,-2.1926,-2.2197,-2.1335,0.0,0.0,0.0,0.0,0.0,0.0,0.0,0.0,0.0,0.0,0.0,0.0,0.0,0.0,0.0,0.0,0.0,0.0,0.0,0.0,0.0,0.0,0.0,0.0,0.0,0.0,0.0,0.0,0.0,0.0,0.0,0.0,0.0,0.0,0.0,0.0,0.0,0.0,0.0,0.0,0.0,0.0,0.0,0.0,0.0,0.0,0.0,0.0,0.0,0.0,0.0,0.0,0.0,0.0,0.0,-2.7544,-3.0806,-3.2618,-3.2717,-3.1017,-2.8818,-2.6049,-2.4513,-2.1613,0.0,0.0,0.0,0.0,0.0,0.0,0.0,0.0,0.0,0.0,0.0,0.0,0.0,0.0,0.0,0.0,0.0,0.0,0.0,0.0,0.0,0.0,0.0,0.0,0.0,0.0,0.0,0.0,0.0,0.0,0.0,0.0,0.0,0.0,0.0,0.0,0.0,0.0,0.0,0.0,0.0,-2.8005,-2.6642,-2.7716,-2.8379,0.0,0.0,-2.5774,-2.4728,-2.5667,-2.4738,-1.9285,0.0,0.0,0.0,0.0,0.0,0.0,0.0,0.0,0.0,0.0,0.0,0.0,0.0,0.0,0.0,0.0,0.0,0.0,0.0,0.0,0.0,0.0,0.0,0.0,0.0,0.0,0.0,0.0,0.0,0.0,0.0,0.0,0.0,0.0,0.0,0.0,0.0,0.0,0.0,0.0,0.0,0.0,0.0,0.0,0.0,0.0,0.0,0.0,0.0,0.0,0.0,0.0,0.0,-2.6104,-2.8066,-3.2166,-3.3972,-3.3221,-3.2455,-3.0718,-2.7848,-2.551,-2.2586,0.0,0.0,0.0,0.0,0.0,0.0,0.0,0.0,0.0,0.0,0.0,0.0,0.0,0.0,0.0,0.0,0.0,0.0,0.0,0.0,0.0,0.0,0.0,0.0,0.0,0.0,0.0,0.0,-1.3293,-1.3548,-1.3267,0.0,0.0,0.0,0.0,0.0,0.0,0.0,0.0,0.0,0.0,-2.956,-3.0268,-3.1127,0.0,0.0,-2.9924,-2.8737,-2.809,-2.639,-2.4293,-2.1795,-1.9031,0.0,0.0,0.0,0.0,0.0,0.0,0.0,0.0,0.0,0.0,0.0,0.0,0.0,0.0,0.0,0.0,0.0,0.0,0.0,0.0,0.0,0.0,0.0,0.0,0.0,0.0,0.0,0.0,0.0,0.0,0.0,0.0,0.0,0.0,0.0,0.0,0.0,0.0,0.0,0.0,0.0,0.0,0.0,0.0,0.0,0.0,0.0,0.0,0.0,0.0,0.0,0.0,-2.6328,-2.8476,-3.3047,-3.496,-3.4089,-3.402,-3.2719,-3.0053,-2.7653,-2.4928,0.0,0.0,0.0,0.0,0.0,0.0,0.0,0.0,0.0,0.0,0.0,0.0,0.0,0.0,0.0,0.0,0.0,0.0,0.0,0.0,0.0,0.0,0.0,0.0,0.0,0.0,0.0,0.0,-1.4389,-1.4376,-1.3881,0.0,0.0,0.0,0.0,0.0,0.0,0.0,0.0,0.0,0.0,-3.1074,-3.2578,-3.3144,-3.3418,-3.3418,-3.198,-3.0691,-3.0085,-2.7604,-2.514,-2.3294,0.0,0.0,0.0,0.0,0.0,0.0,0.0,0.0,0.0,0.0,0.0,0.0,0.0,0.0,0.0,0.0,0.0,0.0,0.0,0.0,0.0,0.0,0.0,0.0,0.0,0.0,0.0,-1.2784,0.0,0.0,-1.3309,0.0,0.0,0.0,0.0,0.0,0.0,0.0,0.0,0.0,0.0,0.0,0.0,0.0,0.0,0.0,0.0,0.0,0.0,0.0,0.0,0.0,0.0,-2.6758,-2.8906,-3.3184,-3.5586,-3.586,-3.5947,-3.4793,-3.2657,-3.16,-2.9066,-2.4828,0.0,0.0,0.0,0.0,0.0,0.0,0.0,0.0,0.0,0.0,0.0,0.0,0.0,0.0,0.0,0.0,0.0,0.0,0.0,0.0,0.0,0.0,0.0,0.0,0.0,0.0,-1.34,-1.348,-1.3601,0.0,0.0,0.0,0.0,0.0,0.0,0.0,0.0,0.0,0.0,-3.0293,-3.2734,-3.2793,-3.3164,-3.3437,-3.3457,-3.2299,-3.113,-3.0185,-2.9824,-2.823,0.0,0.0,0.0,0.0,0.0,0.0,0.0,0.0,0.0,0.0,0.0,0.0,0.0,0.0,0.0,0.0,0.0,0.0,0.0,0.0,0.0,0.0,0.0,0.0,0.0,0.0,0.0,-1.4539,-1.4258,0.0,0.0,0.0,0.0,0.0,0.0,0.0,0.0,0.0,0.0,0.0,-2.5495,-2.6167,0.0,0.0,0.0,0.0,0.0,0.0,0.0,0.0,0.0,0.0,0.0,0.0,-2.6777,-2.9004,-3.3203,-3.5605,-3.6016,-3.6035,-3.553,-3.4547,-3.2829,-2.9529,-2.4476,0.0,0.0,0.0,0.0,0.0,0.0,0.0,0.0,0.0,0.0,0.0,0.0,0.0,0.0,0.0,0.0,0.0,0.0,0.0,0.0,0.0,0.0,0.0,0.0,0.0,-1.4788,0.0,0.0,0.0,0.0,0.0,0.0,0.0,0.0,0.0,0.0,0.0,-2.5297,-2.9092,-3.0703,-3.1934,-3.3047,-3.3574,-3.4062,0.0,0.0,0.0,0.0,0.0,0.0,0.0,0.0,0.0,0.0,0.0,0.0,0.0,0.0,-1.9639,-1.6914,-1.6086,-1.5952,-1.6339,0.0,0.0,0.0,0.0,0.0,0.0,0.0,0.0,0.0,0.0,0.0,0.0,0.0,0.0,-1.7848,0.0,-1.7639,0.0,0.0,0.0,0.0,0.0,0.0,0.0,0.0,-2.7317,-2.855,-2.9023,-2.9707,-2.9531,0.0,-2.7618,-2.484,0.0,0.0,0.0,0.0,0.0,0.0,0.0,0.0,-2.7207,-2.9434,-3.334,-3.5605,-3.5996,-3.6035,-3.5898,-3.5605,-3.3852,-3.0754,-2.6263,-2.3557,-2.0998,0.0,0.0,0.0,0.0,0.0,0.0,0.0,0.0,0.0,0.0,0.0,0.0,0.0,0.0,0.0,0.0,0.0,0.0,0.0,0.0,0.0,0.0,0.0,-1.6306,0.0,0.0,0.0,0.0,0.0,0.0,0.0,0.0,0.0,-2.2877,-2.5013,-2.7882,-3.1326,-3.2031,-3.2519,-3.332,0.0,0.0,0.0,0.0,0.0,0.0,0.0,-2.5359,-2.4587,-2.2877,-2.1804,-2.2433,-2.2873,-2.306,-2.2645,0.0,0.0,-1.9399,-1.8517,-1.8357,-1.8731,-1.9132,-1.9399,-1.9399,-1.9867,-2.0221,0.0,0.0,0.0,0.0,0.0,0.0,0.0,0.0,-2.234,-2.2844,0.0,-2.3238,0.0,0.0,0.0,0.0,0.0,-2.6289,0.0,0.0,-3.2012,-3.3203,-3.1777,-3.2148,-3.2109,-3.168,-3.1581,-3.0431,-2.8228,-2.4154,0.0,0.0,0.0,0.0,0.0,0.0,-2.8125,-3.0312,-3.3691,-3.5625,-3.6016,-3.6035,-3.6035,-3.5976,-3.4805,-3.2906,-3.0334,-2.83,-2.5901,-2.2807,-1.942,0.0,0.0,0.0,0.0,0.0,0.0,0.0,0.0,0.0,0.0,0.0,0.0,0.0,0.0,0.0,0.0,0.0,0.0,0.0,0.0,-1.9128,0.0,0.0,0.0,0.0,0.0,0.0,0.0,0.0,0.0,0.0,-2.6402,-2.8288,-3.0639,-3.2995,0.0,0.0,0.0,0.0,-3.3828,-3.3105,-3.2598,-3.1669,-2.9914,-2.9928,-2.9034,-2.5629,0.0,0.0,-2.4634,-2.4502,-2.4369,-2.3247,-2.3781,-2.4008,-2.3126,-2.1911,-2.1176,-2.1216,-2.1243,-2.1243,-2.1283,-2.179,-2.2138,-2.4739,0.0,0.0,0.0,0.0,-2.3293,-2.4992,-2.7123,-2.672,-2.6722,-2.7022,-2.5887,0.0,0.0,0.0,0.0,0.0,0.0,-2.9551,-3.1367,-3.291,-3.416,-3.5195,-3.5625,-3.5449,-3.4726,-3.4414,-3.3476,-3.1953,-3.0355,-2.7232,-2.2626,0.0,0.0,0.0,0.0,-2.959,-3.2031,-3.4551,-3.5898,-3.6016,-3.6035,-3.6035,-3.6016,-3.5371,-3.4401,-3.3008,-3.0853,-2.8637,-2.6481,-2.341,0.0,0.0,0.0,0.0,0.0,0.0,0.0,0.0,0.0,0.0,0.0,0.0,0.0,0.0,0.0,0.0,0.0,0.0,0.0,-1.9771,-1.9917,-1.9698,0.0,0.0,0.0,0.0,0.0,0.0,0.0,0.0,0.0,-3.1626,-3.1607,-3.1841,0.0,0.0,-3.2812,-3.2559,-3.3652,-3.4766,-3.5469,-3.445,0.0,0.0,-2.9654,-2.7478,-2.514,-2.5656,-2.6243,-2.5836,-2.6172,-2.64,-2.6104,-2.6039,-2.5972,-2.5665,-2.4222,-2.3233,-2.3514,-2.3621,-2.3768,-2.4168,-2.4396,-2.4489,-2.9398,-2.4776,-2.394,-2.3679,-2.3951,-2.4943,-2.7107,-2.9963,-2.9862,-3.0648,-3.192,-3.0738,-2.9615,-2.8521,-2.8009,0.0,0.0,0.0,-3.2168,-3.4355,-3.4766,-3.5664,-3.6894,-3.7168,-3.7031,-3.6523,-3.6269,-3.5664,-3.4687,-3.3926,-3.1465,-2.7441,0.0,0.0,-2.7148,-2.918,-3.1133,-3.3047,-3.5,-3.6035,-3.6035,-3.6035,-3.6035,-3.6016,-3.5762,-3.5312,-3.4629,-3.3115,-3.1552,-3.0187,-2.7171,-2.414,0.0,0.0,0.0,0.0,0.0,0.0,0.0,0.0,0.0,0.0,0.0,-1.9526,-1.8481,0.0,0.0,0.0,-2.1011,-2.2189,-2.2937,-2.2754,0.0,0.0,0.0,0.0,0.0,0.0,0.0,-2.7437,-3.0768,-3.3496,-3.4668,-3.4473,-3.4414,-3.5,-3.457,-3.4199,-3.4199,0.0,-3.6328,-3.7285,-3.6603,-3.5501,-3.4167,-3.2564,-3.0516,-2.7774,-2.8704,-2.9247,-2.848,-2.9372,-3.0115,-2.9998,-2.9191,-2.8712,-2.945,-2.7249,-2.5157,-2.5304,-2.5424,-2.5625,-2.5972,-2.6119,-2.6213,-3.2997,-3.0623,-2.7891,-2.6026,-2.4715,-2.4875,-2.7821,-3.2409,-3.2467,-3.4549,-3.7897,-3.6738,-3.5273,-3.3613,-3.1621,0.0,-3.3184,-3.3965,-3.5195,-3.6847,-3.7168,-3.7363,-3.7402,-3.7402,-3.7383,-3.7344,-3.7344,-3.7129,-3.666,-3.5488,-3.4277,-3.3027,-3.1445,-3.0566,-3.0372,-3.1543,-3.2617,-3.3535,-3.5098,-3.5937,-3.6016,-3.6035,-3.6035,-3.6035,-3.6035,-3.584,-3.5449,-3.5,-3.4394,-3.3491,-3.0626,-2.82,-2.6437,0.0,0.0,0.0,0.0,0.0,0.0,0.0,0.0,0.0,0.0,0.0,0.0,0.0,0.0,0.0,-2.428,0.0,-2.7779,-2.688,0.0,0.0,0.0,-2.5845,-2.6293,-2.9254,-3.126,-3.1332,0.0,0.0,-3.6172,-3.6973,-3.7832,-3.8711,-3.7969,-3.7363,-3.7402,-3.7773,-3.8281,-3.875,-3.8848,-3.8413,-3.6986,-3.6689,-3.5526,-3.2457,-3.3864,-3.4111,-3.2309,-3.3249,-3.444,-3.4111,-3.2678,-3.1776,-3.3569,-3.0515,-2.773,-2.7382,-2.6986,-2.6827,-2.6827,-2.7001,-2.7148,-3.6866,-3.3709,-3.4094,-3.2211,-2.9145,-3.0841,-3.3342,-3.6243,-3.7461,-3.8498,-3.9336,-3.8047,-3.707,-3.6328,-3.5508,-3.5527,-3.623,-3.6445,-3.6914,-3.7617,-3.7734,-3.7949,-3.8262,-3.8281,-3.8086,-3.7793,-3.7773,-3.7559,-3.7148,-3.6836,-3.6191,-3.5273,-3.4844,-3.3496,-3.1328,-3.1855,-3.291,-3.4375,-3.4805,-3.5332,-3.5996,-3.6035,-3.6035,-3.6035,-3.6035,-3.5957,-3.5879,-3.5469,-3.5137,-3.4883,-3.2913,-3.0806,-2.857,-2.4706,0.0,0.0,0.0,0.0,0.0,0.0,0.0,0.0,0.0,-2.2715,-2.0117,0.0,-2.3331,0.0,-2.5372,-2.7698,-2.9402,-2.8578,0.0,0.0,-2.9066,-2.9186,-3.1794,-3.3392,-3.4303,-3.4332,-3.6064,-3.748,-3.791,-3.873,-3.9707,-4.082,-3.9141,-3.7891,-3.8223,-3.9238,-4.0059,-4.0488,-4.1055,-4.0796,-3.8988,-3.7195,-3.6104,-3.5029,-3.546,-3.5476,-3.4895,-3.5211,-3.551,-3.5096,-3.4687,-3.4376,-3.455,-3.3516,-3.2982,-3.2469,-2.9821,-2.7161,-2.7161,-2.731,-2.735,-3.8365,-3.6471,-3.7027,-3.5687,-3.3264,-3.3743,-3.5371,-3.771,-3.862,-3.9472,-4.0098,-3.8984,-3.8359,-3.8144,-3.791,-3.793,-3.8144,-3.8359,-3.8574,-3.8789,-3.8789,-3.8945,-3.916,-3.8965,-3.873,-3.8496,-3.8301,-3.7988,-3.7598,-3.7578,-3.7246,-3.6601,-3.6582,-3.5566,-3.3613,-3.3379,-3.3769,-3.4687,-3.5078,-3.5625,-3.6289,-3.6309,-3.6035,-3.5449,-3.543,-3.5176,-3.4609,-3.418,-3.3867,-3.3652,-3.2363,-3.0975,-2.9392,-2.6091,-2.357,0.0,0.0,0.0,0.0,0.0,0.0,0.0,0.0,0.0,0.0,0.0,-2.5643,-2.5928,-2.8296,-3.0249,-3.1288,-3.1098,-3.1727,-3.3608,-3.2982,-3.3467,-3.6084,-3.6797,-3.7246,-3.7637,-3.8672,-3.9531,-3.9961,-4.0605,-4.1348,-4.2246,-4.1133,-4.0234,-4.0312,-4.0937,-4.1523,-4.1973,-4.2422,-4.245,-4.1342,-4.0189,-3.8938,-3.7931,-3.8477,-3.8772,-3.7687,-3.8147,-3.8733,-3.8454,-3.7667,-3.7352,-3.789,-3.6358,-3.5524,-3.5964,-3.3626,-3.1063,-3.0654,-3.0625,-3.0625,-3.8787,-3.8608,-3.8522,-3.8055,-3.7221,-3.586,-3.6271,-3.8001,-3.8055,-3.8925,-4.0312,-3.9648,-3.9336,-3.9297,-3.9297,-3.9297,-3.9316,-3.9707,-3.9883,-3.9883,-3.9883,-3.9883,-3.9883,-3.9473,-3.9258,-3.918,-3.8828,-3.8418,-3.8008,-3.8008,-3.7773,-3.7324,-3.7305,-3.6875,-3.6035,-3.5254,-3.4824,-3.4707,-3.5566,-3.6191,-3.6562,-3.6426,-3.5781,-3.4687,-3.4512,-3.3945,-3.2851,-3.2441,-3.207,-3.168,-3.0898,-3.0332,-3.0039,-2.715,-2.5478,0.0,-2.3275,0.0,0.0,0.0,0.0,0.0,0.0,0.0,0.0,-2.7871,-2.8863,-2.9961,-3.2031,-3.332,-3.3379,-3.4141,-3.5273,-3.6797,-3.6992,-3.7617,-3.9141,-3.9414,-3.9766,-4.0605,-4.1074,-4.1484,-4.1777,-4.2246,-4.2656,-4.2949,-4.2969,-4.2754,-4.2617,-4.2539,-4.2695,-4.3105,-4.3164,-4.318,-4.337,-4.3487,-4.2672,-4.0989,-4.1612,-4.2356,-4.0161,-4.1203,-4.2436,-4.2198,-4.0828,-4.0303,-4.2101,-3.9196,-3.7535,-3.9177,-3.7649,-3.5834,-3.4702,-3.4294,-3.4668,-4.064,-3.9205,-4.0887,-4.1433,-4.1298,-4.0956,-3.9949,-3.8471,-3.8798,-3.9138,-3.9492,-4.0039,-4.0098,-3.9766,-3.9766,-3.9766,-3.9766,-3.9863,-3.9883,-3.9883,-3.9883,-3.9883,-3.9883,-3.9805,-3.957,-3.9199,-3.9121,-3.8867,-3.8457,-3.8457,-3.8066,-3.7324,-3.7305,-3.6875,-3.6055,0.0,0.0,0.0,-3.5566,-3.6055,-3.6094,-3.5098,-3.4434,-3.418,-3.3516,0.0,-3.2812,-3.2715,-3.2637,-3.2539,-3.207,0.0,0.0,0.0,0.0,0.0,0.0,0.0,0.0,0.0,0.0,0.0,-2.998,-2.9121,-2.8223,-3.0351,-3.207,-3.2695,-3.4668,-3.6074,-3.6426,-3.7226,-3.7988,-3.8633,-3.8711,-3.9141,-4.0156,-4.0586,-4.0996,-4.1484,-4.1933,-4.2207,-4.2305,-4.2695,-4.2988,-4.3105,-4.3379,-4.3535,-4.3457,-4.3418,-4.3476,-4.3574,-4.3555,-4.3594,-4.3691,-4.3691,-4.3589,-4.3079,-4.3244,-4.337,-4.2925,-4.2988,-4.3301,-4.3027,-4.2624,-4.2245,-4.2439,-4.166,-4.1133,-4.1679,-4.1361,-3.9844,-3.6065,-3.4931,-3.4668,-4.2149,0.0,-4.2017,-4.2187,0.0,-4.2031,-4.1016,-3.9297,-4.0332,-4.0684,-4.0508,-4.0742,-4.0723,-4.0508,-4.0078,-3.9883,-3.9863,-3.9434,-3.9473,-3.9883,-3.9883,-4.0117,-4.0527,-4.0312,-4.0078,-3.9844,-3.9629,-3.9316,-3.8906,-3.8887,-3.8555,-3.793,-3.793,-3.7715,-3.7305,-3.7285,-3.6855,-3.5996,-3.6426,-3.6758,-3.6914,-3.6309,-3.5566,-3.4766,0.0,0.0,0.0,0.0,0.0,0.0,0.0,0.0,0.0,0.0,0.0,-3.0878,-3.0234,-3.0156,-3.0839,-3.123,-3.2109,-3.3613,-3.3926,-3.3418,-3.1914,-3.3769,-3.5273,-3.5918,-3.7168,-3.8008,-3.8242,-3.8848,-3.9394,-3.9805,-4.0039,-4.0449,-4.1074,-4.1523,-4.1875,-4.2109,-4.248,-4.2754,-4.2754,-4.3125,-4.3359,-4.3398,-4.3555,-4.3691,-4.3691,-4.3691,-4.3691,-4.3691,-4.3691,-4.3691,-4.3691,-4.3691,-4.3711,-4.3691,-4.3691,-4.3691,-4.3691,-4.3691,-4.3633,-4.3418,-4.3379,-4.3301,-4.3125,-4.3066,-4.3047,-4.3027,-4.2891,-4.211,-3.9595,-3.8843,-3.8419,-4.3183,-4.3144,-4.2793,-4.2246,-4.1641,-4.1992,-4.1543,-4.0644,0.0,0.0,0.0,-4.1406,-4.1289,-4.123,-4.0469,-4.0117,-4.0078,-3.9375,-3.9434,-4.0117,-4.0117,-4.0488,-4.1133,-4.0801,-4.0605,-4.0508,-4.0176,-3.9766,-3.9336,-3.9316,-3.9141,-3.8828,-3.873,-3.8652,-3.8574,-3.8574,-3.8223,-3.7559,-3.7383,-3.7461,-3.7793,-3.7598,-3.6816,-3.541,-3.5156,-3.4375,-3.2969,-3.25,-3.1953,-3.1269,-3.123,-3.1328,-3.1543,-3.1816,-3.2246,-3.2812,-3.3242,-3.3789,-3.4492,-3.5,-3.5644,-3.6523,-3.7305,-3.7266,-3.6152,-3.7031,-3.7969,-3.875,-3.918,-3.9453,-3.9551,-3.9961,-4.041,-4.082,-4.1172,-4.1523,-4.1875,-4.2285,-4.2539,-4.2598,-4.293,-4.3183,-4.3203,-4.3476,-4.3691,-4.3691,-4.3691,-4.3691,-4.3691,-4.3691,-4.375,-4.3848,-4.3887,-4.3867,-4.3926,-4.3887,-4.3848,-4.3867,-4.3769,-4.3691,-4.3691,-4.3691,-4.3691,-4.3672,-4.3691,-4.3672,-4.3691,-4.3633,-4.3691,-4.3691,-4.3437,-4.3183,-4.3164,-4.291,-4.2259,-4.3613,-4.3613,-4.3555,-4.3457,-4.3359,-4.3418,-4.334,-4.3066,-4.1894,-4.1328,-4.1289,-4.1582,-4.1719,-4.168,-4.1211,-4.0996,-4.0996,-4.0859,-4.0879,-4.0996,-4.0996,-4.1055,-4.1172,-4.1113,-4.0879,-4.0547,-4.0469,-4.0215,-3.9844,-3.9805,-3.9766,-3.9668,-3.9316,-3.8945,-3.8613,-3.8574,-3.8516,-3.8379,-3.7676,-3.7324,-3.7363,-3.6328,-3.5644,-3.5371,-3.4336,-3.3613,-3.334,-3.2949,-3.2656,-3.2539,-3.2519,-3.3027,-3.4062,-3.3887,-3.4238,-3.5371,-3.5898,-3.6191,-3.6309,-3.7031,-3.7832,-3.8672,-3.9238,-3.9277,-3.873,-3.8828,-3.9141,-3.9668,-4.0098,-4.0488,-4.0859,-4.125,-4.1641,-4.2051,-4.2187,-4.2285,-4.2344,-4.2715,-4.2988,-4.2988,-4.3359,-4.3594,-4.3594,-4.3652,-4.3691,-4.3691,-4.3691,-4.3691,-4.3691,-4.3691,-4.3887,-4.4199,-4.4297,-4.4453,-4.4629,-4.4512,-4.4316,-4.4297,-4.3965,-4.373,-4.3691,-4.3691,-4.3691,-4.3691,-4.3691,-4.3691,-4.3691,-4.3691,-4.3691,-4.3691,-4.3594,-4.3574,-4.3574,-4.3496,-4.3223,-4.3691,-4.3691,-4.3691,-4.3691,-4.3691,-4.3691,-4.3691,-4.3633,-4.2891,-4.2402,-4.2207,-4.2168,-4.2148,-4.2051,-4.1211,-4.082,-4.0781,-4.0098,-4.0019,-4.0469,-4.0488,-4.0723,-4.1152,-4.1172,-4.1074,-4.0879,-4.0879,-4.0644,-4.0273,-4.0234,-4.0117,-3.9902,-3.9668,-3.9473,-3.9316,-3.9297,-3.9297,-3.9277,-3.8437,-3.7988,-3.7969,-3.7422,-3.7012,-3.6758,-3.6152,-3.5742,-3.5527,-3.5332,-3.5137,-3.4902,-3.5117,-3.541,-3.5742,-3.5801,-3.6191,-3.6992,-3.7461,-3.7793,-3.8027,-3.8633,-3.9258,-3.9863,-4.0117,-4.0351,-4.0605,-4.0176,-4.0195,-4.0859,-4.1113,-4.1387,-4.1797,-4.2031,-4.2226,-4.2402,-4.2637,-4.2773,-4.2832,-4.3164,-4.3418,-4.3437,-4.3574,-4.3691,-4.3691,-4.3691,-4.3691,-4.3691,-4.3711,-4.3711,-4.373,-4.3945,-4.416,-4.4375,-4.459,-4.4805,-4.5,-4.4883,-4.4668,-4.4453,-4.4219,-4.3984,-4.3789,-4.3711,-4.3711,-4.3691,-4.3691,-4.3691,-4.3691,-4.3691,-4.3691,-4.3691,-4.3691,-4.3691,-4.3691,-4.3691,-4.3476,-4.3691,-4.3691,-4.3691,-4.3691,-4.3691,-4.3691,-4.3691,-4.3691,-4.3691,-4.3516,-4.3183,-4.2773,-4.2578,-4.2461,-4.1426,-4.0957,-4.082,-3.9922,-3.9824,-4.041,-4.0371,-4.0684,-4.125,-4.123,-4.1172,-4.1172,-4.1172,-4.0996,-4.0703,-4.0664,-4.0449,-4.0078,-4.0039,-4.0,-3.9883,-3.9883,-3.9883,-3.9844,-3.9219,-3.8867,-3.8867,-3.8867,-3.8711,-3.8398,-3.8262,-3.8066,-3.7754,-3.7637,-3.7422,-3.7129,-3.7402,-3.748,-3.7266,-3.7559,-3.793,-3.834,-3.8672,-3.9062,-3.9473,-3.9824,-4.0254,-4.0762,-4.082,-4.1133,-4.1777,-4.1348,-4.1211,-4.1816,-4.1914,-4.209,-4.2461,-4.2558,-4.2617,-4.2715,-4.3008,-4.3203,-4.3242,-4.3516,-4.3691,-4.3691,-4.3691,-4.373,-4.3828,-4.3867,-4.3926,-4.4023,-4.4004,-4.4004,-4.4043,-4.4394,-4.4648,-4.4746,-4.4961,-4.5215,-4.5273,-4.5234,-4.5058,-4.4707,-4.459,-4.4355,-4.4043,-4.3887,-4.3789,-4.375,-4.3691,-4.3691,-4.3691,-4.3691,-4.3691,-4.3691,-4.3691,-4.3691,-4.3691,-4.3691,-4.3613,-4.3691,-4.3691,-4.3691,-4.3691,-4.3691,-4.3691,-4.3691,-4.3691,-4.3691,-4.3691,-4.3574,-4.3203,-4.3008,-4.2949,-4.2461,-4.2207,-4.2207,-4.2109,-4.2051,-4.207,-4.1797,-4.166,-4.1699,-4.1367,-4.1172,-4.1191,-4.1191,-4.1172,-4.1074,-4.1094,-4.0898,-4.0508,-4.0469,-4.0273,-3.9961,-3.9922,-3.9902,-3.9902,-3.9824,-3.9766,-3.9766,-3.9785,-3.9746,-3.9707,-3.9297,-3.9062,-3.8965,-3.8672,-3.8437,-3.8398,-3.8418,-3.8613,-3.8906,-3.8984,-3.9219,-3.9648,-3.9746,-3.9961,-4.0351,-4.0449,-4.082,-4.1582,-4.166,-4.1855,-4.2305,-4.2285,-4.2266,-4.2383,-4.2383,-4.2558,-4.2949,-4.3027,-4.3144,-4.3437,-4.3555,-4.3652,-4.3652,-4.3672,-4.3691,-4.3691,-4.3769,-4.3848,-4.4238,-4.4336,-4.4453,-4.4668,-4.4648,-4.4629,-4.4648,-4.5039,-4.5351,-4.5449,-4.5586,-4.5762,-4.5976,-4.584,-4.5586,-4.5488,-4.5215,-4.4805,-4.4433,-4.4258,-4.4219,-4.3769,-4.3691,-4.3691,-4.3691,-4.3691,-4.3691,-4.3691,-4.3691,-4.3691,-4.3691,-4.3691,-4.3652,-4.3691,-4.3691,-4.3691,-4.3691,-4.3691,-4.3691,-4.3691,-4.3691,-4.3691,-4.3691,-4.3691,-4.3516,-4.3457,-4.3418,-4.3008,-4.2812,-4.2793,-4.2558,-4.2422,-4.2402,-4.2246,-4.2168,-4.2148,-4.2012,-4.1797,-4.1562,-4.1543,-4.1426,-4.1211,-4.1172,-4.1074,-4.0937,-4.0918,-4.082,-4.0664,-4.0644,-4.0644,-4.0664,-4.0644,-4.0664,-4.0586,-4.0156,-3.9883,-3.9883,-3.9707,-3.9609,-3.9609,-3.9434,-3.9355,-3.9355,-3.9355,-3.9434,-3.9609,-3.9609,-3.9805,-4.0234,-4.0527,-4.084,-4.125,-4.1269,-4.1543,-4.2129,-4.2168,-4.2344,-4.2754,-4.2812,-4.291,-4.3125,-4.2969,-4.2988,-4.3379,-4.3437,-4.3516,-4.3672,-4.3691,-4.3808,-4.4101,-4.3867,-4.3867,-4.4355,-4.4258,-4.4277,-4.4648,-4.4766,-4.4726,-4.4707,-4.4668,-4.4668,-4.4394,-4.4824,-4.5254,-4.5351,-4.5683,-4.6074,-4.625,-4.6191,-4.5957,-4.5723,-4.5547,-4.5234,-4.459,-4.4414,-4.4238,-4.3789,-4.3711,-4.3691,-4.3691,-4.3691,-4.3691,-4.3691,-4.3691,-4.3691,-4.3691,-4.3691,-4.3691,-4.3691,-4.3691,-4.3691,-4.3691,-4.3691,-4.3691,-4.3691,-4.3691,-4.3691,-4.3691,-4.3691,-4.3691,-4.3691,-4.3652,-4.3379,-4.3242,-4.3203,-4.291,-4.2773,-4.2754,-4.2676,-4.2617,-4.2598,-4.248,-4.2266,-4.1992,-4.1836,-4.1582,-4.1211,-4.1172,-4.1172,-4.1172,-4.1172,-4.1172,-4.1172,-4.1172,-4.1172,-4.1172,-4.1172,-4.1172,-4.1074,-4.0566,-4.0254,-4.0254,-4.0254,-4.0234,-4.0254,-4.0254,-4.0254,-4.0254,-4.0254,-4.0234,-4.0254,-4.0254,-4.0449,-4.084,-4.1172,-4.1523,-4.1933,-4.1973,-4.2148,-4.2539,-4.2617,-4.2773,-4.3144,-4.3242,-4.3379,-4.3594,-4.3418,-4.3398,-4.3633,-4.3691,-4.375,-4.3867,-4.3887,-4.4082,-4.4473,-4.4238,-4.4336,-4.4883,-4.4726,-4.4726,-4.5117,-4.5293,-4.5312,-4.5098,-4.498,-4.4844,-4.457,-4.5039,-4.543,-4.5391,-4.5937,-4.623,-4.6308,-4.6269,-4.6133,-4.5957,-4.5762,-4.5391,-4.4707,-4.4551,-4.4238,-4.3828,-4.375,-4.3691,-4.3691,-4.3691,-4.3691,-4.3691,-4.3691,-4.3691,-4.3691,-4.3691,-4.3691,-4.3691,-4.3691,-4.3691,-4.3691,-4.3691,-4.3691,-4.3691,-4.3691,-4.3691,-4.3691,-4.3691,-4.3691,-4.3691,-4.3691,-4.3652,-4.3652,-4.3652,-4.3594,-4.3574,-4.3535,-4.3223,-4.3047,-4.3027,-4.2637,-4.2422,-4.2383,-4.209,-4.168,-4.125,-4.1191,-4.1172,-4.1191,-4.1191,-4.1172,-4.1172,-4.1172,-4.1172,-4.1172,-4.1172,-4.1172,-4.1172,-4.1113,-4.1055,-4.1055,-4.1094,-4.1055,-4.1074,-4.1094,-4.1094,-4.1094,-4.1055,-4.1074,-4.1094,-4.1094,-4.1269,-4.166,-4.1758,-4.1953,-4.2324,-4.2402,-4.2598,-4.2969,-4.3047,-4.3223,-4.3555,-4.3613,-4.3633,-4.3691,-4.3691,-4.3711,-4.375,-4.3789,-4.3926,-4.4258,-4.4355,-4.4551,-4.4961,-4.4922,-4.4961,-4.5078,-4.5098,-4.5234,-4.5605,-4.5996,-4.6074,-4.6055,-4.6113,-4.6016,-4.584,-4.6035,-4.6094,-4.6094,-4.6191,-4.6308,-4.6308,-4.6308,-4.6289,-4.6074,-4.5742,-4.5488,-4.5098,-4.4668,-4.4219,-4.3867,-4.3769,-4.3691,-4.3691,-4.3691,-4.3691,-4.3691,-4.3691,-4.3691,-4.3691,-4.3691,-4.3691,-4.3691,-4.3691,-4.3691,-4.3691,-4.3691,-4.3691,-4.3691,-4.3691,-4.3691,-4.3691,-4.3691,-4.3691,-4.3691,-4.3691,-4.3691,-4.3691,-4.3691,-4.3691,-4.3691,-4.3691,-4.3535,-4.3476,-4.3457,-4.3301,-4.3086,-4.2851,-4.2676,-4.2402,-4.1973,-4.1699,-4.1582,-4.1523,-4.1289,-4.1172,-4.1172,-4.1172,-4.1172,-4.1172,-4.1172,-4.1172,-4.1191,-4.1172,-4.1172,-4.1172,-4.1172,-4.1172,-4.1172,-4.1172,-4.1172,-4.1172,-4.1172,-4.1172,-4.1191,-4.1426,-4.1758,-4.2148,-4.2207,-4.2383,-4.2773,-4.2851,-4.3027,-4.3418,-4.3476,-4.3516,-4.3652,-4.3691,-4.3691,-4.375,-4.4004,-4.4141,-4.4141,-4.4141,-4.4219,-4.4394,-4.4648,-4.498,-4.5254,-4.5215,-4.5215,-4.5703,-4.584,-4.5918,-4.5996,-4.6211,-4.6191,-4.5957,-4.5898,-4.5801,-4.5605,-4.5703,-4.5918,-4.5976,-4.6133,-4.6308,-4.6308,-4.6308,-4.623,-4.5976,-4.5664,-4.5234,-4.4844,-4.457,-4.416,-4.3828,-4.3711,-4.3691,-4.3691,-4.3691,-4.3691,-4.3691,-4.3691,-4.3691,-4.3691,-4.3691,-4.3691,-4.3691,-4.3691,-4.3691,-4.3691,-4.3691,-4.3691,-4.3691,-4.3691,-4.3691,-4.3691,-4.3691,-4.3691,-4.3691,-4.3691,-4.3691,-4.3691,-4.3691,-4.3691,-4.3691,-4.3691,-4.3691,-4.3691,-4.3691,-4.3691,-4.3555,-4.3281,-4.3125,-4.2851,-4.2441,-4.2148,-4.2012,-4.1973,-4.1699,-4.1504,-4.1406,-4.1367,-4.1328,-4.1211,-4.1172,-4.123,-4.1348,-4.1387,-4.1445,-4.1543,-4.1582,-4.1426,-4.1191,-4.1172,-4.125,-4.1348,-4.1367,-4.1445,-4.1582,-4.1836,-4.2187,-4.2578,-4.2637,-4.2832,-4.3203,-4.3281,-4.3398,-4.3672,-4.3691,-4.3691,-4.3691,-4.3691,-4.3769,-4.3945,-4.418,-4.4433,-4.4609,-4.4726,-4.4805,-4.4844,-4.5058,-4.541,-4.5801,-4.5625,-4.5742,-4.6113,-4.625,-4.623,-4.6152,-4.623,-4.6016,-4.5547,-4.5566,-4.5488,-4.5195,-4.5391,-4.5683,-4.5703,-4.6055,-4.625,-4.6308,-4.6308,-4.6113,-4.5859,-4.5332,-4.4941,-4.4609,-4.4375,-4.4141,-4.3828,-4.3691,-4.3691,-4.3691,-4.3691,-4.3691,-4.3691,-4.3691,-4.3691,-4.3691,-4.3691,-4.3691,-4.3691,-4.3691,-4.3691,-4.3691,-4.3691,-4.3691,-4.3691,-4.3691,-4.3691,-4.3691,-4.3691,-4.3691,-4.3691,-4.3691,-4.3691,-4.3691,-4.3691,-4.3691,-4.3691,-4.3691,-4.3691,-4.3691,-4.3691,-4.3691,-4.3691,-4.3633,-4.3281,-4.291,-4.2558,-4.248,-4.2422,-4.2422,-4.2363,-4.2109,-4.1797,-4.1777,-4.1621,-4.1367,-4.1308,-4.1445,-4.1738,-4.1797,-4.1973,-4.2285,-4.2324,-4.1992,-4.1269,-4.125,-4.1445,-4.1758,-4.1797,-4.2012,-4.2324,-4.2422,-4.2617,-4.2988,-4.3086,-4.3281,-4.3594,-4.3652,-4.3633,-4.3711,-4.3711,-4.3789,-4.3789,-4.3828,-4.4004,-4.4336,-4.4492,-4.4629,-4.5019,-4.5391,-4.5586,-4.5664,-4.5625,-4.5859,-4.6133,-4.6269,-4.6289,-4.6308,-4.6308,-4.6113,-4.5898,-4.5996,-4.5898,-4.5371,-4.5371,-4.5469,-4.5156,-4.5391,-4.5644,-4.5742,-4.6016,-4.6289,-4.6308,-4.6269,-4.6016,-4.5703,-4.5078,-4.457,-4.4316,-4.4082,-4.3945,-4.3691,-4.3691,-4.3691,-4.3691,-4.3691,-4.3691,-4.3691,-4.3691,-4.3691,-4.3691,-4.3691,-4.3691,-4.3691,-4.3691,-4.3691,-4.3691,-4.3691,-4.3691,-4.3691,-4.3691,-4.3691,-4.3691,-4.3691,-4.3691,-4.3691,-4.3691,-4.3691,-4.3691,-4.3691,-4.3691,-4.3691,-4.3691,-4.3691,-4.3691,-4.3691,-4.3691,-4.3691,-4.3691,-4.3574,-4.3437,-4.3262,-4.3008,-4.2871,-4.2832,-4.2578,-4.2363,-4.2246,-4.2226,-4.2129,-4.2051,-4.2031,-4.2109,-4.2226,-4.2226,-4.2305,-4.2402,-4.2422,-4.2285,-4.207,-4.2031,-4.2109,-4.2246,-4.2226,-4.2422,-4.2773,-4.2871,-4.3066,-4.3457,-4.3516,-4.3535,-4.3652,-4.3711,-4.3711,-4.3769,-4.3984,-4.416,-4.4219,-4.4433,-4.4629,-4.4863,-4.5078,-4.5351,-4.5508,-4.5859,-4.5976,-4.5723,-4.5937,-4.6133,-4.6269,-4.6308,-4.6308,-4.6308,-4.6308,-4.6113,-4.5801,-4.584,-4.5644,-4.5098,-4.5117,-4.5137,-4.5098,-4.5293,-4.5664,-4.5703,-4.6035,-4.6172,-4.6094,-4.5918,-4.5644,-4.5391,-4.4902,-4.4375,-4.4082,-4.3906,-4.3769,-4.3691,-4.3691,-4.3691,-4.3691,-4.3691,-4.3691,-4.3691,-4.3691,-4.3691,-4.3691,-4.3691,-4.3691,-4.3691,-4.3691,-4.3691,-4.3691,-4.3691,-4.3691,-4.3691,-4.3691,-4.3691,-4.3691,-4.3691,-4.3691,-4.3691,-4.3691,-4.3691,-4.3691,-4.3691,-4.3691,-4.3691,-4.3691,-4.3691,-4.3691,-4.3691,-4.3691,-4.3691,-4.3691,-4.3691,-4.3691,-4.3691,-4.3457,-4.3301,-4.3242,-4.3027,-4.2832,-4.2695,-4.2656,-4.2617,-4.2461,-4.2402,-4.25,-4.2637,-4.2656,-4.2734,-4.2871,-4.291,-4.2891,-4.2891,-4.291,-4.2832,-4.2734,-4.2812,-4.3047,-4.3281,-4.332,-4.3418,-4.3613,-4.3691,-4.3691,-4.3711,-4.3887,-4.3965,-4.4043,-4.4375,-4.4629,-4.4668,-4.4902,-4.5058,-4.5293,-4.5488,-4.5742,-4.5918,-4.6133,-4.6152,-4.5957,-4.6133,-4.6289,-4.6308,-4.6308,-4.6308,-4.6308,-4.6308,-4.6016,-4.5625,-4.5605,-4.5312,-4.4785,-4.4687,-4.4668,-4.4707,-4.4902,-4.5117,-4.5312,-4.5469,-4.5605,-4.5742,-4.5547,-4.5273,-4.5019,-4.4746,-4.4297,-4.3926,-4.3828,-4.3691,-4.3691,-4.3691,-4.3691,-4.3691,-4.3691,-4.3691,-4.3691,-4.3691,-4.3691,-4.3691,-4.3691,-4.3691,-4.3691,-4.3691,-4.3691,-4.3691,-4.3691,-4.3691,-4.373,-4.3769,-4.3769,-4.3808,-4.3828,-4.3906,-4.3848,-4.3808,-4.3848,-4.3848,-4.3789,-4.3789,-4.3808,-4.3808,-4.3789,-4.3789,-4.3711,-4.3691,-4.3691,-4.3691,-4.3691,-4.3691,-4.3691,-4.3652,-4.3691,-4.3633,-4.3594,-4.3496,-4.3164,-4.3105,-4.293,-4.2676,-4.2578,-4.2773,-4.3086,-4.3105,-4.3262,-4.3613,-4.3613,-4.3594,-4.3574,-4.3555,-4.3457,-4.3203,-4.3418,-4.3594,-4.3672,-4.3691,-4.3672,-4.3711,-4.3711,-4.3789,-4.3867,-4.4199,-4.4433,-4.4453,-4.4805,-4.5058,-4.5078,-4.5195,-4.5391,-4.5664,-4.5762,-4.5879,-4.6172,-4.6289,-4.6289,-4.6289,-4.6289,-4.6308,-4.6308,-4.6308,-4.6308,-4.6308,-4.6269,-4.5996,-4.5254,-4.541,-4.4941,-4.4277,-4.4199,-4.4277,-4.4219,-4.4433,-4.4473,-4.4746,-4.5176,-4.5273,-4.5488,-4.5586,-4.5273,-4.4785,-4.4551,-4.4258,-4.3887,-4.375,-4.3691,-4.3691,-4.3691,-4.3691,-4.3691,-4.3691,-4.3691,-4.3691,-4.3691,-4.3691,-4.3691,-4.3691,-4.3691,-4.3691,-4.3691,-4.3691,-4.3691,-4.3691,-4.3691,-4.3906,-4.4199,-4.4219,-4.4375,-4.459,-4.4668,-4.4629,-4.4648,-4.4336,-4.4375,-4.4512,-4.4336,-4.4219,-4.4219,-4.4219,-4.4004,-4.375,-4.3691,-4.3691,-4.3691,-4.3691,-4.3691,-4.3691,-4.3691,-4.3691,-4.3691,-4.3691,-4.3652,-4.3555,-4.3516,-4.3496,-4.3379,-4.3359,-4.3379,-4.3476,-4.3516,-4.3574,-4.3672,-4.3691,-4.3691,-4.3691,-4.3691,-4.3672,-4.3574,-4.3633,-4.3691,-4.373,-4.373,-4.375,-4.3808,-4.4043,-4.4219,-4.4297,-4.4629,-4.4844,-4.4883,-4.5254,-4.5488,-4.5508,-4.5801,-4.5996,-4.6133,-4.6152,-4.6172,-4.6289,-4.6308,-4.6308,-4.6308,-4.6308,-4.6308,-4.6308,-4.6308,-4.6308,-4.6308,-4.6308,-4.5879,-4.5371,-4.5098,-4.4883,-4.4141,-4.4121,-4.4414,-4.4336,-4.4492,-4.4766,-4.4961,-4.5234,-4.5215,-4.5273,-4.5449,-4.5254,-4.4648,-4.4394,-4.4258,-4.3945,-4.373,-4.3691,-4.3691,-4.3691,-4.3691,-4.3691,-4.3691,-4.3691,-4.3691,-4.3691,-4.3691,-4.3691,-4.3691,-4.3691,-4.3691,-4.3691,-4.3691,-4.3691,-4.373,-4.3906,-4.416,-4.4394,-4.459,-4.4785,-4.5,-4.5039,-4.5039,-4.5,-4.4766,-4.4785,-4.498,-4.4766,-4.4668,-4.4629,-4.4473,-4.4141,-4.3808,-4.3691,-4.3691,-4.3691,-4.3691,-4.3691,-4.3691,-4.3691,-4.3691,-4.3691,-4.3691,-4.3691,-4.3691,-4.3691,-4.3691,-4.3691,-4.3691,-4.3691,-4.3691,-4.3691,-4.3691,-4.3691,-4.3691,-4.3691,-4.3691,-4.3691,-4.3691,-4.3691,-4.3711,-4.3789,-4.3984,-4.4004,-4.4082,-4.4238,-4.4531,-4.4668,-4.4726,-4.5058,-4.5293,-4.5371,-4.5703,-4.5898,-4.5976,-4.6191,-4.6308,-4.6289,-4.6308,-4.6308,-4.6308,-4.6308,-4.6308,-4.6308,-4.6308,-4.6308,-4.6308,-4.6308,-4.6308,-4.6308,-4.6269,-4.6074,-4.5391,-4.5312,-4.4941,-4.4551,-4.4512,-4.4648,-4.4687,-4.4922,-4.5078,-4.5195,-4.5215,-4.5176,-4.5156,-4.5273,-4.5332,-4.4766,-4.457,-4.4394,-4.4082,-4.3808,-4.373,-4.373,-4.3711,-4.3691,-4.3691,-4.3691,-4.3691,-4.3691,-4.3691,-4.3691,-4.3691,-4.3691,-4.3691,-4.3691,-4.3691,-4.3691,-4.3691,-4.3769,-4.4199,-4.4414,-4.4551,-4.4922,-4.5137,-4.5234,-4.5195,-4.5293,-4.5156,-4.5156,-4.5117,-4.5195,-4.5156,-4.5098,-4.498,-4.4726,-4.4316,-4.4023,-4.3769,-4.3711,-4.3691,-4.3691,-4.3691,-4.3691,-4.3691,-4.3691,-4.3691,-4.3691,-4.3691,-4.3691,-4.3691,-4.3691,-4.3691,-4.3691,-4.3691,-4.3691,-4.3691,-4.3691,-4.3711,-4.3828,-4.3848,-4.3848,-4.3867,-4.3926,-4.3867,-4.3808,-4.4043,-4.4375,-4.4453,-4.4609,-4.4883,-4.5,-4.5098,-4.5156,-4.5488,-4.5742,-4.5801,-4.6074,-4.6289,-4.6269,-4.6289,-4.6308,-4.6308,-4.6308,-4.6308,-4.6308,-4.6308,-4.6308,-4.6308,-4.6308,-4.6308,-4.6308,-4.6308,-4.6308,-4.6308,-4.6308,-4.6094,-4.582,-4.5644,-4.5488,-4.4844,-4.4902,-4.5078,-4.5098,-4.5195,-4.5254,-4.5234,-4.5215,-4.5137,-4.5117,-4.5117,-4.5137,-4.4961,-4.4902,-4.4726,-4.4316,-4.4043,-4.3848,-4.375,-4.3711,-4.3691,-4.3691,-4.3691,-4.3691,-4.3691,-4.3691,-4.3691,-4.3691,-4.3691,-4.3691,-4.3691,-4.3691,-4.3691,-4.3691,-4.3769,-4.4199,-4.457,-4.4902,-4.5332,-4.5664,-4.5937,-4.5996,-4.5996,-4.5976,-4.5683,-4.5703,-4.5879,-4.5683,-4.5547,-4.5488,-4.5098,-4.4883,-4.457,-4.4101,-4.375,-4.375,-4.3711,-4.3711,-4.373,-4.373,-4.3711,-4.373,-4.3711,-4.3711,-4.373,-4.373,-4.3691,-4.3691,-4.3691,-4.3711,-4.375,-4.375,-4.3769,-4.3808,-4.4082,-4.4238,-4.4336,-4.457,-4.4746,-4.4668,-4.4473,-4.4492,-4.4805,-4.4883,-4.498,-4.5137,-4.5391,-4.5527,-4.5605,-4.5879,-4.6172,-4.6152,-4.6211,-4.6308,-4.6308,-4.6308,-4.6308,-4.6308,-4.6308,-4.6308,-4.6308,-4.6308,-4.6308,-4.6308,-4.6308,-4.6308,-4.6308,-4.6308,-4.6308,-4.6308,-4.6289,-4.6152,-4.5762,-4.5723,-4.5527,-4.5176,-4.5273,-4.5488,-4.5527,-4.5527,-4.5527,-4.5527,-4.5527,-4.5508,-4.543,-4.543,-4.543,-4.5391,-4.5332,-4.5156,-4.4746,-4.4433,-4.4297,-4.4004,-4.3711,-4.3711,-4.375,-4.3691,-4.3691,-4.3691,-4.3691,-4.3691,-4.3691,-4.3691,-4.3691,-4.3691,-4.3691,-4.3691,-4.3691,-4.3769,-4.4199,-4.4531,-4.4844,-4.541,-4.5801,-4.6016,-4.6191,-4.6308,-4.6289,-4.6094,-4.6113,-4.6211,-4.6094,-4.5859,-4.5683,-4.5391,-4.5234,-4.5,-4.4609,-4.4316,-4.4297,-4.4121,-4.4043,-4.3984,-4.3848,-4.3828,-4.3984,-4.3848,-4.3867,-4.3926,-4.3848,-4.3711,-4.3691,-4.3711,-4.3789,-4.3984,-4.4023,-4.418,-4.4297,-4.457,-4.4687,-4.4726,-4.4883,-4.5117,-4.5215,-4.5137,-4.5078,-4.5273,-4.5332,-4.541,-4.5644,-4.5801,-4.5957,-4.6055,-4.6152,-4.6289,-4.6308,-4.6308,-4.6308,-4.6308,-4.6308,-4.6308,-4.6308,-4.6308,-4.6308,-4.6308,-4.6308,-4.6308,-4.6308,-4.6308,-4.6308,-4.6308,-4.6308,-4.6308,-4.6308,-4.6308,-4.6211,-4.6035,-4.5918,-4.5918,-4.5723,-4.5742,-4.5937,-4.5976,-4.5957,-4.5976,-4.5976,-4.5976,-4.5918,-4.582,-4.582,-4.5879,-4.5859,-4.584,-4.5625,-4.5312,-4.5058,-4.4805,-4.4433,-4.4043,-4.3828,-4.3828,-4.3769,-4.375,-4.3711,-4.3711,-4.3711,-4.3711,-4.375,-4.373,-4.3691,-4.3691,-4.3691,-4.3691,-4.3769,-4.4199,-4.4414,-4.4531,-4.5234,-4.5605,-4.5742,-4.6055,-4.6191,-4.6289,-4.6289,-4.6289,-4.6289,-4.6289,-4.6074,-4.584,-4.5801,-4.5625,-4.5371,-4.5273,-4.5215,-4.5156,-4.4726,-4.4512,-4.4375,-4.416,-4.4219,-4.4394,-4.416,-4.4199,-4.4336,-4.416,-4.4023,-4.4043,-4.4062,-4.416,-4.4433,-4.4492,-4.4648,-4.4844,-4.5078,-4.5117,-4.5156,-4.5273,-4.543,-4.5742,-4.5762,-4.5762,-4.5762,-4.5781,-4.5898,-4.625,-4.623,-4.623,-4.623,-4.6269,-4.6308,-4.6308,-4.6308,-4.6308,-4.6308,-4.6308,-4.6308,-4.6308,-4.6308,-4.6308,-4.6308,-4.6308,-4.6308,-4.6308,-4.6308,-4.6308,-4.6308,-4.6308,-4.6308,-4.6308,-4.6308,-4.625,-4.625,-4.6191,-4.6269,-4.6308,-4.6308,-4.6308,-4.6308,-4.6289,-4.623,-4.6211,-4.6172,-4.6152,-4.6055,-4.6016,-4.6113,-4.6133,-4.6172,-4.6016,-4.5801,-4.5664,-4.5351,-4.4805,-4.4433,-4.4258,-4.4101,-4.4062,-4.3984,-4.3828,-4.375,-4.3769,-4.3769,-4.3789,-4.3867,-4.3691,-4.3691,-4.3691,-4.3691,-4.3769,-4.4199,-4.4375,-4.4473,-4.4902,-4.5351,-4.5644,-4.5762,-4.5996,-4.6211,-4.6308,-4.6308,-4.6308,-4.6289,-4.625,-4.6152,-4.6152,-4.6035,-4.5976,-4.5918,-4.5996,-4.5859,-4.5371,-4.498,-4.4922,-4.4863,-4.4746,-4.4863,-4.4785,-4.4824,-4.4863,-4.4824,-4.4687,-4.4629,-4.4648,-4.4766,-4.4883,-4.498,-4.5019,-4.5195,-4.543,-4.5547,-4.5644,-4.5898,-4.6133,-4.6191,-4.6211,-4.6191,-4.6152,-4.6152,-4.6211,-4.6269,-4.6308,-4.6308,-4.6308,-4.6308,-4.6308,-4.6308,-4.6308,-4.6308,-4.6308,-4.6308,-4.6308,-4.6308,-4.6308,-4.6308,-4.6308,-4.6308,-4.6308,-4.6308,-4.6308,-4.6308,-4.6308,-4.6308,-4.6308,-4.6308,-4.6308,-4.6308,-4.6308,-4.6308,-4.6308,-4.6308,-4.6308,-4.6308,-4.6308,-4.6308,-4.6289,-4.6269,-4.6289,-4.6269,-4.625,-4.623,-4.625,-4.623,-4.625,-4.625,-4.6133,-4.6191,-4.5879,-4.5332,-4.498,-4.4824,-4.4648,-4.4433,-4.4336,-4.4277,-4.4082,-4.3867,-4.4062,-4.4277,-4.4433,-4.3691,-4.3691,-4.3691,-4.3691,-4.375,-4.3945,-4.4023,-4.4101,-4.4512,-4.4824,-4.5098,-4.5449,-4.5781,-4.5996,-4.623,-4.6308,-4.6308,-4.6308,-4.6308,-4.6308,-4.6308,-4.6308,-4.6308,-4.6308,-4.6308,-4.6191,-4.5859,-4.5527,-4.5351,-4.5098,-4.5195,-4.5273,-4.5156,-4.5137,-4.5234,-4.5117,-4.5078,-4.5058,-4.5058,-4.5156,-4.5371,-4.5527,-4.5664,-4.5742,-4.584,-4.5976,-4.6035,-4.6152,-4.6289,-4.6289,-4.6289,-4.6308,-4.6308,-4.6308,-4.6308,-4.6308,-4.6308,-4.6308,-4.6308,-4.6308,-4.6308,-4.6308,-4.6308,-4.6308,-4.6308,-4.6308,-4.6308,-4.6308,-4.6308,-4.6308,-4.6308,-4.6308,-4.6308,-4.6308,-4.6308,-4.6308,-4.6308,-4.6308,-4.6308,-4.6308,-4.6308,-4.6308,-4.6308,-4.6308,-4.6308,-4.6308,-4.6308,-4.6308,-4.6308,-4.6308,-4.6308,-4.6308,-4.6308,-4.6308,-4.6308,-4.6308,-4.6308,-4.6308,-4.6308,-4.6308,-4.6308,-4.6289,-4.6191,-4.5879,-4.5625,-4.5351,-4.5039,-4.4766,-4.4746,-4.4707,-4.457,-4.4492,-4.4629,-4.4785,-4.4902,-4.3691,-4.3691,-4.3691,-4.3691,-4.3691,-4.3691,-4.3711,-4.3789,-4.4101,-4.4336,-4.4512,-4.5176,-4.5586,-4.5781,-4.6074,-4.6308,-4.6308,-4.6308,-4.6308,-4.6308,-4.6308,-4.6308,-4.6308,-4.6308,-4.6308,-4.6289,-4.623,-4.6133,-4.582,-4.5527,-4.5547,-4.5644,-4.543,-4.543,-4.5664,-4.5547,-4.5312,-4.5273,-4.5293,-4.5488,-4.5801,-4.6113,-4.6308,-4.6308,-4.6308,-4.6289,-4.625,-4.6289,-4.6308,-4.6308,-4.6308,-4.6308,-4.6308,-4.6308,-4.6308,-4.6308,-4.6308,-4.6308,-4.6308,-4.6308,-4.6308,-4.6308,-4.6308,-4.6308,-4.6308,-4.6308,-4.6308,-4.6308,-4.6308,-4.6308,-4.6308,-4.6308,-4.6308,-4.6308,-4.6308,-4.6308,-4.6308,-4.6308,-4.6308,-4.6308,-4.6308,-4.6308,-4.6308,-4.6308,-4.6308,-4.6308,-4.6308,-4.6308,-4.6308,-4.6308,-4.6308,-4.6308,-4.6308,-4.6308,-4.6308,-4.6308,-4.6308,-4.6308,-4.6308,-4.6308,-4.6308,-4.6308,-4.6191,-4.6133,-4.6016,-4.5723,-4.541,-4.5176,-4.5156,-4.5137,-4.5078,-4.5078,-4.5117,-4.5195,-4.5293,-4.3691,-4.3691,-4.3691,-4.3691,-4.3691,-4.3691,-4.3691,-4.3711,-4.3789,-4.4023,-4.4375,-4.4883,-4.5312,-4.5703,-4.6113,-4.6289,-4.6308,-4.6308,-4.6308,-4.6308,-4.6308,-4.6308,-4.6308,-4.6308,-4.6308,-4.6308,-4.6308,-4.6289,-4.6152,-4.6074,-4.6113,-4.6133,-4.6094,-4.6152,-4.6094,-4.6016,-4.6152,-4.6133,-4.6113,-4.6133,-4.6191,-4.6269,-4.6289,-4.6308,-4.6308,-4.6308,-4.6308,-4.6308,-4.6308,-4.6308,-4.6308,-4.6308,-4.6308,-4.6308,-4.6308,-4.6308,-4.6308,-4.6308,-4.6308,-4.6308,-4.6308,-4.6308,-4.6308,-4.6308,-4.6308,-4.6308,-4.6308,-4.6308,-4.6308,-4.6308,-4.6308,-4.6308,-4.6308,-4.6308,-4.6308,-4.6308,-4.6308,-4.6308,-4.6308,-4.6308,-4.6308,-4.6308,-4.6308,-4.6308,-4.6308,-4.6308,-4.6308,-4.6308,-4.6308,-4.6308,-4.6308,-4.6308,-4.6308,-4.6308,-4.6308,-4.6308,-4.6308,-4.6308,-4.6308,-4.6308,-4.6308,-4.6308,-4.6308,-4.623,-4.6152,-4.6133,-4.5918,-4.5742,-4.5644,-4.5566,-4.5488,-4.5508,-4.5566,-4.5625,-4.5683,-4.3691,-4.3691,-4.3691,-4.3691,-4.3691,-4.3691,-4.3691,-4.3691,-4.3711,-4.3808,-4.4062,-4.4473,-4.5039,-4.5644,-4.6113,-4.6289,-4.6308,-4.6308,-4.6308,-4.6308,-4.6308,-4.6308,-4.6308,-4.6308,-4.6308,-4.6308,-4.6308,-4.6308,-4.6308,-4.6308,-4.6308,-4.6308,-4.6308,-4.6269,-4.6308,-4.6308,-4.6289,-4.6269,-4.6289,-4.6289,-4.6308,-4.6308,-4.6308,-4.6308,-4.6308,-4.6308,-4.6308,-4.6308,-4.6308,-4.6308,-4.6308,-4.6308,-4.6308,-4.6308,-4.6308,-4.6308,-4.6308,-4.6308,-4.6308,-4.6308,-4.6308,-4.6308,-4.6308,-4.6308,-4.6308,-4.6308,-4.6308,-4.6308,-4.6308,-4.6308,-4.6308,-4.6308,-4.6308,-4.6308,-4.6308,-4.6308,-4.6308,-4.6308,-4.6308,-4.6308,-4.6308,-4.6308,-4.6308,-4.6308,-4.6308,-4.6308,-4.6308,-4.6308,-4.6308,-4.6308,-4.6308,-4.6308,-4.6308,-4.6308,-4.6308,-4.6308,-4.6308,-4.6308,-4.6308,-4.6308,-4.6308,-4.6308,-4.6308,-4.6308,-4.625,-4.625,-4.6289,-4.6191,-4.5976,-4.5918,-4.5898,-4.5898,-4.5918,-4.5996,-4.6055,-4.3613,-4.3691,-4.3691,-4.3691,-4.3691,-4.3691,-4.3691,-4.3691,-4.3691,-4.3711,-4.3867,-4.4336,-4.5,-4.5625,-4.6094,-4.6308,-4.6308,-4.6308,-4.6308,-4.6308,-4.6308,-4.6308,-4.6308,-4.6308,-4.6308,-4.6308,-4.6308,-4.6308,-4.6308,-4.6308,-4.6308,-4.6308,-4.6308,-4.6308,-4.6308,-4.6308,-4.6308,-4.6308,-4.6308,-4.6308,-4.6308,-4.6308,-4.6308,-4.6308,-4.6308,-4.6308,-4.6308,-4.6308,-4.6308,-4.6308,-4.6308,-4.6308,-4.6308,-4.6308,-4.6308,-4.6308,-4.6308,-4.6308,-4.6308,-4.6308,-4.6308,-4.6308,-4.6308,-4.6308,-4.6308,-4.6308,-4.6308,-4.6308,-4.6308,-4.6308,-4.6308,-4.6308,-4.6308,-4.6308,-4.6308,-4.6308,-4.6308,-4.6308,-4.6308,-4.6308,-4.6308,-4.6308,-4.6308,-4.6308,-4.6308,-4.6308,-4.6308,-4.6308,-4.6308,-4.6328,-4.6308,-4.6308,-4.6328,-4.6328,-4.6308,-4.6308,-4.6308,-4.6308,-4.6308,-4.6308,-4.6308,-4.6308,-4.6308,-4.6308,-4.6308,-4.6308,-4.6289,-4.6289,-4.6289,-4.6172,-4.6113,-4.6191,-4.625,-4.6308,-4.6308,-4.3359,-4.3691,-4.3691,-4.3691,-4.3691,-4.3691,-4.3691,-4.3691,-4.3691,-4.3691,-4.3808,-4.4551,-4.5176,-4.5664,-4.6055,-4.6308,-4.6308,-4.6308,-4.6308,-4.6308,-4.6308,-4.6308,-4.6308,-4.6308,-4.6308,-4.6308,-4.6308,-4.6308,-4.6308,-4.6308,-4.6308,-4.6308,-4.6308,-4.6308,-4.6308,-4.6308,-4.6308,-4.6308,-4.6308,-4.6308,-4.6308,-4.6308,-4.6308,-4.6308,-4.6308,-4.6308,-4.6308,-4.6308,-4.6308,-4.6308,-4.6308,-4.6308,-4.6308,-4.6308,-4.6308,-4.6308,-4.6308,-4.6308,-4.6308,-4.6308,-4.6308,-4.6308,-4.6308,-4.6308,-4.6308,-4.6308,-4.6308,-4.6308,-4.6308,-4.6308,-4.6308,-4.6308,-4.6308,-4.6308,-4.6308,-4.6308,-4.6308,-4.6308,-4.6308,-4.6308,-4.6308,-4.6308,-4.6308,-4.6308,-4.6308,-4.6308,-4.6308,-4.6308,-4.6348,-4.6367,-4.6348,-4.6328,-4.6348,-4.6348,-4.6308,-4.6308,-4.6308,-4.6308,-4.6308,-4.6308,-4.6308,-4.6308,-4.6308,-4.6308,-4.6308,-4.6308,-4.6308,-4.6308,-4.6308,-4.6308,-4.6308,-4.6308,-4.6308,-4.6308,-4.6308,-4.332,-4.3691,-4.3691,-4.3691,-4.3691,-4.3691,-4.3691,-4.3691,-4.3691,-4.3691,-4.375,-4.4609,-4.5117,-4.543,-4.6016,-4.6308,-4.6308,-4.6308,-4.6308,-4.6308,-4.6308,-4.6308,-4.6308,-4.6308,-4.6308,-4.6308,-4.6308,-4.6308,-4.6308,-4.6308,-4.6308,-4.6308,-4.6308,-4.6308,-4.6308,-4.6308,-4.6308,-4.6308,-4.6308,-4.6308,-4.6308,-4.6308,-4.6308,-4.6308,-4.6308,-4.6308,-4.6308,-4.6308,-4.6308,-4.6308,-4.6308,-4.6308,-4.6308,-4.6308,-4.6308,-4.6308,-4.6308,-4.6308,-4.6308,-4.6308,-4.6308,-4.6308,-4.6308,-4.6308,-4.6308,-4.6308,-4.6308,-4.6308,-4.6308,-4.6308,-4.6308,-4.6308,-4.6308,-4.6308,-4.6308,-4.6308,-4.6308,-4.6308,-4.6308,-4.6308,-4.6308,-4.6308,-4.6308,-4.6308,-4.6308,-4.6308,-4.6308,-4.6348,-4.6465,-4.6562,-4.6582,-4.6601,-4.6641,-4.6562,-4.6523,-4.6426,-4.6328,-4.6367,-4.6406,-4.6465,-4.6504,-4.6308,-4.6308,-4.6308,-4.6328,-4.6348,-4.6348,-4.6308,-4.6308,-4.6308,-4.6308,-4.6308,-4.6308,-4.6308,-4.6308,-4.3125,-4.3516,-4.3652,-4.3691,-4.3691,-4.3691,-4.3691,-4.3691,-4.3691,-4.3691,-4.3769,-4.4609,-4.5039,-4.5273,-4.5898,-4.6289,-4.6308,-4.6308,-4.6308,-4.6308,-4.6308,-4.6308,-4.6308,-4.6308,-4.6308,-4.6308,-4.6308,-4.6308,-4.6308,-4.6308,-4.6308,-4.6308,-4.6308,-4.6308,-4.6308,-4.6308,-4.6308,-4.6308,-4.6308,-4.6308,-4.6308,-4.6308,-4.6308,-4.6308,-4.6308,-4.6308,-4.6308,-4.6308,-4.6308,-4.6308,-4.6308,-4.6308,-4.6308,-4.6308,-4.6308,-4.6308,-4.6308,-4.6308,-4.6308,-4.6308,-4.6308,-4.6308,-4.6308,-4.6308,-4.6308,-4.6308,-4.6308,-4.6308,-4.6308,-4.6308,-4.6308,-4.6308,-4.6308,-4.6308,-4.6308,-4.6308,-4.6308,-4.6308,-4.6308,-4.6308,-4.6367,-4.6543,-4.666,-4.6699,-4.6719,-4.6758,-4.6855,-4.6894,-4.6953,-4.7012,-4.7012,-4.7031,-4.7031,-4.6914,-4.6777,-4.6836,-4.6914,-4.6933,-4.6953,-4.6855,-4.6816,-4.6641,-4.6523,-4.6582,-4.6562,-4.6445,-4.6367,-4.6348,-4.6328,-4.6308,-4.6348,-4.6406,-4.6308,-4.6308,-4.6308,-4.2715,-4.3125,-4.3535,-4.3691,-4.3691,-4.3691,-4.3691,-4.3691,-4.3691,-4.3691,-4.3808,-4.4629,-4.5039,-4.5234,-4.5918,-4.6269,-4.6308,-4.6308,-4.6308,-4.6308,-4.6308,-4.6308,-4.6308,-4.6308,-4.6308,-4.6308,-4.6308,-4.6308,-4.6308,-4.6308,-4.6308,-4.6308,-4.6308,-4.6308,-4.6308,-4.6308,-4.6308,-4.6308,-4.6308,-4.6308,-4.6308,-4.6308,-4.6308,-4.6308,-4.6308,-4.6308,-4.6308,-4.6308,-4.6308,-4.6308,-4.6308,-4.6308,-4.6308,-4.6308,-4.6308,-4.6308,-4.6308,-4.6308,-4.6308,-4.6308,-4.6308,-4.6308,-4.6308,-4.6308,-4.6308,-4.6308,-4.6308,-4.6308,-4.6308,-4.6308,-4.6308,-4.6328,-4.6367,-4.6426,-4.6445,-4.6562,-4.6582,-4.6601,-4.666,-4.6699,-4.6816,-4.6933,-4.707,-4.7187,-4.7207,-4.7285,-4.7402,-4.7441,-4.7402,-4.7461,-4.7461,-4.7383,-4.7363,-4.7324,-4.7266,-4.7402,-4.748,-4.75,-4.7422,-4.7266,-4.7266,-4.7226,-4.7109,-4.6973,-4.6894,-4.6875,-4.6621,-4.6367,-4.6543,-4.6719,-4.6543,-4.6504,-4.6387,-4.6426,-4.6582,-4.2422,-4.3086,-4.3242,-4.3457,-4.3672,-4.3691,-4.3691,-4.3691,-4.3691,-4.3691,-4.3887,-4.4629,-4.5019,-4.5293,-4.584,-4.6308,-4.6308,-4.6308,-4.6308,-4.6308,-4.6308,-4.6308,-4.6308,-4.6308,-4.6308,-4.6308,-4.6308,-4.6308,-4.6308,-4.6308,-4.6308,-4.6308,-4.6308,-4.6308,-4.6308,-4.6308,-4.6308,-4.6308,-4.6308,-4.6308,-4.6308,-4.6308,-4.6308,-4.6308,-4.6308,-4.6308,-4.6308,-4.6308,-4.6308,-4.6308,-4.6308,-4.6308,-4.6308,-4.6308,-4.6308,-4.6308,-4.6308,-4.6308,-4.6308,-4.6308,-4.6308,-4.6308,-4.6308,-4.6308,-4.6308,-4.6308,-4.6308,-4.6308,-4.6308,-4.6308,-4.6308,-4.6601,-4.6719,-4.6836,-4.6914,-4.7148,-4.7246,-4.7246,-4.7266,-4.7285,-4.7344,-4.7383,-4.748,-4.7715,-4.7773,-4.7734,-4.7812,-4.7715,-4.7637,-4.7812,-4.7891,-4.7734,-4.7676,-4.7695,-4.7734,-4.7832,-4.7812,-4.7773,-4.7656,-4.75,-4.7539,-4.7734,-4.7578,-4.7383,-4.7363,-4.7305,-4.709,-4.6953,-4.7109,-4.7168,-4.7109,-4.6914,-4.6777,-4.6933,-4.7226,-4.2207,-4.2851,-4.3008,-4.332,-4.3672,-4.3691,-4.3691,-4.3691,-4.3691,-4.3691,-4.3887,-4.4629,-4.5039,-4.5273,-4.5859,-4.6308,-4.6308,-4.6308,-4.6308,-4.6308,-4.6308,-4.6308,-4.6308,-4.6308,-4.6308,-4.6308,-4.6308,-4.6308,-4.6308,-4.6308,-4.6308,-4.6308,-4.6308,-4.6308,-4.6308,-4.6308,-4.6308,-4.6308,-4.6308,-4.6308,-4.6308,-4.6308,-4.6308,-4.6308,-4.6308,-4.6308,-4.6308,-4.6308,-4.6308,-4.6308,-4.6308,-4.6308,-4.6308,-4.6308,-4.6308,-4.6308,-4.6308,-4.6308,-4.6308,-4.6308,-4.6308,-4.6308,-4.6308,-4.6308,-4.6308,-4.6308,-4.6426,-4.6465,-4.6406,-4.6543,-4.6719,-4.7031,-4.7051,-4.7148,-4.7344,-4.7578,-4.7598,-4.7578,-4.7578,-4.7637,-4.7793,-4.7832,-4.7949,-4.8183,-4.8379,-4.8301,-4.8223,-4.8066,-4.7949,-4.8144,-4.8301,-4.8183,-4.8125,-4.8183,-4.8203,-4.8223,-4.8164,-4.8047,-4.7969,-4.791,-4.8066,-4.8262,-4.8027,-4.7832,-4.7812,-4.7754,-4.7637,-4.7598,-4.7637,-4.7754,-4.7851,-4.7598,-4.7246,-4.7383,-4.7676,-4.2012,-4.2441,-4.2871,-4.3281,-4.3633,-4.3672,-4.3691,-4.3691,-4.3691,-4.3691,-4.3769,-4.4648,-4.5019,-4.5195,-4.5918,-4.6289,-4.6308,-4.6308,-4.6308,-4.6308,-4.6308,-4.6308,-4.6308,-4.6308,-4.6308,-4.6308,-4.6308,-4.6308,-4.6308,-4.6308,-4.6308,-4.6308,-4.6308,-4.6308,-4.6308,-4.6308,-4.6308,-4.6308,-4.6308,-4.6308,-4.6308,-4.6308,-4.6308,-4.6308,-4.6308,-4.6308,-4.6308,-4.6308,-4.6308,-4.6308,-4.6308,-4.6308,-4.6308,-4.6308,-4.6308,-4.6308,-4.6308,-4.6308,-4.6308,-4.6308,-4.6308,-4.6308,-4.6308,-4.6308,-4.6367,-4.6465,-4.6621,-4.6758,-4.6797,-4.707,-4.7344,-4.7305,-4.7285,-4.7461,-4.7676,-4.7754,-4.7773,-4.7773,-4.7773,-4.7891,-4.8125,-4.8262,-4.8496,-4.873,-4.8672,-4.8633,-4.8555,-4.8555,-4.8476,-4.8516,-4.8652,-4.8652,-4.8652,-4.873,-4.8711,-4.8555,-4.8535,-4.8418,-4.8535,-4.8535,-4.8691,-4.8672,-4.8457,-4.8281,-4.8262,-4.8183,-4.8105,-4.8066,-4.8047,-4.8183,-4.832,-4.8105,-4.7715,-4.7754,-4.7949,-4.1601,-4.2012,-4.2441,-4.2871,-4.3262,-4.3574,-4.3691,-4.3691,-4.3691,-4.3691,-4.3769,-4.4629,-4.498,-4.5117,-4.5918,-4.6211,-4.6308,-4.6308,-4.6308,-4.6308,-4.6308,-4.6308,-4.6308,-4.6308,-4.6308,-4.6308,-4.6308,-4.6308,-4.6308,-4.6308,-4.6308,-4.6308,-4.6308,-4.6308,-4.6308,-4.6308,-4.6308,-4.6308,-4.6308,-4.6308,-4.6308,-4.6308,-4.6308,-4.6308,-4.6308,-4.6308,-4.6308,-4.6308,-4.6308,-4.6308,-4.6308,-4.6308,-4.6308,-4.6308,-4.6308,-4.6308,-4.6308,-4.6308,-4.6308,-4.6308,-4.6308,-4.6308,-4.6328,-4.6504,-4.6621,-4.6777,-4.6933,-4.7109,-4.7187,-4.7402,-4.7656,-4.7715,-4.7754,-4.793,-4.8125,-4.8242,-4.8262,-4.8262,-4.8262,-4.8301,-4.8516,-4.8574,-4.8828,-4.8848,-4.8769,-4.8828,-4.8848,-4.8848,-4.8848,-4.8848,-4.8848,-4.8848,-4.8848,-4.8848,-4.8848,-4.873,-4.8789,-4.8808,-4.8848,-4.8848,-4.8808,-4.8769,-4.875,-4.8691,-4.8574,-4.8574,-4.8594,-4.8535,-4.8418,-4.8555,-4.8672,-4.8437,-4.8262,-4.8262,-4.8301,-4.1426,-4.1836,-4.2246,-4.2773,-4.332,-4.3594,-4.3691,-4.3691,-4.3691,-4.3691,-4.3789,-4.4453,-4.4863,-4.5117,-4.5723,-4.6113,-4.6308,-4.6308,-4.6308,-4.6308,-4.6308,-4.6308,-4.6308,-4.6308,-4.6308,-4.6308,-4.6308,-4.6308,-4.6308,-4.6308,-4.6308,-4.6308,-4.6308,-4.6308,-4.6308,-4.6308,-4.6308,-4.6308,-4.6308,-4.6308,-4.6308,-4.6308,-4.6308,-4.6308,-4.6308,-4.6308,-4.6308,-4.6308,-4.6308,-4.6308,-4.6308,-4.6308,-4.6308,-4.6308,-4.6308,-4.6308,-4.6308,-4.6308,-4.6308,-4.6308,-4.6308,-4.6348,-4.6445,-4.6797,-4.6933,-4.7051,-4.7363,-4.7617,-4.7617,-4.7695,-4.7949,-4.8164,-4.8301,-4.8437,-4.8633,-4.8808,-4.8828,-4.8828,-4.8808,-4.8808,-4.8828,-4.8808,-4.8848,-4.8848,-4.8848,-4.8848,-4.8848,-4.8848,-4.8848,-4.8848,-4.8848,-4.8848,-4.8848,-4.8848,-4.8848,-4.8848,-4.8848,-4.8848,-4.8848,-4.8848,-4.8848,-4.8848,-4.8808,-4.8828,-4.8828,-4.8808,-4.875,-4.8789,-4.8769,-4.8848,-4.8848,-4.8691,-4.8574,-4.8613,-4.8672,-4.1406,-4.1777,-4.2246,-4.2871,-4.3594,-4.3672,-4.3691,-4.3691,-4.3691,-4.3691,-4.3789,-4.4199,-4.4629,-4.4961,-4.5508,-4.5918,-4.6133,-4.623,-4.6308,-4.6308,-4.6308,-4.6308,-4.6308,-4.6308,-4.6308,-4.6308,-4.6308,-4.6308,-4.6308,-4.6308,-4.6308,-4.6308,-4.6308,-4.6308,-4.6308,-4.6308,-4.6308,-4.6308,-4.6308,-4.6308,-4.6308,-4.6308,-4.6308,-4.6308,-4.6308,-4.6308,-4.6308,-4.6308,-4.6308,-4.6308,-4.6308,-4.6308,-4.6308,-4.6308,-4.6308,-4.6308,-4.6308,-4.6308,-4.6308,-4.6308,-4.6308,-4.6426,-4.668,-4.7051,-4.7207,-4.7383,-4.7715,-4.8066,-4.8125,-4.8203,-4.8418,-4.8437,-4.8516,-4.8633,-4.8769,-4.8848,-4.8848,-4.8848,-4.8848,-4.8848,-4.8848,-4.8848,-4.8848,-4.8848,-4.8848,-4.8848,-4.8848,-4.8848,-4.8848,-4.8848,-4.8848,-4.8848,-4.8848,-4.8848,-4.8848,-4.8848,-4.8848,-4.8848,-4.8848,-4.8848,-4.8848,-4.8848,-4.8848,-4.8848,-4.8848,-4.8848,-4.8828,-4.8848,-4.8848,-4.8848,-4.8848,-4.8848,-4.8848,-4.8848,-4.8848,-4.123,-4.1387,-4.2129,-4.2734,-4.3242,-4.3574,-4.3691,-4.3691,-4.3691,-4.3691,-4.3789,-4.416,-4.4453,-4.4668,-4.5332,-4.5742,-4.5859,-4.6191,-4.6289,-4.6308,-4.6308,-4.6308,-4.6308,-4.6308,-4.6308,-4.6308,-4.6308,-4.6308,-4.6308,-4.6308,-4.6308,-4.6308,-4.6308,-4.6308,-4.6308,-4.6308,-4.6308,-4.6308,-4.6308,-4.6308,-4.6308,-4.6308,-4.6308,-4.6308,-4.6308,-4.6308,-4.6308,-4.6308,-4.6308,-4.6308,-4.6308,-4.6308,-4.6308,-4.6308,-4.6308,-4.6308,-4.6308,-4.6308,-4.6308,-4.6308,-4.6308,-4.6426,-4.6699,-4.7129,-4.7461,-4.7734,-4.8047,-4.8418,-4.8652,-4.8711,-4.875,-4.8711,-4.8691,-4.8789,-4.8848,-4.8848,-4.8848,-4.8848,-4.8848,-4.8848,-4.8848,-4.8848,-4.8848,-4.8848,-4.8848,-4.8848,-4.8848,-4.8848,-4.8848,-4.8848,-4.8848,-4.8848,-4.8848,-4.8848,-4.8848,-4.8848,-4.8848,-4.8848,-4.8848,-4.8848,-4.8848,-4.8848,-4.8848,-4.8848,-4.8848,-4.8848,-4.8848,-4.8848,-4.8848,-4.8848,-4.8848,-4.8848,-4.8848,-4.8848,-4.8848,-4.1172,-4.1289,-4.207,-4.2676,-4.3105,-4.3535,-4.3691,-4.3691,-4.3691,-4.3691,-4.3711,-4.3965,-4.4199,-4.4433,-4.5117,-4.5547,-4.5703,-4.6113,-4.6269,-4.6308,-4.6308,-4.6308,-4.6308,-4.6308,-4.6308,-4.6308,-4.6308,-4.6308,-4.6308,-4.6308,-4.6308,-4.6308,-4.6308,-4.6308,-4.6308,-4.6308,-4.6308,-4.6308,-4.6308,-4.6308,-4.6308,-4.6308,-4.6308,-4.6308,-4.6308,-4.6308,-4.6308,-4.6308,-4.6308,-4.6308,-4.6308,-4.6308,-4.6308,-4.6308,-4.6308,-4.6308,-4.6308,-4.6308,-4.6308,-4.6308,-4.6308,-4.6426,-4.6699,-4.7109,-4.7539,-4.7832,-4.8242,-4.8594,-4.873,-4.8808,-4.8808,-4.8789,-4.8789,-4.8828,-4.8848,-4.8848,-4.8848,-4.8848,-4.8848,-4.8848,-4.8848,-4.8848,-4.8848,-4.8848,-4.8848,-4.8848,-4.8848,-4.8848,-4.8848,-4.8848,-4.8848,-4.8848,-4.8848,-4.8848,-4.8848,-4.8848,-4.8848,-4.8848,-4.8848,-4.8848,-4.8848,-4.8848,-4.8848,-4.8848,-4.8848,-4.8848,-4.8848,-4.8848,-4.8848,-4.8848,-4.8848,-4.8848,-4.8848,-4.8848,-4.8848,-4.1172,-4.1289,-4.2012,-4.2598,-4.3027,-4.3437,-4.3652,-4.3691,-4.3691,-4.3691,-4.3691,-4.3711,-4.3965,-4.4336,-4.4844,-4.5234,-4.5644,-4.6074,-4.625,-4.6308,-4.6308,-4.6308,-4.6308,-4.6308,-4.6308,-4.6308,-4.6308,-4.6308,-4.6308,-4.6308,-4.6308,-4.6308,-4.6308,-4.6308,-4.6308,-4.6308,-4.6308,-4.6308,-4.6308,-4.6308,-4.6308,-4.6308,-4.6308,-4.6308,-4.6308,-4.6308,-4.6308,-4.6308,-4.6308,-4.6308,-4.6308,-4.6308,-4.6308,-4.6308,-4.6308,-4.6308,-4.6308,-4.6308,-4.6308,-4.6308,-4.6308,-4.6406,-4.6738,-4.7109,-4.7539,-4.7949,-4.8379,-4.8672,-4.8808,-4.8848,-4.8848,-4.8848,-4.8848,-4.8848,-4.8848,-4.8848,-4.8848,-4.8848,-4.8848,-4.8848,-4.8848,-4.8848,-4.8848,-4.8848,-4.8848,-4.8848,-4.8848,-4.8848,-4.8848,-4.8848,-4.8848,-4.8848,-4.8848,-4.8848,-4.8848,-4.8848,-4.8848,-4.8848,-4.8848,-4.8848,-4.8848,-4.8848,-4.8848,-4.8848,-4.8848,-4.8848,-4.8848,-4.8848,-4.8848,-4.8848,-4.8848,-4.8848,-4.8848,-4.8848,-4.8848,-4.1172,-4.123,-4.1719,-4.2168,-4.2598,-4.3027,-4.3379,-4.3672,-4.3691,-4.3691,-4.3691,-4.3711,-4.3789,-4.3887,-4.4707,-4.5137,-4.5332,-4.5898,-4.623,-4.6308,-4.6308,-4.6308,-4.6308,-4.6308,-4.6308,-4.6308,-4.6308,-4.6308,-4.6308,-4.6308,-4.6308,-4.6308,-4.6308,-4.6308,-4.6308,-4.6308,-4.6308,-4.6308,-4.6308,-4.6308,-4.6308,-4.6308,-4.6308,-4.6308,-4.6308,-4.6308,-4.6308,-4.6308,-4.6308,-4.6308,-4.6308,-4.6308,-4.6308,-4.6308,-4.6308,-4.6308,-4.6308,-4.6308,-4.6308,-4.6308,-4.6308,-4.6328,-4.666,-4.707,-4.748,-4.7891,-4.832,-4.873,-4.8848,-4.8848,-4.8848,-4.8848,-4.8848,-4.8848,-4.8848,-4.8848,-4.8848,-4.8848,-4.8848,-4.8848,-4.8848,-4.8848,-4.8848,-4.8848,-4.8848,-4.8848,-4.8848,-4.8848,-4.8848,-4.8848,-4.8848,-4.8848,-4.8848,-4.8848,-4.8848,-4.8848,-4.8848,-4.8848,-4.8848,-4.8848,-4.8848,-4.8848,-4.8848,-4.8848,-4.8848,-4.8848,-4.8848,-4.8848,-4.8848,-4.8848,-4.8848,-4.8848,-4.8848,-4.8848,-4.8848]},{"header":{"parameterUnit":"m.s-1","parameterCategory":1,"la1":31.0,"la2":29.5877,"lo1":-88.7671,"lo2":-86.6584,"dy":0.0162,"dx":0.0185,"nx":115,"ny":88,"refTime":"2026-03-29T12:00:00:Z","depth":0,"parameterNumber":3,"parameterNumberName":"V-component_of_WINDS"},"data":[0.0,0.0,0.0,0.0,0.0,0.0,0.0,0.0,0.0,0.0,0.0,0.0,0.0,0.0,0.0,0.0,0.0,0.0,0.0,0.0,0.0,0.0,0.0,0.0,0.0,0.0,0.0,0.0,0.0,0.0,0.0,0.0,0.0,0.0,0.0,0.0,0.0,0.0,0.0,0.0,0.0,0.0,0.0,0.0,0.0,0.0,0.0,0.0,0.0,0.0,0.0,0.0,0.0,0.0,0.0,0.0,0.0,0.0,0.0,0.0,0.0,0.0,0.0,0.0,0.0,0.0,0.0,0.0,0.0,0.0,0.0,0.0,0.0,0.0,0.0,0.0,0.0,0.0,0.0,0.0,0.0,0.0,0.0,0.0,0.0,0.0,0.0,0.0,0.0,0.0,0.0,0.0,0.0,0.0,0.0,0.0,0.0,0.0,0.0,0.0,0.0,0.0,0.0,0.0,0.0,0.0,0.0,0.0,0.0,0.0,0.0,0.0,0.0,0.0,0.0,0.0,0.0,0.0,0.0,0.0,0.0,0.0,0.0,0.0,0.0,0.0,0.0,0.0,0.0,0.0,0.0,0.0,0.0,0.0,0.0,0.0,0.0,0.0,0.0,0.0,0.0,0.0,0.0,0.0,0.0,0.0,0.0,0.0,0.0,0.0,0.0,0.0,0.0,0.0,0.0,0.0,0.0,0.0,0.0,0.0,0.0,0.0,0.0,0.0,0.0,0.0,0.0,0.0,0.0,0.0,0.0,0.0,0.0,0.0,0.0,0.0,0.0,0.0,0.0,0.0,0.0,0.0,0.0,0.0,0.0,0.0,0.0,0.0,0.0,0.0,0.0,0.0,0.0,0.0,0.0,0.0,0.0,0.0,0.0,0.0,0.0,0.0,0.0,0.0,0.0,0.0,0.0,0.0,0.0,0.0,0.0,0.0,0.0,0.0,0.0,0.0,0.0,0.0,0.0,0.0,0.0,0.0,0.0,0.0,0.0,0.0,0.0,0.0,0.0,0.0,0.0,0.0,0.0,0.0,0.0,0.0,0.0,0.0,0.0,0.0,0.0,0.0,0.0,0.0,0.0,0.0,0.0,0.0,0.0,0.0,0.0,0.0,0.0,0.0,0.0,0.0,0.0,0.0,0.0,0.0,0.0,0.0,0.0,0.0,0.0,0.0,0.0,0.0,0.0,0.0,0.0,0.0,0.0,0.0,0.0,0.0,0.0,0.0,0.0,0.0,0.0,0.0,0.0,0.0,0.0,0.0,0.0,0.0,0.0,0.0,0.0,0.0,0.0,0.0,0.0,0.0,0.0,0.0,0.0,0.0,0.0,0.0,0.0,0.0,0.0,0.0,0.0,0.0,0.0,0.0,0.0,0.0,0.0,0.0,0.0,0.0,0.0,0.0,0.0,0.0,0.0,0.0,0.0,0.0,0.0,0.0,0.0,0.0,0.0,0.0,0.0,0.0,0.0,0.0,0.0,0.0,0.0,0.0,0.0,0.0,0.0,0.0,0.0,0.0,0.0,0.0,0.0,0.0,0.0,0.0,0.0,0.0,0.0,0.0,0.0,0.0,0.0,0.0,0.0,0.0,0.0,0.0,0.0,0.0,0.0,0.0,0.0,0.0,0.0,0.0,0.0,0.0,0.0,0.0,0.0,0.0,0.0,0.0,0.0,0.0,0.0,0.0,0.0,0.0,0.0,0.0,0.0,0.0,0.0,0.0,0.0,0.0,0.0,0.0,0.0,0.0,0.0,0.0,0.0,0.0,0.0,0.0,0.0,0.0,0.0,0.0,0.0,0.0,0.0,0.0,0.0,0.0,0.0,0.0,0.0,0.0,0.0,0.0,0.0,0.0,0.0,0.0,0.0,0.0,0.0,0.0,0.0,0.0,0.0,0.0,0.0,0.0,0.0,0.0,0.0,0.0,0.0,0.0,0.0,0.0,0.0,0.0,0.0,0.0,0.0,0.0,0.0,0.0,0.0,0.0,0.0,0.0,0.0,0.0,0.0,0.0,0.0,0.0,0.0,0.0,0.0,0.0,0.0,0.0,0.0,0.0,0.0,0.0,0.0,0.0,0.0,0.0,0.0,0.0,0.0,0.0,0.0,0.0,0.0,0.0,0.0,0.0,0.0,0.0,0.0,0.0,0.0,0.0,0.0,0.0,0.0,0.0,0.0,0.0,0.0,0.0,0.0,0.0,0.0,0.0,0.0,0.0,0.0,0.0,0.0,0.0,0.0,0.0,0.0,0.0,0.0,0.0,0.0,0.0,0.0,0.0,0.0,0.0,0.0,0.0,0.0,0.0,0.0,0.0,0.0,0.0,0.0,0.0,0.0,0.0,0.0,0.0,0.0,0.0,0.0,0.0,0.0,0.0,0.0,0.0,0.0,0.0,0.0,0.0,0.0,0.0,0.0,0.0,0.0,0.0,0.0,0.0,0.0,0.0,0.0,0.0,0.0,0.0,0.0,0.0,0.0,0.0,0.0,0.0,0.0,0.0,0.0,0.0,0.0,0.0,0.0,0.0,0.0,0.0,0.0,0.0,0.0,0.0,0.0,0.0,0.0,0.0,0.0,0.0,0.0,0.0,0.0,0.0,0.0,0.0,0.0,0.0,0.0,0.0,0.0,0.0,0.0,0.0,0.0,0.0,0.0,0.0,0.0,0.0,0.0,0.0,0.0,0.0,0.0,0.0,0.0,0.0,0.0,0.0,0.0,0.0,0.0,0.0,0.0,0.0,0.0,0.0,0.0,0.0,0.0,0.0,0.0,0.0,0.0,0.0,0.0,0.0,0.0,0.0,0.0,0.0,0.0,0.0,0.0,0.0,0.0,0.0,0.0,0.0,0.0,0.0,0.0,0.0,0.0,0.0,0.0,0.0,0.0,0.0,0.0,0.0,0.0,0.0,0.0,0.0,0.0,0.0,0.0,0.0,0.0,0.0,0.0,0.0,0.0,0.0,0.0,0.0,0.0,0.0,0.0,0.0,0.0,0.0,0.0,0.0,0.0,0.0,0.0,0.0,0.0,0.0,0.0,0.0,0.0,0.0,0.0,0.0,0.0,0.0,0.0,0.0,0.0,0.0,0.0,0.0,0.0,0.0,0.0,0.0,0.0,0.0,0.0,0.0,0.0,0.0,0.0,0.0,0.0,0.0,0.0,0.0,0.0,0.0,0.0,0.0,0.0,0.0,0.0,0.0,0.0,0.0,0.0,0.0,0.0,0.0,0.0,0.0,0.0,0.0,0.0,0.0,0.0,0.0,0.0,0.0,0.0,0.0,0.0,0.0,0.0,0.0,0.0,0.0,0.0,0.0,0.0,0.0,0.0,0.0,0.0,0.0,0.0,0.0,0.0,0.0,0.0,0.0,0.0,0.0,0.0,0.0,0.0,0.0,0.0,0.0,0.0,0.0,0.0,0.0,0.0,0.0,0.0,0.0,0.0,0.0,0.0,0.0,0.0,0.0,0.0,0.0,0.0,0.0,0.0,0.0,0.0,0.0,0.0,0.0,0.0,0.0,0.0,0.0,0.0,0.0,0.0,0.0,0.0,0.0,0.0,0.0,0.0,0.0,0.0,0.0,0.0,0.0,0.0,0.0,0.0,0.0,0.0,0.0,0.0,0.0,0.0,0.0,0.0,0.0,0.0,0.0,0.0,0.0,0.0,0.0,0.0,0.0,0.0,0.0,0.0,0.0,0.0,0.0,0.0,0.0,0.0,0.0,0.0,0.0,0.0,0.0,0.0,0.0,0.0,0.0,0.0,0.0,0.0,0.0,0.0,0.0,0.0,0.0,0.0,0.0,0.0,0.0,0.0,0.0,0.0,0.0,0.0,0.0,0.0,0.0,0.0,0.0,0.0,0.0,0.0,0.0,0.0,0.0,0.0,0.0,0.0,0.0,0.0,0.0,0.0,0.0,0.0,0.0,0.0,0.0,0.0,0.0,0.0,0.0,0.0,0.0,0.0,0.0,0.0,0.0,0.0,0.0,0.0,0.0,0.0,0.0,0.0,0.0,0.0,0.0,0.0,0.0,0.0,0.0,0.0,0.0,0.0,0.0,0.0,0.0,0.0,0.0,0.0,0.0,0.0,0.0,0.0,0.0,0.0,0.0,0.0,0.0,0.0,0.0,0.0,0.0,0.0,0.0,0.0,0.0,0.0,0.0,0.0,0.0,0.0,0.0,0.0,0.0,0.0,0.0,0.0,0.0,0.0,0.0,0.0,0.0,0.0,0.0,0.0,0.0,0.0,0.0,0.0,0.0,0.0,0.0,2.3685,0.0,0.0,0.0,0.0,0.0,0.0,0.0,0.0,0.0,0.0,0.0,0.0,0.0,0.0,0.0,0.0,0.0,0.0,0.0,0.0,0.0,0.0,0.0,0.0,0.0,0.0,0.0,0.0,0.0,0.0,0.0,0.0,0.0,0.0,0.0,0.0,0.0,0.0,0.0,0.0,0.0,0.0,0.0,0.0,0.0,0.0,0.0,0.0,0.0,0.0,0.0,0.0,0.0,0.0,0.0,0.0,0.0,0.0,0.0,0.0,0.0,0.0,0.0,0.0,0.0,0.0,0.0,0.0,0.0,0.0,0.0,0.0,0.0,0.0,0.0,0.0,0.0,0.0,0.0,0.0,0.0,0.0,0.0,0.0,0.0,0.0,0.0,0.0,0.0,0.0,0.0,0.0,0.0,0.0,0.0,0.0,0.0,0.0,0.0,0.0,0.0,0.0,0.0,0.0,0.0,0.0,0.0,0.0,0.0,0.0,2.4199,2.419,2.4016,2.3847,2.371,0.0,0.0,0.0,0.0,0.0,0.0,0.0,0.0,0.0,0.0,0.0,0.0,0.0,0.0,0.0,0.0,0.0,0.0,0.0,0.0,0.0,0.0,0.0,0.0,0.0,0.0,0.0,0.0,0.0,0.0,0.0,0.0,0.0,0.0,0.0,0.0,0.0,0.0,0.0,0.0,0.0,0.0,0.0,0.0,0.0,0.0,0.0,0.0,0.0,0.0,0.0,0.0,0.0,0.0,0.0,0.0,0.0,0.0,0.0,0.0,0.0,0.0,0.0,0.0,0.0,0.0,0.0,0.0,0.0,0.0,0.0,0.0,0.0,0.0,0.0,0.0,0.0,0.0,0.0,0.0,0.0,0.0,0.0,0.0,0.0,0.0,0.0,0.0,0.0,0.0,0.0,0.0,0.0,0.0,0.0,0.0,0.0,0.0,0.0,0.0,0.0,0.0,0.0,0.0,0.0,0.0,0.0,0.0,0.0,0.0,0.0,0.0,2.4512,2.4328,2.4227,0.0,0.0,0.0,0.0,0.0,0.0,0.0,0.0,0.0,0.0,0.0,0.0,0.0,0.0,0.0,0.0,0.0,0.0,0.0,0.0,0.0,0.0,0.0,0.0,0.0,0.0,0.0,0.0,0.0,0.0,0.0,0.0,0.0,0.0,0.0,0.0,0.0,0.0,0.0,0.0,0.0,0.0,0.0,0.0,0.0,0.0,0.0,0.0,0.0,0.0,0.0,0.0,0.0,0.0,0.0,0.0,0.0,0.0,0.0,0.0,0.0,0.0,0.0,0.0,0.0,0.0,0.0,0.0,0.0,0.0,0.0,0.0,0.0,0.0,0.0,0.0,0.0,0.0,0.0,0.0,0.0,0.0,0.0,0.0,0.0,0.0,0.0,0.0,0.0,0.0,0.0,0.0,0.0,0.0,0.0,0.0,0.0,0.0,0.0,0.0,0.0,0.0,0.0,0.0,0.0,0.0,0.0,0.0,0.0,0.0,2.4887,2.6308,2.6324,0.0,2.5898,0.0,0.0,0.0,0.0,0.0,0.0,0.0,0.0,0.0,0.0,0.0,0.0,0.0,0.0,0.0,0.0,0.0,0.0,0.0,0.0,0.0,0.0,0.0,0.0,0.0,0.0,0.0,0.0,0.0,0.0,0.0,0.0,0.0,0.0,0.0,0.0,0.0,0.0,0.0,0.0,0.0,0.0,0.0,0.0,0.0,0.0,0.0,0.0,0.0,0.0,0.0,0.0,0.0,0.0,0.0,0.0,0.0,0.0,0.0,0.0,0.0,0.0,0.0,0.0,0.0,0.0,0.0,0.0,0.0,0.0,0.0,0.0,0.0,0.0,0.0,0.0,0.0,0.0,0.0,0.0,0.0,0.0,0.0,0.0,0.0,0.0,0.0,0.0,0.0,0.0,0.0,0.0,0.0,0.0,0.0,0.0,0.0,0.0,0.0,0.0,0.0,0.0,0.0,0.0,0.0,0.0,0.0,0.0,0.0,0.0,0.0,2.6565,2.6602,2.6559,0.0,0.0,0.0,0.0,0.0,0.0,0.0,0.0,0.0,0.0,0.0,0.0,0.0,0.0,0.0,0.0,0.0,0.0,0.0,0.0,0.0,0.0,0.0,0.0,0.0,0.0,0.0,0.0,0.0,0.0,0.0,0.0,0.0,0.0,0.0,0.0,0.0,0.0,0.0,0.0,0.0,0.0,0.0,0.0,0.0,0.0,0.0,0.0,0.0,0.0,0.0,0.0,0.0,0.0,0.0,0.0,0.0,0.0,0.0,0.0,0.0,0.0,0.0,0.0,0.0,0.0,0.0,0.0,0.0,0.0,0.0,0.0,0.0,0.0,0.0,0.0,0.0,0.0,0.0,0.0,0.0,0.0,0.0,0.0,0.0,0.0,0.0,0.0,0.0,0.0,0.0,0.0,0.0,0.0,0.0,0.0,0.0,0.0,0.0,0.0,0.0,0.0,0.0,0.0,0.0,0.0,0.0,0.0,0.0,0.0,2.6245,0.0,2.7236,2.7262,2.7053,2.6602,0.0,0.0,0.0,0.0,0.0,0.0,0.0,0.0,0.0,0.0,0.0,0.0,0.0,0.0,0.0,0.0,0.0,0.0,0.0,0.0,0.0,0.0,0.0,0.0,0.0,0.0,0.0,0.0,0.0,0.0,0.0,0.0,0.0,0.0,0.0,0.0,0.0,0.0,0.0,0.0,0.0,0.0,0.0,0.0,0.0,0.0,0.0,0.0,0.0,0.0,0.0,0.0,0.0,0.0,0.0,0.0,0.0,0.0,0.0,0.0,0.0,0.0,0.0,0.0,0.0,0.0,0.0,0.0,0.0,0.0,0.0,0.0,0.0,0.0,0.0,0.0,0.0,0.0,0.0,0.0,0.0,0.0,0.0,0.0,0.0,0.0,0.0,0.0,0.0,0.0,0.0,0.0,0.0,0.0,0.0,0.0,0.0,0.0,0.0,0.0,0.0,0.0,0.0,0.0,0.0,0.0,0.0,0.0,0.0,2.7299,2.7336,2.884,2.8877,2.818,0.0,0.0,0.0,0.0,0.0,0.0,0.0,0.0,0.0,0.0,0.0,0.0,0.0,0.0,0.0,0.0,0.0,0.0,0.0,0.0,0.0,0.0,0.0,0.0,0.0,0.0,0.0,0.0,0.0,0.0,0.0,0.0,0.0,0.0,0.0,0.0,0.0,0.0,0.0,0.0,0.0,0.0,0.0,0.0,0.0,0.0,0.0,0.0,0.0,0.0,0.0,0.0,0.0,0.0,0.0,0.0,0.0,0.0,0.0,0.0,0.0,0.0,0.0,0.0,0.0,0.0,0.0,0.0,0.0,0.0,0.0,0.0,0.0,0.0,0.0,0.0,0.0,0.0,0.0,0.0,0.0,0.0,0.0,0.0,0.0,0.0,0.0,0.0,0.0,0.0,0.0,0.0,0.0,0.0,0.0,0.0,0.0,0.0,0.0,0.0,0.0,0.0,0.0,0.0,0.0,0.0,0.0,0.0,0.0,2.5888,2.6355,2.786,3.032,2.8558,2.7666,0.0,0.0,0.0,0.0,0.0,0.0,0.0,0.0,0.0,0.0,0.0,0.0,0.0,0.0,0.0,0.0,0.0,0.0,0.0,0.0,0.0,0.0,0.0,0.0,0.0,0.0,0.0,0.0,0.0,0.0,0.0,0.0,0.0,0.0,0.0,0.0,0.0,0.0,0.0,0.0,0.0,0.0,0.0,0.0,0.0,0.0,0.0,0.0,0.0,0.0,0.0,0.0,0.0,0.0,0.0,0.0,0.0,0.0,0.0,0.0,0.0,0.0,0.0,0.0,0.0,0.0,0.0,0.0,0.0,0.0,0.0,0.0,0.0,0.0,0.0,0.0,0.0,0.0,0.0,0.0,0.0,0.0,0.0,0.0,0.0,0.0,0.0,0.0,0.0,0.0,0.0,0.0,0.0,0.0,0.0,0.0,0.0,0.0,0.0,0.0,0.0,0.0,0.0,0.0,0.0,0.0,0.0,0.0,0.0,2.5778,0.0,2.8962,0.0,2.851,2.7409,0.0,0.0,0.0,0.0,0.0,0.0,0.0,0.0,0.0,0.0,0.0,0.0,0.0,0.0,0.0,0.0,0.0,0.0,0.0,0.0,0.0,0.0,0.0,0.0,0.0,0.0,0.0,0.0,0.0,0.0,0.0,0.0,0.0,0.0,0.0,0.0,0.0,0.0,0.0,0.0,0.0,0.0,0.0,0.0,0.0,0.0,0.0,0.0,0.0,0.0,0.0,0.0,0.0,0.0,0.0,0.0,0.0,0.0,0.0,0.0,0.0,0.0,0.0,0.0,0.0,0.0,0.0,0.0,0.0,0.0,0.0,0.0,0.0,0.0,0.0,0.0,0.0,0.0,0.0,0.0,0.0,0.0,0.0,0.0,0.0,0.0,0.0,0.0,0.0,0.0,0.0,0.0,0.0,0.0,0.0,0.0,0.0,0.0,0.0,0.0,0.0,0.0,0.0,0.0,0.0,0.0,0.0,0.0,2.5805,2.8803,3.0393,3.0577,2.917,2.8987,2.7482,0.0,0.0,0.0,0.0,0.0,0.0,0.0,0.0,0.0,0.0,0.0,0.0,0.0,0.0,0.0,0.0,0.0,0.0,0.0,0.0,0.0,0.0,0.0,0.0,0.0,0.0,0.0,0.0,0.0,0.0,0.0,0.0,0.0,0.0,0.0,0.0,0.0,0.0,0.0,0.0,0.0,0.0,0.0,0.0,0.0,0.0,0.0,0.0,0.0,0.0,0.0,0.0,0.0,0.0,0.0,0.0,0.0,0.0,0.0,0.0,0.0,0.0,0.0,0.0,0.0,0.0,0.0,0.0,0.0,0.0,0.0,0.0,0.0,0.0,0.0,0.0,0.0,0.0,0.0,0.0,0.0,0.0,0.0,0.0,0.0,0.0,0.0,0.0,0.0,0.0,0.0,0.0,0.0,0.0,0.0,0.0,0.0,0.0,0.0,0.0,0.0,0.0,0.0,0.0,0.0,0.0,0.0,0.0,0.0,2.7409,2.9475,3.1127,3.2155,2.906,2.7934,0.0,0.0,0.0,0.0,0.0,0.0,0.0,0.0,0.0,0.0,0.0,0.0,0.0,0.0,0.0,0.0,0.0,0.0,0.0,0.0,0.0,0.0,0.0,0.0,0.0,0.0,0.0,0.0,0.0,0.0,0.0,0.0,0.0,0.0,0.0,0.0,0.0,0.0,0.0,0.0,0.0,0.0,0.0,0.0,0.0,0.0,0.0,0.0,0.0,0.0,0.0,0.0,0.0,0.0,0.0,0.0,0.0,0.0,0.0,0.0,0.0,0.0,0.0,0.0,0.0,0.0,0.0,0.0,0.0,0.0,0.0,0.0,0.0,0.0,0.0,0.0,0.0,0.0,0.0,0.0,0.0,0.0,0.0,0.0,0.0,0.0,0.0,0.0,0.0,0.0,0.0,0.0,0.0,0.0,0.0,0.0,0.0,0.0,0.0,0.0,0.0,0.0,0.0,0.0,0.0,0.0,0.0,0.0,0.0,3.0834,3.2706,3.41,3.4724,3.1494,2.9806,2.9965,0.0,0.0,0.0,0.0,0.0,0.0,0.0,0.0,0.0,0.0,0.0,0.0,0.0,0.0,0.0,0.0,0.0,0.0,0.0,0.0,0.0,0.0,0.0,0.0,0.0,0.0,0.0,0.0,0.0,0.0,0.0,0.0,0.0,0.0,0.0,0.0,0.0,0.0,0.0,0.0,0.0,0.0,0.0,0.0,0.0,0.0,0.0,0.0,0.0,0.0,0.0,0.0,0.0,0.0,0.0,0.0,0.0,0.0,0.0,0.0,0.0,0.0,0.0,0.0,0.0,0.0,0.0,0.0,0.0,0.0,0.0,0.0,0.0,0.0,0.0,0.0,0.0,0.0,0.0,0.0,0.0,0.0,0.0,0.0,0.0,0.0,0.0,0.0,0.0,0.0,0.0,0.0,0.0,0.0,0.0,0.0,0.0,0.0,0.0,0.0,0.0,0.0,0.0,0.0,0.0,0.0,0.0,0.0,3.8006,3.968,3.9423,3.7,3.5665,3.2949,0.0,0.0,0.0,0.0,0.0,0.0,0.0,0.0,0.0,0.0,0.0,0.0,0.0,0.0,0.0,0.0,0.0,0.0,0.0,0.0,0.0,0.0,0.0,0.0,0.0,0.0,0.0,0.0,0.0,0.0,0.0,0.0,0.0,0.0,0.0,0.0,0.0,0.0,0.0,0.0,0.0,0.0,0.0,0.0,0.0,0.0,0.0,0.0,0.0,0.0,0.0,0.0,0.0,0.0,0.0,0.0,0.0,0.0,0.0,0.0,0.0,0.0,0.0,0.0,0.0,0.0,0.0,0.0,0.0,0.0,0.0,0.0,0.0,0.0,0.0,0.0,0.0,0.0,0.0,0.0,0.0,0.0,0.0,0.0,0.0,0.0,0.0,0.0,0.0,0.0,0.0,0.0,0.0,0.0,0.0,0.0,0.0,0.0,0.0,0.0,0.0,0.0,0.0,0.0,0.0,0.0,0.0,0.0,0.0,4.4471,4.7352,4.7095,4.3424,3.8579,3.5642,0.0,0.0,0.0,0.0,0.0,0.0,0.0,0.0,0.0,0.0,0.0,0.0,0.0,0.0,0.0,0.0,0.0,0.0,0.0,0.0,0.0,0.0,0.0,0.0,0.0,0.0,0.0,0.0,0.0,0.0,0.0,0.0,0.0,0.0,0.0,0.0,0.0,0.0,0.0,0.0,0.0,0.0,0.0,0.0,0.0,0.0,0.0,0.0,0.0,0.0,0.0,0.0,0.0,0.0,0.0,0.0,0.0,0.0,0.0,0.0,0.0,0.0,0.0,0.0,0.0,0.0,0.0,0.0,0.0,0.0,0.0,0.0,0.0,0.0,0.0,0.0,0.0,0.0,0.0,0.0,0.0,0.0,0.0,0.0,0.0,0.0,0.0,0.0,0.0,0.0,0.0,0.0,0.0,0.0,0.0,0.0,0.0,0.0,0.0,0.0,0.0,0.0,0.0,0.0,0.0,0.0,0.0,0.0,4.2947,4.7516,5.1463,5.238,5.0031,4.3718,3.9423,0.0,0.0,0.0,0.0,0.0,0.0,0.0,0.0,0.0,0.0,0.0,0.0,0.0,0.0,0.0,0.0,0.0,0.0,0.0,0.0,0.0,0.0,0.0,0.0,0.0,0.0,0.0,0.0,0.0,0.0,0.0,0.0,0.0,0.0,0.0,0.0,0.0,0.0,0.0,0.0,0.0,0.0,0.0,0.0,0.0,0.0,0.0,0.0,0.0,0.0,0.0,0.0,0.0,0.0,0.0,0.0,0.0,0.0,0.0,0.0,0.0,0.0,0.0,0.0,0.0,0.0,0.0,0.0,0.0,0.0,0.0,0.0,0.0,0.0,0.0,0.0,0.0,0.0,0.0,0.0,0.0,0.0,0.0,0.0,0.0,0.0,0.0,0.0,0.0,0.0,0.0,0.0,0.0,0.0,0.0,0.0,0.0,0.0,0.0,0.0,0.0,0.0,0.0,0.0,0.0,0.0,0.0,0.0,4.5516,4.893,5.3445,5.5794,5.5559,4.9407,4.3534,0.0,0.0,0.0,0.0,0.0,0.0,0.0,0.0,0.0,0.0,0.0,0.0,0.0,0.0,0.0,0.0,0.0,0.0,0.0,0.0,0.0,0.0,0.0,0.0,0.0,0.0,0.0,0.0,0.0,0.0,0.0,0.0,0.0,0.0,0.0,0.0,0.0,0.0,0.0,0.0,0.0,0.0,0.0,0.0,0.0,0.0,0.0,0.0,0.0,0.0,0.0,0.0,0.0,0.0,0.0,0.0,0.0,0.0,0.0,0.0,0.0,0.0,0.0,0.0,0.0,0.0,0.0,0.0,0.0,0.0,0.0,0.0,0.0,0.0,0.0,0.0,0.0,0.0,0.0,0.0,0.0,0.0,0.0,0.0,0.0,0.0,0.0,0.0,0.0,0.0,0.0,0.0,0.0,0.0,0.0,0.0,0.0,0.0,0.0,0.0,0.0,0.0,0.0,0.0,0.0,0.0,0.0,0.0,4.8507,5.3004,5.5978,5.7189,5.6528,5.0251,4.5388,0.0,0.0,0.0,0.0,0.0,0.0,0.0,0.0,0.0,0.0,0.0,0.0,0.0,0.0,0.0,0.0,0.0,0.0,0.0,0.0,0.0,0.0,0.0,0.0,0.0,0.0,0.0,0.0,0.0,0.0,0.0,0.0,0.0,0.0,0.0,0.0,0.0,0.0,0.0,0.0,0.0,0.0,0.0,0.0,0.0,0.0,0.0,0.0,3.2375,0.0,0.0,0.0,0.0,0.0,0.0,0.0,0.0,0.0,0.0,0.0,0.0,0.0,0.0,0.0,0.0,0.0,0.0,0.0,0.0,0.0,0.0,0.0,0.0,0.0,0.0,0.0,0.0,0.0,0.0,0.0,0.0,0.0,0.0,0.0,0.0,0.0,0.0,0.0,0.0,0.0,0.0,0.0,0.0,0.0,0.0,0.0,0.0,0.0,0.0,0.0,0.0,0.0,0.0,0.0,0.0,0.0,0.0,0.0,5.1022,5.539,5.7886,5.8914,5.8327,5.2947,4.8103,0.0,0.0,0.0,0.0,0.0,0.0,0.0,0.0,0.0,0.0,0.0,0.0,0.0,0.0,0.0,0.0,0.0,0.0,0.0,0.0,0.0,0.0,0.0,0.0,0.0,0.0,0.0,0.0,0.0,0.0,0.0,0.0,0.0,0.0,0.0,0.0,0.0,0.0,0.0,0.0,0.0,0.0,0.0,0.0,0.0,0.0,0.0,0.0,0.0,0.0,0.0,0.0,0.0,0.0,0.0,0.0,0.0,0.0,0.0,0.0,0.0,0.0,0.0,0.0,0.0,0.0,0.0,0.0,0.0,0.0,0.0,0.0,0.0,0.0,0.0,0.0,0.0,0.0,0.0,0.0,0.0,0.0,0.0,0.0,0.0,0.0,0.0,0.0,0.0,0.0,0.0,0.0,0.0,0.0,0.0,0.0,0.0,0.0,0.0,0.0,0.0,0.0,0.0,0.0,0.0,0.0,0.0,4.7974,5.3041,5.7533,5.9722,6.0676,6.0346,5.5978,5.0839,4.5112,0.0,0.0,0.0,0.0,0.0,0.0,0.0,0.0,0.0,0.0,0.0,0.0,0.0,0.0,0.0,0.0,0.0,0.0,0.0,0.0,0.0,0.0,0.0,0.0,0.0,0.0,0.0,0.0,0.0,0.0,0.0,0.0,0.0,0.0,0.0,0.0,0.0,0.0,3.0381,3.3426,0.0,0.0,0.0,0.0,0.0,0.0,0.0,0.0,3.438,0.0,0.0,0.0,0.0,0.0,0.0,0.0,0.0,0.0,0.0,0.0,0.0,0.0,0.0,0.0,0.0,0.0,0.0,0.0,0.0,0.0,0.0,0.0,0.0,0.0,0.0,0.0,0.0,0.0,0.0,0.0,0.0,0.0,0.0,0.0,0.0,0.0,0.0,0.0,0.0,0.0,0.0,0.0,0.0,0.0,0.0,0.0,0.0,0.0,0.0,0.0,0.0,0.0,0.0,0.0,0.0,4.8468,5.0053,5.4363,6.163,6.2193,6.1777,6.0382,5.7042,5.2197,4.5957,0.0,0.0,0.0,0.0,0.0,0.0,0.0,0.0,0.0,0.0,0.0,0.0,0.0,0.0,0.0,0.0,0.0,0.0,0.0,0.0,0.0,0.0,0.0,0.0,0.0,0.0,0.0,0.0,0.0,0.0,0.0,0.0,0.0,0.0,0.0,0.0,0.0,0.0,0.0,3.7683,3.8726,0.0,0.0,0.0,0.0,0.0,0.0,0.0,0.0,3.6707,0.0,0.0,0.0,0.0,0.0,0.0,0.0,0.0,0.0,0.0,0.0,0.0,0.0,0.0,0.0,0.0,0.0,0.0,0.0,0.0,0.0,0.0,0.0,0.0,0.0,0.0,0.0,0.0,0.0,0.0,0.0,0.0,0.0,0.0,0.0,0.0,0.0,0.0,0.0,0.0,0.0,0.0,0.0,0.0,0.0,0.0,0.0,0.0,0.0,0.0,0.0,0.0,0.0,0.0,0.0,4.8581,5.3026,5.8081,6.3844,6.4127,6.3319,6.163,5.6932,5.1683,0.0,0.0,0.0,0.0,0.0,0.0,0.0,0.0,0.0,0.0,0.0,0.0,0.0,0.0,0.0,0.0,0.0,0.0,0.0,0.0,0.0,0.0,0.0,0.0,0.0,0.0,0.0,0.0,0.0,0.0,0.0,0.0,0.0,0.0,0.0,0.0,0.0,0.0,0.0,0.0,4.0451,4.1689,4.2978,0.0,0.0,0.0,0.0,0.0,0.0,3.8437,3.7269,0.0,0.0,0.0,0.0,0.0,0.0,0.0,0.0,0.0,0.0,0.0,0.0,0.0,0.0,0.0,0.0,0.0,0.0,0.0,0.0,0.0,0.0,0.0,0.0,0.0,0.0,0.0,0.0,0.0,0.0,0.0,0.0,0.0,0.0,0.0,0.0,0.0,0.0,0.0,0.0,0.0,0.0,0.0,0.0,0.0,0.0,0.0,0.0,0.0,0.0,0.0,0.0,0.0,0.0,0.0,4.7781,5.4986,6.0936,6.5284,6.57,6.4824,6.278,5.6895,5.1242,0.0,0.0,0.0,0.0,0.0,0.0,0.0,0.0,0.0,0.0,0.0,0.0,0.0,0.0,0.0,0.0,0.0,0.0,0.0,0.0,0.0,0.0,0.0,0.0,0.0,0.0,0.0,0.0,0.0,0.0,0.0,0.0,0.0,0.0,0.0,0.0,0.0,0.0,0.0,0.0,0.0,4.4395,4.5233,4.3886,0.0,0.0,0.0,0.0,4.2275,4.1123,0.0,0.0,0.0,0.0,0.0,0.0,0.0,0.0,0.0,0.0,0.0,0.0,0.0,0.0,0.0,0.0,0.0,0.0,0.0,0.0,0.0,0.0,0.0,0.0,0.0,0.0,0.0,0.0,0.0,0.0,0.0,0.0,0.0,0.0,0.0,0.0,0.0,0.0,0.0,0.0,0.0,0.0,0.0,0.0,0.0,0.0,0.0,0.0,0.0,0.0,0.0,0.0,0.0,0.0,0.0,0.0,4.7969,5.4025,6.0088,6.5938,6.703,6.5925,6.2817,5.7923,5.2344,0.0,0.0,0.0,0.0,0.0,0.0,0.0,0.0,0.0,0.0,0.0,0.0,0.0,0.0,0.0,0.0,0.0,0.0,0.0,0.0,0.0,0.0,0.0,0.0,0.0,0.0,0.0,0.0,0.0,0.0,0.0,0.0,0.0,0.0,0.0,0.0,0.0,0.0,0.0,0.0,0.0,4.6051,4.6199,4.5215,4.4321,0.0,0.0,4.7166,4.7443,5.0191,0.0,0.0,0.0,0.0,0.0,0.0,0.0,0.0,0.0,0.0,0.0,0.0,0.0,0.0,0.0,0.0,0.0,0.0,0.0,0.0,0.0,0.0,0.0,0.0,0.0,0.0,0.0,0.0,0.0,0.0,0.0,0.0,0.0,0.0,0.0,0.0,0.0,0.0,0.0,0.0,0.0,0.0,0.0,0.0,0.0,0.0,0.0,0.0,0.0,0.0,0.0,0.0,0.0,0.0,0.0,4.309,4.8765,5.6234,6.2133,6.6229,6.6758,6.5642,6.2853,5.7262,5.161,0.0,0.0,0.0,0.0,0.0,0.0,0.0,0.0,0.0,0.0,0.0,0.0,0.0,0.0,0.0,0.0,0.0,0.0,0.0,0.0,0.0,0.0,0.0,0.0,0.0,0.0,0.0,0.0,0.0,0.0,0.0,0.0,0.0,0.0,0.0,0.0,0.0,0.0,0.0,0.0,0.0,0.0,4.7802,4.803,0.0,0.0,0.0,4.9239,4.911,0.0,0.0,0.0,0.0,0.0,0.0,0.0,0.0,0.0,0.0,0.0,0.0,0.0,0.0,0.0,0.0,0.0,0.0,0.0,0.0,0.0,0.0,0.0,0.0,0.0,0.0,0.0,0.0,0.0,0.0,0.0,0.0,0.0,0.0,0.0,0.0,0.0,0.0,0.0,0.0,0.0,0.0,0.0,0.0,0.0,0.0,0.0,0.0,0.0,0.0,0.0,0.0,0.0,0.0,0.0,0.0,0.0,4.8938,5.7933,6.3587,6.5649,6.5971,6.5019,6.2793,5.7131,0.0,0.0,0.0,0.0,0.0,0.0,0.0,0.0,0.0,0.0,0.0,0.0,0.0,0.0,0.0,0.0,0.0,0.0,0.0,0.0,0.0,0.0,0.0,0.0,0.0,0.0,0.0,2.5758,0.0,0.0,0.0,0.0,0.0,0.0,0.0,0.0,0.0,0.0,0.0,0.0,0.0,0.0,4.9176,4.9458,5.0781,5.1751,0.0,0.0,5.1505,5.197,5.3424,5.2806,0.0,0.0,0.0,0.0,0.0,0.0,0.0,0.0,0.0,0.0,0.0,0.0,0.0,0.0,0.0,0.0,0.0,0.0,0.0,0.0,0.0,0.0,0.0,0.0,0.0,0.0,0.0,0.0,0.0,0.0,0.0,0.0,0.0,0.0,0.0,0.0,0.0,0.0,0.0,0.0,0.0,0.0,0.0,0.0,0.0,0.0,0.0,0.0,0.0,0.0,0.0,0.0,0.0,0.0,0.0,4.8192,5.7635,6.2993,6.3865,6.4665,6.4349,6.2694,5.8637,5.3494,0.0,0.0,0.0,0.0,0.0,0.0,0.0,0.0,0.0,0.0,0.0,0.0,0.0,0.0,0.0,0.0,0.0,0.0,0.0,0.0,0.0,0.0,0.0,0.0,0.0,0.0,0.0,0.0,0.0,0.0,0.0,0.0,0.0,0.0,0.0,0.0,0.0,0.0,0.0,0.0,0.0,5.0264,5.1043,5.2818,5.4807,0.0,0.0,5.5907,5.808,6.1584,6.1037,5.1925,0.0,0.0,0.0,0.0,0.0,0.0,0.0,0.0,0.0,0.0,0.0,0.0,0.0,0.0,0.0,0.0,0.0,0.0,0.0,0.0,0.0,0.0,0.0,0.0,0.0,0.0,0.0,0.0,0.0,0.0,0.0,0.0,0.0,0.0,0.0,0.0,0.0,0.0,0.0,0.0,0.0,0.0,0.0,0.0,0.0,0.0,0.0,0.0,0.0,0.0,0.0,0.0,0.0,4.5099,4.8612,5.7291,6.2407,6.3648,6.4042,6.3508,6.2002,5.902,5.4193,0.0,0.0,0.0,0.0,0.0,0.0,0.0,0.0,0.0,0.0,0.0,0.0,0.0,0.0,0.0,0.0,0.0,0.0,0.0,0.0,0.0,0.0,0.0,0.0,0.0,0.0,0.0,0.0,3.6523,3.7096,3.645,0.0,0.0,0.0,0.0,0.0,0.0,0.0,0.0,0.0,0.0,5.1719,5.4324,5.5724,0.0,0.0,5.779,5.7954,5.84,5.9273,5.7755,5.1347,4.8468,0.0,0.0,0.0,0.0,0.0,0.0,0.0,0.0,0.0,0.0,0.0,0.0,0.0,0.0,0.0,0.0,0.0,0.0,0.0,0.0,0.0,0.0,0.0,0.0,0.0,0.0,0.0,0.0,0.0,0.0,0.0,0.0,0.0,0.0,0.0,0.0,0.0,0.0,0.0,0.0,0.0,0.0,0.0,0.0,0.0,0.0,0.0,0.0,0.0,0.0,0.0,0.0,4.5602,4.9323,5.7239,6.1949,6.3277,6.3314,6.2853,6.179,5.9471,5.5177,0.0,0.0,0.0,0.0,0.0,0.0,0.0,0.0,0.0,0.0,0.0,0.0,0.0,0.0,0.0,0.0,0.0,0.0,0.0,0.0,0.0,0.0,0.0,0.0,0.0,0.0,0.0,0.0,3.9533,3.9496,3.8138,0.0,0.0,0.0,0.0,0.0,0.0,0.0,0.0,0.0,0.0,5.3822,5.6427,5.7408,5.7881,5.7881,5.7842,5.7873,5.8102,5.755,5.581,5.2014,0.0,0.0,0.0,0.0,0.0,0.0,0.0,0.0,0.0,0.0,0.0,0.0,0.0,0.0,0.0,0.0,0.0,0.0,0.0,0.0,0.0,0.0,0.0,0.0,0.0,0.0,0.0,3.5004,0.0,0.0,3.2032,0.0,0.0,0.0,0.0,0.0,0.0,0.0,0.0,0.0,0.0,0.0,0.0,0.0,0.0,0.0,0.0,0.0,0.0,0.0,0.0,0.0,0.0,4.6346,5.0067,5.7476,6.1637,6.2425,6.242,6.2446,6.2401,6.022,5.6738,5.1907,0.0,0.0,0.0,0.0,0.0,0.0,0.0,0.0,0.0,0.0,0.0,0.0,0.0,0.0,0.0,0.0,0.0,0.0,0.0,0.0,0.0,0.0,0.0,0.0,0.0,0.0,3.6567,3.7162,3.7367,0.0,0.0,0.0,0.0,0.0,0.0,0.0,0.0,0.0,0.0,5.2469,5.6697,5.6799,5.7442,5.7915,5.7949,5.6227,5.5587,5.7831,5.8062,5.7246,0.0,0.0,0.0,0.0,0.0,0.0,0.0,0.0,0.0,0.0,0.0,0.0,0.0,0.0,0.0,0.0,0.0,0.0,0.0,0.0,0.0,0.0,0.0,0.0,0.0,0.0,0.0,3.9811,3.904,0.0,0.0,0.0,0.0,0.0,0.0,0.0,0.0,0.0,0.0,0.0,4.5177,4.6368,0.0,0.0,0.0,0.0,0.0,0.0,0.0,0.0,0.0,0.0,0.0,0.0,4.638,5.0236,5.7509,6.167,6.2381,6.2415,6.2164,6.1688,6.0938,5.7335,5.0602,0.0,0.0,0.0,0.0,0.0,0.0,0.0,0.0,0.0,0.0,0.0,0.0,0.0,0.0,0.0,0.0,0.0,0.0,0.0,0.0,0.0,0.0,0.0,0.0,0.0,3.9552,0.0,0.0,0.0,0.0,0.0,0.0,0.0,0.0,0.0,0.0,0.0,4.7203,5.0771,5.3179,5.531,5.7239,5.8152,5.8998,0.0,0.0,0.0,0.0,0.0,0.0,0.0,0.0,0.0,0.0,0.0,0.0,0.0,0.0,5.3959,4.6471,4.4195,4.3828,4.4892,0.0,0.0,0.0,0.0,0.0,0.0,0.0,0.0,0.0,0.0,0.0,0.0,0.0,0.0,4.4735,0.0,4.2585,0.0,0.0,0.0,0.0,0.0,0.0,0.0,0.0,4.7196,4.9325,5.027,5.1454,5.115,0.0,4.9316,4.563,0.0,0.0,0.0,0.0,0.0,0.0,0.0,0.0,4.7124,5.098,5.7746,6.167,6.2347,6.2415,6.2178,6.167,6.0913,5.784,5.2247,4.8703,4.4903,0.0,0.0,0.0,0.0,0.0,0.0,0.0,0.0,0.0,0.0,0.0,0.0,0.0,0.0,0.0,0.0,0.0,0.0,0.0,0.0,0.0,0.0,0.0,4.2067,0.0,0.0,0.0,0.0,0.0,0.0,0.0,0.0,0.0,4.5511,4.7796,5.0823,5.4533,5.548,5.6325,5.7712,0.0,0.0,0.0,0.0,0.0,0.0,0.0,5.5968,5.5714,5.6269,5.6987,5.7874,6.1176,6.3356,6.2218,0.0,0.0,5.3298,5.0875,5.0435,5.1463,5.2564,5.3298,5.3298,5.4583,5.5368,0.0,0.0,0.0,0.0,0.0,0.0,0.0,0.0,5.0771,5.0418,0.0,4.7251,0.0,0.0,0.0,0.0,0.0,4.5534,0.0,0.0,5.5446,5.7509,5.504,5.5683,5.5615,5.4871,5.4838,5.284,4.9015,4.3913,0.0,0.0,0.0,0.0,0.0,0.0,4.8714,5.2503,5.8355,6.1704,6.2381,6.2415,6.2415,6.2313,6.0283,5.8309,5.6603,5.3084,4.9623,4.6375,4.2491,0.0,0.0,0.0,0.0,0.0,0.0,0.0,0.0,0.0,0.0,0.0,0.0,0.0,0.0,0.0,0.0,0.0,0.0,0.0,0.0,4.2837,0.0,0.0,0.0,0.0,0.0,0.0,0.0,0.0,0.0,0.0,4.9137,5.2647,5.5993,5.7584,0.0,0.0,0.0,0.0,5.8592,5.734,5.6461,5.6405,5.7311,5.8579,6.0027,6.1684,0.0,0.0,6.6773,6.732,6.6953,6.387,6.5338,6.5962,6.3539,6.0199,5.818,5.829,5.8364,5.8364,5.8474,5.9869,6.0823,5.9177,0.0,0.0,0.0,0.0,5.3892,5.5319,5.8166,5.6975,5.6024,5.5098,5.2783,0.0,0.0,0.0,0.0,0.0,0.0,5.1183,5.4329,5.7002,5.9167,6.096,6.1704,6.14,6.0148,5.9607,5.7983,5.5344,5.3244,4.801,3.9889,0.0,0.0,0.0,0.0,5.1251,5.548,5.9844,6.2178,6.2381,6.2415,6.2415,6.2381,6.1264,5.9885,5.8341,5.6677,5.4143,5.0466,4.7602,0.0,0.0,0.0,0.0,0.0,0.0,0.0,0.0,0.0,0.0,0.0,0.0,0.0,0.0,0.0,0.0,0.0,0.0,0.0,4.1335,4.308,4.3223,0.0,0.0,0.0,0.0,0.0,0.0,0.0,0.0,0.0,5.5757,5.5723,5.5994,0.0,0.0,5.6833,5.6393,5.8287,6.0216,6.1434,6.1832,0.0,0.0,6.4141,6.3956,6.5706,6.8393,7.0425,7.0742,7.1908,7.2532,7.1476,7.1541,7.1358,7.0513,6.6549,6.3833,6.4604,6.4897,6.5301,6.6402,6.7026,6.7283,6.6614,6.3711,5.9253,5.8979,6.1392,6.0404,6.1605,6.4256,6.3138,6.1977,6.067,5.8423,5.526,5.1586,5.053,0.0,0.0,0.0,5.5716,5.9505,6.0216,6.1772,6.3903,6.4377,6.414,6.326,6.2821,6.1772,6.008,5.8761,5.4499,4.753,0.0,0.0,4.7022,5.0541,5.3923,5.7239,6.0622,6.2415,6.2415,6.2415,6.2415,6.2381,6.1941,6.1163,5.9979,5.9132,5.7364,5.4459,5.1781,4.8417,0.0,0.0,0.0,0.0,0.0,0.0,0.0,0.0,0.0,0.0,0.0,3.4955,3.209,0.0,0.0,0.0,4.0147,4.2175,4.3944,4.5267,0.0,0.0,0.0,0.0,0.0,0.0,0.0,5.133,5.494,5.8017,6.0047,5.9708,5.9607,6.0622,5.9877,5.9235,5.9235,0.0,6.2922,6.458,6.5193,6.6243,6.8341,6.8081,6.834,7.0508,7.1946,7.3075,7.3713,7.4329,7.4537,7.4247,7.4106,7.3832,7.312,7.0755,6.9119,6.9522,6.9853,7.0403,7.1358,7.1762,7.2018,7.2406,7.2806,6.5309,6.4013,6.6993,6.6975,6.7583,6.8717,6.8647,6.7623,6.5805,6.3632,6.1095,5.822,5.4769,0.0,5.7476,5.8829,6.096,6.366,6.4377,6.4715,6.4783,6.4783,6.4749,6.4681,6.4681,6.4309,6.3497,6.1467,5.937,5.7205,5.4465,5.2942,5.2739,5.4634,5.6494,5.8084,6.0791,6.2245,6.2381,6.2415,6.2415,6.2415,6.2415,6.2076,6.14,6.0622,5.9573,5.8155,5.5109,5.2073,4.9074,0.0,0.0,0.0,0.0,0.0,0.0,0.0,0.0,0.0,0.0,0.0,0.0,0.0,0.0,0.0,4.5665,0.0,4.8237,4.8744,0.0,0.0,0.0,4.9124,5.1882,5.3323,5.5111,5.7707,0.0,0.0,6.2651,6.4038,6.5527,6.7049,6.5764,6.4715,6.4783,6.5425,6.6305,6.7117,6.7286,6.7894,6.9745,7.1047,7.2637,7.4869,7.5615,7.5504,7.5655,7.5119,7.4279,7.357,7.4047,7.4184,7.2401,7.3444,7.4415,7.2752,7.3149,7.3707,7.3707,7.4184,7.4588,7.1966,7.3755,6.9902,6.9672,7.1685,7.0929,7.0696,7.0749,6.9536,6.8743,6.8132,6.5899,6.4208,6.2922,6.1501,6.1535,6.2753,6.3125,6.3937,6.5155,6.5358,6.573,6.6271,6.6305,6.5967,6.5459,6.5425,6.5053,6.4343,6.3802,6.2685,6.1095,6.0351,5.8017,5.4262,5.5175,5.7002,5.9539,6.0283,6.1197,6.2347,6.2415,6.2415,6.2415,6.2415,6.2279,6.2144,6.1434,6.0858,6.0419,5.7586,5.5008,5.2894,4.6589,0.0,0.0,0.0,0.0,0.0,0.0,0.0,0.0,0.0,3.9343,3.4844,0.0,4.1554,0.0,4.8225,5.1146,5.1314,5.1822,0.0,0.0,5.298,5.3894,5.6917,5.8572,5.9716,6.0374,6.2939,6.4918,6.5662,6.7083,6.8774,7.0703,6.7793,6.5628,6.6203,6.7963,6.9383,7.0128,7.1109,7.2291,7.3326,7.4601,7.5481,7.6201,7.626,7.6296,7.6349,7.616,7.572,7.5051,7.5026,7.4782,7.3883,7.4186,7.4297,7.4011,7.4276,7.4625,7.4625,7.4778,7.4888,7.2728,7.3957,7.2279,7.1773,7.2155,7.2363,7.2321,7.2057,7.1129,7.0302,6.9451,6.7523,6.644,6.6068,6.5662,6.5696,6.6068,6.644,6.6812,6.7184,6.7184,6.7455,6.7827,6.7489,6.7083,6.6677,6.6339,6.5797,6.5121,6.5087,6.4512,6.3396,6.3362,6.1603,5.822,5.7814,5.849,6.008,6.0757,6.1704,6.2854,6.2888,6.2415,6.14,6.1366,6.0926,5.9945,5.9201,5.866,5.8287,5.6055,5.4194,5.2889,4.7929,4.4096,0.0,0.0,0.0,0.0,0.0,0.0,0.0,0.0,0.0,0.0,0.0,4.5094,4.7261,5.1576,5.429,5.433,5.5247,5.6507,5.8358,5.8445,5.9607,6.2657,6.3734,6.4512,6.5189,6.6981,6.847,6.9214,7.0331,7.1616,7.3172,7.1244,6.9688,6.9823,7.0906,7.1921,7.2699,7.3477,7.4272,7.5161,7.5784,7.6215,7.6285,7.5924,7.5686,7.5796,7.5478,7.5003,7.4663,7.4933,7.4916,7.4163,7.4752,7.5109,7.4769,7.4865,7.4993,7.4697,7.4624,7.4624,7.3918,7.3968,7.3219,7.214,7.1122,7.2516,7.2748,7.2037,7.214,7.1319,6.9823,6.8673,6.8132,6.8064,6.8064,6.8064,6.8098,6.8774,6.9079,6.9079,6.9079,6.9079,6.9079,6.8368,6.7996,6.7861,6.7252,6.6542,6.5831,6.5831,6.5425,6.4647,6.4613,6.3869,6.2415,6.1061,6.0317,6.0114,6.1603,6.2685,6.3328,6.3091,6.1975,6.008,5.9776,5.8795,5.69,5.619,5.5547,5.4871,5.3518,5.2536,5.2029,4.8728,4.6082,0.0,4.1988,0.0,0.0,0.0,0.0,0.0,0.0,0.0,0.0,4.8274,4.9866,5.1894,5.548,5.7712,5.7814,5.9133,6.1095,6.3734,6.4072,6.5155,6.7793,6.8267,6.8876,7.0331,7.1142,7.1853,7.236,7.3172,7.3883,7.439,7.4424,7.4052,7.3815,7.368,7.395,7.4661,7.4762,7.4978,7.55,7.5703,7.5807,7.5887,7.5458,7.4864,7.5135,7.4524,7.3874,7.3831,7.4419,7.4616,7.3661,7.4895,7.5697,7.486,7.4898,7.4918,7.4631,7.439,7.4345,7.4076,7.4713,7.3762,7.3232,7.2994,7.3321,7.1333,6.7996,6.8574,6.8651,6.8402,6.935,6.9451,6.8876,6.8876,6.8876,6.8876,6.9045,6.9079,6.9079,6.9079,6.9079,6.9079,6.8944,6.8538,6.7895,6.776,6.732,6.6609,6.6609,6.5933,6.4647,6.4613,6.3869,6.2448,0.0,0.0,0.0,6.1603,6.2448,6.2516,6.0791,5.9641,5.9201,5.8051,0.0,5.6833,5.6664,5.6528,5.6359,5.5547,0.0,0.0,0.0,0.0,0.0,0.0,0.0,0.0,0.0,0.0,0.0,5.1928,5.0439,4.8883,5.257,5.5547,5.663,6.0047,6.2482,6.3091,6.4478,6.5797,6.6914,6.7049,6.7793,6.9553,7.0297,7.1007,7.1853,7.2631,7.3105,7.3274,7.395,7.4458,7.4661,7.5134,7.5405,7.527,7.5202,7.5303,7.5473,7.5439,7.5506,7.5676,7.5676,7.5689,7.5756,7.5662,7.55,7.5485,7.5404,7.4999,7.4525,7.4577,7.4478,7.3692,7.3822,7.4206,7.3856,7.3855,7.4153,7.498,7.4697,7.4345,7.4308,0.0,7.3889,7.3071,0.0,7.28,7.1041,6.8064,6.9857,7.0466,7.0161,7.0567,7.0534,7.0161,6.9417,6.9079,6.9045,6.8301,6.8368,6.9079,6.9079,6.9485,7.0195,6.9823,6.9417,6.9011,6.8639,6.8098,6.7387,6.7354,6.6779,6.5696,6.5696,6.5324,6.4613,6.458,6.3835,6.2347,6.3091,6.3666,6.3937,6.2888,6.1603,6.0216,0.0,0.0,0.0,0.0,0.0,0.0,0.0,0.0,0.0,0.0,0.0,5.3349,5.2367,5.2232,5.3281,5.4093,5.5615,5.822,5.8761,5.7881,5.5277,5.849,6.1095,6.2212,6.4377,6.5831,6.6237,6.7286,6.8233,6.8944,6.935,7.006,7.1142,7.1921,7.2529,7.2935,7.3578,7.4052,7.4052,7.4695,7.51,7.5168,7.5439,7.5676,7.5676,7.5676,7.5676,7.5676,7.5676,7.5676,7.5676,7.5676,7.5709,7.5676,7.5676,7.5676,7.5676,7.5676,7.5574,7.5202,7.5134,7.4999,7.4695,7.4593,7.4559,7.4525,7.4289,7.424,7.4861,7.4418,7.3802,7.4796,7.4728,7.4119,7.3172,7.2124,7.2732,7.1954,7.0398,0.0,0.0,0.0,7.1718,7.1515,7.1413,7.0094,6.9485,6.9417,6.8199,6.8301,6.9485,6.9485,7.0128,7.1244,7.0669,7.0331,7.0161,6.9586,6.8876,6.8132,6.8098,6.7793,6.7252,6.7083,6.6948,6.6812,6.6812,6.6203,6.5053,6.4749,6.4884,6.5459,6.5121,6.3768,6.1332,6.0892,5.9539,5.7103,5.6292,5.5344,5.416,5.4093,5.4262,5.4634,5.5108,5.5852,5.6833,5.7577,5.8524,5.9742,6.0622,6.1738,6.326,6.4613,6.4546,6.2618,6.414,6.5764,6.7117,6.7861,6.8335,6.8504,6.9214,6.9992,7.0703,7.1312,7.1921,7.2529,7.324,7.368,7.3781,7.4356,7.4796,7.483,7.5303,7.5676,7.5676,7.5676,7.5676,7.5676,7.5676,7.5777,7.5946,7.6014,7.598,7.6082,7.6014,7.5946,7.598,7.5811,7.5676,7.5676,7.5676,7.5676,7.5642,7.5676,7.5642,7.5676,7.5574,7.5676,7.5676,7.5236,7.4796,7.4762,7.4322,7.3751,7.554,7.554,7.5439,7.527,7.51,7.5202,7.5067,7.4593,7.2563,7.1582,7.1515,7.2022,7.2259,7.2191,7.1379,7.1007,7.1007,7.077,7.0804,7.1007,7.1007,7.1109,7.1312,7.121,7.0804,7.0229,7.0094,6.9654,6.9011,6.8944,6.8876,6.8707,6.8098,6.7455,6.688,6.6812,6.6711,6.6474,6.5256,6.4647,6.4715,6.2922,6.1738,6.1264,5.9471,5.822,5.7746,5.707,5.6562,5.6359,5.6325,5.7205,5.8998,5.8693,5.9302,6.1264,6.2178,6.2685,6.2888,6.414,6.5527,6.6981,6.7963,6.803,6.7083,6.7252,6.7793,6.8707,6.9451,7.0128,7.077,7.1447,7.2124,7.2834,7.3071,7.324,7.3341,7.3984,7.4458,7.4458,7.51,7.5506,7.5506,7.5608,7.5676,7.5676,7.5676,7.5676,7.5676,7.5676,7.6014,7.6555,7.6724,7.6995,7.7299,7.7096,7.6758,7.6724,7.6149,7.5743,7.5676,7.5676,7.5676,7.5676,7.5676,7.5676,7.5676,7.5676,7.5676,7.5676,7.5506,7.5473,7.5473,7.5337,7.4864,7.5676,7.5676,7.5676,7.5676,7.5676,7.5676,7.5676,7.5574,7.4289,7.3443,7.3105,7.3037,7.3003,7.2834,7.1379,7.0703,7.0635,6.9451,6.9316,7.0094,7.0128,7.0534,7.1278,7.1312,7.1142,7.0804,7.0804,7.0398,6.9755,6.9688,6.9485,6.9113,6.8707,6.8368,6.8098,6.8064,6.8064,6.803,6.6576,6.5797,6.5764,6.4816,6.4106,6.3666,6.2618,6.1907,6.1535,6.1197,6.0858,6.0452,6.0825,6.1332,6.1907,6.2009,6.2685,6.4072,6.4884,6.5459,6.5865,6.6914,6.7996,6.9045,6.9485,6.9891,7.0331,6.9586,6.962,7.077,7.121,7.1684,7.2394,7.28,7.3138,7.3443,7.3849,7.4086,7.4187,7.4762,7.5202,7.5236,7.5473,7.5676,7.5676,7.5676,7.5676,7.5676,7.5709,7.5709,7.5743,7.6115,7.6487,7.686,7.7232,7.7604,7.7942,7.7739,7.7367,7.6995,7.6589,7.6183,7.5845,7.5709,7.5709,7.5676,7.5676,7.5676,7.5676,7.5676,7.5676,7.5676,7.5676,7.5676,7.5676,7.5676,7.5303,7.5676,7.5676,7.5676,7.5676,7.5676,7.5676,7.5676,7.5676,7.5676,7.5371,7.4796,7.4086,7.3747,7.3544,7.1751,7.0939,7.0703,6.9147,6.8977,6.9992,6.9925,7.0466,7.1447,7.1413,7.1312,7.1312,7.1312,7.1007,7.05,7.0432,7.006,6.9417,6.935,6.9282,6.9079,6.9079,6.9079,6.9011,6.7929,6.732,6.732,6.732,6.7049,6.6508,6.6271,6.5933,6.5392,6.5189,6.4816,6.4309,6.4783,6.4918,6.4546,6.5053,6.5696,6.6406,6.6981,6.7658,6.8368,6.8977,6.9722,7.0601,7.0703,7.1244,7.236,7.1616,7.1379,7.2428,7.2597,7.2902,7.3544,7.3713,7.3815,7.3984,7.4492,7.483,7.4897,7.5371,7.5676,7.5676,7.5676,7.5743,7.5912,7.598,7.6082,7.6251,7.6217,7.6217,7.6284,7.6893,7.7333,7.7502,7.7874,7.8314,7.8416,7.8348,7.8044,7.7435,7.7232,7.6826,7.6284,7.6014,7.5845,7.5777,7.5676,7.5676,7.5676,7.5676,7.5676,7.5676,7.5676,7.5676,7.5676,7.5676,7.554,7.5676,7.5676,7.5676,7.5676,7.5676,7.5676,7.5676,7.5676,7.5676,7.5676,7.5473,7.483,7.4492,7.439,7.3544,7.3105,7.3105,7.2935,7.2834,7.2868,7.2394,7.2157,7.2225,7.165,7.1312,7.1345,7.1345,7.1312,7.1142,7.1176,7.0838,7.0161,7.0094,6.9755,6.9214,6.9147,6.9113,6.9113,6.8977,6.8876,6.8876,6.891,6.8842,6.8774,6.8064,6.7658,6.7489,6.6981,6.6576,6.6508,6.6542,6.688,6.7387,6.7523,6.7929,6.8673,6.8842,6.9214,6.9891,7.006,7.0703,7.2022,7.2157,7.2496,7.3274,7.324,7.3206,7.3409,7.3409,7.3713,7.439,7.4525,7.4728,7.5236,7.5439,7.5608,7.5608,7.5642,7.5676,7.5676,7.5811,7.5946,7.6623,7.6792,7.6995,7.7367,7.7333,7.7299,7.7333,7.801,7.8551,7.872,7.8957,7.9261,7.9634,7.9397,7.8957,7.8788,7.8314,7.7604,7.6961,7.6657,7.6589,7.5811,7.5676,7.5676,7.5676,7.5676,7.5676,7.5676,7.5676,7.5676,7.5676,7.5676,7.5608,7.5676,7.5676,7.5676,7.5676,7.5676,7.5676,7.5676,7.5676,7.5676,7.5676,7.5676,7.5371,7.527,7.5202,7.4492,7.4153,7.4119,7.3713,7.3477,7.3443,7.3172,7.3037,7.3003,7.2766,7.2394,7.1988,7.1954,7.1751,7.1379,7.1312,7.1142,7.0906,7.0872,7.0703,7.0432,7.0398,7.0398,7.0432,7.0398,7.0432,7.0297,6.9553,6.9079,6.9079,6.8774,6.8605,6.8605,6.8301,6.8166,6.8166,6.8166,6.8301,6.8605,6.8605,6.8944,6.9688,7.0195,7.0737,7.1447,7.1481,7.1954,7.2969,7.3037,7.3341,7.4052,7.4153,7.4322,7.4695,7.4424,7.4458,7.5134,7.5236,7.5371,7.5642,7.5676,7.5879,7.6386,7.598,7.598,7.6826,7.6657,7.669,7.7333,7.7536,7.7468,7.7435,7.7367,7.7367,7.6893,7.7638,7.8382,7.8551,7.9126,7.9803,8.0107,8.0006,7.96,7.9194,7.8889,7.8348,7.7232,7.6927,7.6623,7.5845,7.5709,7.5676,7.5676,7.5676,7.5676,7.5676,7.5676,7.5676,7.5676,7.5676,7.5676,7.5676,7.5676,7.5676,7.5676,7.5676,7.5676,7.5676,7.5676,7.5676,7.5676,7.5676,7.5676,7.5676,7.5608,7.5134,7.4897,7.483,7.4322,7.4086,7.4052,7.3916,7.3815,7.3781,7.3578,7.3206,7.2732,7.2462,7.2022,7.1379,7.1312,7.1312,7.1312,7.1312,7.1312,7.1312,7.1312,7.1312,7.1312,7.1312,7.1312,7.1142,7.0263,6.9722,6.9722,6.9722,6.9688,6.9722,6.9722,6.9722,6.9722,6.9722,6.9688,6.9722,6.9722,7.006,7.0737,7.1312,7.1921,7.2631,7.2699,7.3003,7.368,7.3815,7.4086,7.4728,7.4897,7.5134,7.5506,7.5202,7.5168,7.5574,7.5676,7.5777,7.598,7.6014,7.6352,7.7029,7.6623,7.6792,7.7739,7.7468,7.7468,7.8145,7.845,7.8483,7.8111,7.7908,7.7671,7.7198,7.801,7.8686,7.8619,7.9566,8.0073,8.0209,8.0141,7.9904,7.96,7.9261,7.8619,7.7435,7.7164,7.6623,7.5912,7.5777,7.5676,7.5676,7.5676,7.5676,7.5676,7.5676,7.5676,7.5676,7.5676,7.5676,7.5676,7.5676,7.5676,7.5676,7.5676,7.5676,7.5676,7.5676,7.5676,7.5676,7.5676,7.5676,7.5676,7.5676,7.5608,7.5608,7.5608,7.5506,7.5473,7.5405,7.4864,7.4559,7.4525,7.3849,7.3477,7.3409,7.2902,7.2191,7.1447,7.1345,7.1312,7.1345,7.1345,7.1312,7.1312,7.1312,7.1312,7.1312,7.1312,7.1312,7.1312,7.121,7.1109,7.1109,7.1176,7.1109,7.1142,7.1176,7.1176,7.1176,7.1109,7.1142,7.1176,7.1176,7.1481,7.2157,7.2326,7.2665,7.3308,7.3443,7.3781,7.4424,7.4559,7.4864,7.5439,7.554,7.5574,7.5676,7.5676,7.5709,7.5777,7.5845,7.6082,7.6657,7.6826,7.7164,7.7874,7.7807,7.7874,7.8077,7.8111,7.8348,7.8991,7.9667,7.9803,7.9769,7.987,7.9701,7.9397,7.9735,7.9837,7.9837,8.0006,8.0209,8.0209,8.0209,8.0175,7.9803,7.9228,7.8788,7.8111,7.7367,7.6589,7.598,7.5811,7.5676,7.5676,7.5676,7.5676,7.5676,7.5676,7.5676,7.5676,7.5676,7.5676,7.5676,7.5676,7.5676,7.5676,7.5676,7.5676,7.5676,7.5676,7.5676,7.5676,7.5676,7.5676,7.5676,7.5676,7.5676,7.5676,7.5676,7.5676,7.5676,7.5676,7.5405,7.5303,7.527,7.4999,7.4627,7.4221,7.3916,7.3443,7.2699,7.2225,7.2022,7.1921,7.1515,7.1312,7.1312,7.1312,7.1312,7.1312,7.1312,7.1312,7.1345,7.1312,7.1312,7.1312,7.1312,7.1312,7.1312,7.1312,7.1312,7.1312,7.1312,7.1312,7.1345,7.1751,7.2326,7.3003,7.3105,7.3409,7.4086,7.4221,7.4525,7.5202,7.5303,7.5371,7.5608,7.5676,7.5676,7.5777,7.6217,7.6454,7.6454,7.6454,7.6589,7.6893,7.7333,7.7908,7.8382,7.8314,7.8314,7.916,7.9397,7.9532,7.9667,8.004,8.0006,7.96,7.9498,7.9329,7.8991,7.916,7.9532,7.9634,7.9904,8.0209,8.0209,8.0209,8.0073,7.9634,7.9092,7.8348,7.7671,7.7198,7.6487,7.5912,7.5709,7.5676,7.5676,7.5676,7.5676,7.5676,7.5676,7.5676,7.5676,7.5676,7.5676,7.5676,7.5676,7.5676,7.5676,7.5676,7.5676,7.5676,7.5676,7.5676,7.5676,7.5676,7.5676,7.5676,7.5676,7.5676,7.5676,7.5676,7.5676,7.5676,7.5676,7.5676,7.5676,7.5676,7.5676,7.5439,7.4965,7.4695,7.4221,7.351,7.3003,7.2766,7.2699,7.2225,7.1887,7.1718,7.165,7.1582,7.1379,7.1312,7.1413,7.1616,7.1684,7.1785,7.1954,7.2022,7.1751,7.1345,7.1312,7.1447,7.1616,7.165,7.1785,7.2022,7.2462,7.3071,7.3747,7.3849,7.4187,7.483,7.4965,7.5168,7.5642,7.5676,7.5676,7.5676,7.5676,7.5811,7.6115,7.6521,7.6961,7.7266,7.7468,7.7604,7.7671,7.8044,7.8653,7.9329,7.9025,7.9228,7.987,8.0107,8.0073,7.9938,8.0073,7.9701,7.8889,7.8923,7.8788,7.828,7.8619,7.9126,7.916,7.9769,8.0107,8.0209,8.0209,7.987,7.9431,7.8517,7.7841,7.7266,7.686,7.6454,7.5912,7.5676,7.5676,7.5676,7.5676,7.5676,7.5676,7.5676,7.5676,7.5676,7.5676,7.5676,7.5676,7.5676,7.5676,7.5676,7.5676,7.5676,7.5676,7.5676,7.5676,7.5676,7.5676,7.5676,7.5676,7.5676,7.5676,7.5676,7.5676,7.5676,7.5676,7.5676,7.5676,7.5676,7.5676,7.5676,7.5676,7.5574,7.4965,7.4322,7.3713,7.3578,7.3477,7.3477,7.3375,7.2935,7.2394,7.236,7.209,7.165,7.1548,7.1785,7.2293,7.2394,7.2699,7.324,7.3308,7.2732,7.1481,7.1447,7.1785,7.2326,7.2394,7.2766,7.3308,7.3477,7.3815,7.4458,7.4627,7.4965,7.5506,7.5608,7.5574,7.5709,7.5709,7.5845,7.5845,7.5912,7.6217,7.6792,7.7063,7.7299,7.7976,7.8619,7.8957,7.9092,7.9025,7.9431,7.9904,8.0141,8.0175,8.0209,8.0209,7.987,7.9498,7.9667,7.9498,7.8585,7.8585,7.8754,7.8213,7.8619,7.9058,7.9228,7.9701,8.0175,8.0209,8.0141,7.9701,7.916,7.8077,7.7198,7.6758,7.6352,7.6115,7.5676,7.5676,7.5676,7.5676,7.5676,7.5676,7.5676,7.5676,7.5676,7.5676,7.5676,7.5676,7.5676,7.5676,7.5676,7.5676,7.5676,7.5676,7.5676,7.5676,7.5676,7.5676,7.5676,7.5676,7.5676,7.5676,7.5676,7.5676,7.5676,7.5676,7.5676,7.5676,7.5676,7.5676,7.5676,7.5676,7.5676,7.5676,7.5473,7.5236,7.4931,7.4492,7.4255,7.4187,7.3747,7.3375,7.3172,7.3138,7.2969,7.2834,7.28,7.2935,7.3138,7.3138,7.3274,7.3443,7.3477,7.324,7.2868,7.28,7.2935,7.3172,7.3138,7.3477,7.4086,7.4255,7.4593,7.527,7.5371,7.5405,7.5608,7.5709,7.5709,7.5811,7.6183,7.6487,7.6589,7.6961,7.7299,7.7705,7.8077,7.8551,7.8822,7.9431,7.9634,7.9194,7.9566,7.9904,8.0141,8.0209,8.0209,8.0209,8.0209,7.987,7.9329,7.9397,7.9058,7.8111,7.8145,7.8179,7.8111,7.845,7.9092,7.916,7.9735,7.9972,7.9837,7.9532,7.9058,7.8619,7.7773,7.686,7.6352,7.6048,7.5811,7.5676,7.5676,7.5676,7.5676,7.5676,7.5676,7.5676,7.5676,7.5676,7.5676,7.5676,7.5676,7.5676,7.5676,7.5676,7.5676,7.5676,7.5676,7.5676,7.5676,7.5676,7.5676,7.5676,7.5676,7.5676,7.5676,7.5676,7.5676,7.5676,7.5676,7.5676,7.5676,7.5676,7.5676,7.5676,7.5676,7.5676,7.5676,7.5676,7.5676,7.5676,7.527,7.4999,7.4897,7.4525,7.4187,7.395,7.3883,7.3815,7.3544,7.3443,7.3612,7.3849,7.3883,7.4018,7.4255,7.4322,7.4289,7.4289,7.4322,7.4187,7.4018,7.4153,7.4559,7.4965,7.5033,7.5202,7.554,7.5676,7.5676,7.5709,7.6014,7.6149,7.6284,7.686,7.7299,7.7367,7.7773,7.8044,7.845,7.8788,7.9228,7.9532,7.9904,7.9938,7.96,7.9904,8.0175,8.0209,8.0209,8.0209,8.0209,8.0209,7.9701,7.9025,7.8991,7.8483,7.757,7.7401,7.7367,7.7435,7.7773,7.8145,7.8483,7.8754,7.8991,7.9228,7.8889,7.8416,7.7976,7.7502,7.6724,7.6082,7.5912,7.5676,7.5676,7.5676,7.5676,7.5676,7.5676,7.5676,7.5676,7.5676,7.5676,7.5676,7.5676,7.5676,7.5676,7.5676,7.5676,7.5676,7.5676,7.5676,7.5743,7.5811,7.5811,7.5879,7.5912,7.6048,7.5946,7.5879,7.5946,7.5946,7.5845,7.5845,7.5879,7.5879,7.5845,7.5845,7.5709,7.5676,7.5676,7.5676,7.5676,7.5676,7.5676,7.5608,7.5676,7.5574,7.5506,7.5337,7.4762,7.4661,7.4356,7.3916,7.3747,7.4086,7.4627,7.4661,7.4931,7.554,7.554,7.5506,7.5473,7.5439,7.527,7.483,7.5202,7.5506,7.5642,7.5676,7.5642,7.5709,7.5709,7.5845,7.598,7.6555,7.6961,7.6995,7.7604,7.8044,7.8077,7.828,7.8619,7.9092,7.9261,7.9464,7.9972,8.0175,8.0175,8.0175,8.0175,8.0209,8.0209,8.0209,8.0209,8.0209,8.0141,7.9667,7.8382,7.8653,7.7841,7.669,7.6555,7.669,7.6589,7.6961,7.7029,7.7502,7.8247,7.8416,7.8788,7.8957,7.8416,7.757,7.7164,7.6657,7.6014,7.5777,7.5676,7.5676,7.5676,7.5676,7.5676,7.5676,7.5676,7.5676,7.5676,7.5676,7.5676,7.5676,7.5676,7.5676,7.5676,7.5676,7.5676,7.5676,7.5676,7.6048,7.6555,7.6589,7.686,7.7232,7.7367,7.7299,7.7333,7.6792,7.686,7.7096,7.6792,7.6589,7.6589,7.6589,7.6217,7.5777,7.5676,7.5676,7.5676,7.5676,7.5676,7.5676,7.5676,7.5676,7.5676,7.5676,7.5608,7.5439,7.5371,7.5337,7.5134,7.51,7.5134,7.5303,7.5371,7.5473,7.5642,7.5676,7.5676,7.5676,7.5676,7.5642,7.5473,7.5574,7.5676,7.5743,7.5743,7.5777,7.5879,7.6284,7.6589,7.6724,7.7299,7.7671,7.7739,7.8382,7.8788,7.8822,7.9329,7.9667,7.9904,7.9938,7.9972,8.0175,8.0209,8.0209,8.0209,8.0209,8.0209,8.0209,8.0209,8.0209,8.0209,8.0209,7.9464,7.8585,7.8111,7.7739,7.6454,7.642,7.6927,7.6792,7.7063,7.7536,7.7874,7.8348,7.8314,7.8416,7.872,7.8382,7.7333,7.6893,7.6657,7.6115,7.5743,7.5676,7.5676,7.5676,7.5676,7.5676,7.5676,7.5676,7.5676,7.5676,7.5676,7.5676,7.5676,7.5676,7.5676,7.5676,7.5676,7.5676,7.5743,7.6048,7.6487,7.6893,7.7232,7.757,7.7942,7.801,7.801,7.7942,7.7536,7.757,7.7908,7.7536,7.7367,7.7299,7.7029,7.6454,7.5879,7.5676,7.5676,7.5676,7.5676,7.5676,7.5676,7.5676,7.5676,7.5676,7.5676,7.5676,7.5676,7.5676,7.5676,7.5676,7.5676,7.5676,7.5676,7.5676,7.5676,7.5676,7.5676,7.5676,7.5676,7.5676,7.5676,7.5676,7.5709,7.5845,7.6183,7.6217,7.6352,7.6623,7.713,7.7367,7.7468,7.8044,7.845,7.8585,7.916,7.9498,7.9634,8.0006,8.0209,8.0175,8.0209,8.0209,8.0209,8.0209,8.0209,8.0209,8.0209,8.0209,8.0209,8.0209,8.0209,8.0209,8.0141,7.9803,7.8619,7.8483,7.7841,7.7164,7.7096,7.7333,7.7401,7.7807,7.8077,7.828,7.8314,7.8247,7.8213,7.8416,7.8517,7.7536,7.7198,7.6893,7.6352,7.5879,7.5743,7.5743,7.5709,7.5676,7.5676,7.5676,7.5676,7.5676,7.5676,7.5676,7.5676,7.5676,7.5676,7.5676,7.5676,7.5676,7.5676,7.5811,7.6555,7.6927,7.7164,7.7807,7.8179,7.8348,7.828,7.845,7.8213,7.8213,7.8145,7.828,7.8213,7.8111,7.7908,7.7468,7.6758,7.6251,7.5811,7.5709,7.5676,7.5676,7.5676,7.5676,7.5676,7.5676,7.5676,7.5676,7.5676,7.5676,7.5676,7.5676,7.5676,7.5676,7.5676,7.5676,7.5676,7.5676,7.5709,7.5912,7.5946,7.5946,7.598,7.6082,7.598,7.5879,7.6284,7.686,7.6995,7.7266,7.7739,7.7942,7.8111,7.8213,7.8788,7.9228,7.9329,7.9803,8.0175,8.0141,8.0175,8.0209,8.0209,8.0209,8.0209,8.0209,8.0209,8.0209,8.0209,8.0209,8.0209,8.0209,8.0209,8.0209,8.0209,8.0209,7.9837,7.9363,7.9058,7.8788,7.7671,7.7773,7.8077,7.8111,7.828,7.8382,7.8348,7.8314,7.8179,7.8145,7.8145,7.8179,7.7874,7.7773,7.7468,7.6758,7.6284,7.5946,7.5777,7.5709,7.5676,7.5676,7.5676,7.5676,7.5676,7.5676,7.5676,7.5676,7.5676,7.5676,7.5676,7.5676,7.5676,7.5676,7.5811,7.6555,7.7198,7.7773,7.8517,7.9092,7.9566,7.9667,7.9667,7.9634,7.9126,7.916,7.9464,7.9126,7.8889,7.8788,7.8111,7.7739,7.7198,7.6386,7.5777,7.5777,7.5709,7.5709,7.5743,7.5743,7.5709,7.5743,7.5709,7.5709,7.5743,7.5743,7.5676,7.5676,7.5676,7.5709,7.5777,7.5777,7.5811,7.5879,7.6352,7.6623,7.6792,7.7198,7.7502,7.7367,7.7029,7.7063,7.7604,7.7739,7.7908,7.8179,7.8619,7.8855,7.8991,7.9464,7.9972,7.9938,8.004,8.0209,8.0209,8.0209,8.0209,8.0209,8.0209,8.0209,8.0209,8.0209,8.0209,8.0209,8.0209,8.0209,8.0209,8.0209,8.0209,8.0209,8.0175,7.9938,7.9261,7.9194,7.8855,7.8247,7.8416,7.8788,7.8855,7.8855,7.8855,7.8855,7.8855,7.8822,7.8686,7.8686,7.8686,7.8619,7.8517,7.8213,7.7502,7.6961,7.6724,7.6217,7.5709,7.5709,7.5777,7.5676,7.5676,7.5676,7.5676,7.5676,7.5676,7.5676,7.5676,7.5676,7.5676,7.5676,7.5676,7.5811,7.6555,7.713,7.7671,7.8653,7.9329,7.9701,8.0006,8.0209,8.0175,7.9837,7.987,8.004,7.9837,7.9431,7.9126,7.8619,7.8348,7.7942,7.7266,7.6758,7.6724,7.642,7.6284,7.6183,7.5946,7.5912,7.6183,7.5946,7.598,7.6082,7.5946,7.5709,7.5676,7.5709,7.5845,7.6183,7.6251,7.6521,7.6724,7.7198,7.7401,7.7468,7.7739,7.8145,7.8314,7.8179,7.8077,7.8416,7.8517,7.8653,7.9058,7.9329,7.96,7.9769,7.9938,8.0175,8.0209,8.0209,8.0209,8.0209,8.0209,8.0209,8.0209,8.0209,8.0209,8.0209,8.0209,8.0209,8.0209,8.0209,8.0209,8.0209,8.0209,8.0209,8.0209,8.0209,8.004,7.9735,7.9532,7.9532,7.9194,7.9228,7.9566,7.9634,7.96,7.9634,7.9634,7.9634,7.9532,7.9363,7.9363,7.9464,7.9431,7.9397,7.9025,7.8483,7.8044,7.7604,7.6961,7.6284,7.5912,7.5912,7.5811,7.5777,7.5709,7.5709,7.5709,7.5709,7.5777,7.5743,7.5676,7.5676,7.5676,7.5676,7.5811,7.6555,7.6927,7.713,7.8348,7.8991,7.9228,7.9769,8.0006,8.0175,8.0175,8.0175,8.0175,8.0175,7.9803,7.9397,7.9329,7.9025,7.8585,7.8416,7.8314,7.8213,7.7468,7.7096,7.686,7.6487,7.6589,7.6893,7.6487,7.6555,7.6792,7.6487,7.6251,7.6284,7.6318,7.6487,7.6961,7.7063,7.7333,7.7671,7.8077,7.8145,7.8213,7.8416,7.8686,7.9228,7.9261,7.9261,7.9261,7.9295,7.9498,8.0107,8.0073,8.0073,8.0073,8.0141,8.0209,8.0209,8.0209,8.0209,8.0209,8.0209,8.0209,8.0209,8.0209,8.0209,8.0209,8.0209,8.0209,8.0209,8.0209,8.0209,8.0209,8.0209,8.0209,8.0209,8.0209,8.0107,8.0107,8.0006,8.0141,8.0209,8.0209,8.0209,8.0209,8.0175,8.0073,8.004,7.9972,7.9938,7.9769,7.9701,7.987,7.9904,7.9972,7.9701,7.9329,7.9092,7.8551,7.7604,7.6961,7.6657,7.6386,7.6318,7.6183,7.5912,7.5777,7.5811,7.5811,7.5845,7.598,7.5676,7.5676,7.5676,7.5676,7.5811,7.6555,7.686,7.7029,7.7773,7.8551,7.9058,7.9261,7.9667,8.004,8.0209,8.0209,8.0209,8.0175,8.0107,7.9938,7.9938,7.9735,7.9634,7.9532,7.9667,7.9431,7.8585,7.7908,7.7807,7.7705,7.7502,7.7705,7.757,7.7638,7.7705,7.7638,7.7401,7.7299,7.7333,7.7536,7.7739,7.7908,7.7976,7.828,7.8686,7.8889,7.9058,7.9498,7.9904,8.0006,8.004,8.0006,7.9938,7.9938,8.004,8.0141,8.0209,8.0209,8.0209,8.0209,8.0209,8.0209,8.0209,8.0209,8.0209,8.0209,8.0209,8.0209,8.0209,8.0209,8.0209,8.0209,8.0209,8.0209,8.0209,8.0209,8.0209,8.0209,8.0209,8.0209,8.0209,8.0209,8.0209,8.0209,8.0209,8.0209,8.0209,8.0209,8.0209,8.0209,8.0175,8.0141,8.0175,8.0141,8.0107,8.0073,8.0107,8.0073,8.0107,8.0107,7.9904,8.0006,7.9464,7.8517,7.7908,7.7638,7.7333,7.6961,7.6792,7.669,7.6352,7.598,7.6318,7.669,7.6961,7.5676,7.5676,7.5676,7.5676,7.5777,7.6115,7.6251,7.6386,7.7096,7.7638,7.8111,7.872,7.9295,7.9667,8.0073,8.0209,8.0209,8.0209,8.0209,8.0209,8.0209,8.0209,8.0209,8.0209,8.0209,8.0006,7.9431,7.8855,7.8551,7.8111,7.828,7.8416,7.8213,7.8179,7.8348,7.8145,7.8077,7.8044,7.8044,7.8213,7.8585,7.8855,7.9092,7.9228,7.9397,7.9634,7.9735,7.9938,8.0175,8.0175,8.0175,8.0209,8.0209,8.0209,8.0209,8.0209,8.0209,8.0209,8.0209,8.0209,8.0209,8.0209,8.0209,8.0209,8.0209,8.0209,8.0209,8.0209,8.0209,8.0209,8.0209,8.0209,8.0209,8.0209,8.0209,8.0209,8.0209,8.0209,8.0209,8.0209,8.0209,8.0209,8.0209,8.0209,8.0209,8.0209,8.0209,8.0209,8.0209,8.0209,8.0209,8.0209,8.0209,8.0209,8.0209,8.0209,8.0209,8.0209,8.0209,8.0209,8.0209,8.0175,8.0006,7.9464,7.9025,7.8551,7.801,7.7536,7.7502,7.7435,7.7198,7.7063,7.7299,7.757,7.7773,7.5676,7.5676,7.5676,7.5676,7.5676,7.5676,7.5709,7.5845,7.6386,7.6792,7.7096,7.8247,7.8957,7.9295,7.9803,8.0209,8.0209,8.0209,8.0209,8.0209,8.0209,8.0209,8.0209,8.0209,8.0209,8.0175,8.0073,7.9904,7.9363,7.8855,7.8889,7.9058,7.8686,7.8686,7.9092,7.8889,7.8483,7.8416,7.845,7.8788,7.9329,7.987,8.0209,8.0209,8.0209,8.0175,8.0107,8.0175,8.0209,8.0209,8.0209,8.0209,8.0209,8.0209,8.0209,8.0209,8.0209,8.0209,8.0209,8.0209,8.0209,8.0209,8.0209,8.0209,8.0209,8.0209,8.0209,8.0209,8.0209,8.0209,8.0209,8.0209,8.0209,8.0209,8.0209,8.0209,8.0209,8.0209,8.0209,8.0209,8.0209,8.0209,8.0209,8.0209,8.0209,8.0209,8.0209,8.0209,8.0209,8.0209,8.0209,8.0209,8.0209,8.0209,8.0209,8.0209,8.0209,8.0209,8.0209,8.0209,8.0209,8.0209,8.0006,7.9904,7.9701,7.9194,7.8653,7.8247,7.8213,7.8179,7.8077,7.8077,7.8145,7.828,7.845,7.5676,7.5676,7.5676,7.5676,7.5676,7.5676,7.5676,7.5709,7.5845,7.6251,7.686,7.7739,7.8483,7.916,7.987,8.0175,8.0209,8.0209,8.0209,8.0209,8.0209,8.0209,8.0209,8.0209,8.0209,8.0209,8.0209,8.0175,7.9938,7.9803,7.987,7.9904,7.9837,7.9938,7.9837,7.9701,7.9938,7.9904,7.987,7.9904,8.0006,8.0141,8.0175,8.0209,8.0209,8.0209,8.0209,8.0209,8.0209,8.0209,8.0209,8.0209,8.0209,8.0209,8.0209,8.0209,8.0209,8.0209,8.0209,8.0209,8.0209,8.0209,8.0209,8.0209,8.0209,8.0209,8.0209,8.0209,8.0209,8.0209,8.0209,8.0209,8.0209,8.0209,8.0209,8.0209,8.0209,8.0209,8.0209,8.0209,8.0209,8.0209,8.0209,8.0209,8.0209,8.0209,8.0209,8.0209,8.0209,8.0209,8.0209,8.0209,8.0209,8.0209,8.0209,8.0209,8.0209,8.0209,8.0209,8.0209,8.0209,8.0209,8.0209,8.0073,7.9938,7.9904,7.9532,7.9228,7.9058,7.8923,7.8788,7.8822,7.8923,7.9025,7.9126,7.5676,7.5676,7.5676,7.5676,7.5676,7.5676,7.5676,7.5676,7.5709,7.5879,7.6318,7.7029,7.801,7.9058,7.987,8.0175,8.0209,8.0209,8.0209,8.0209,8.0209,8.0209,8.0209,8.0209,8.0209,8.0209,8.0209,8.0209,8.0209,8.0209,8.0209,8.0209,8.0209,8.0141,8.0209,8.0209,8.0175,8.0141,8.0175,8.0175,8.0209,8.0209,8.0209,8.0209,8.0209,8.0209,8.0209,8.0209,8.0209,8.0209,8.0209,8.0209,8.0209,8.0209,8.0209,8.0209,8.0209,8.0209,8.0209,8.0209,8.0209,8.0209,8.0209,8.0209,8.0209,8.0209,8.0209,8.0209,8.0209,8.0209,8.0209,8.0209,8.0209,8.0209,8.0209,8.0209,8.0209,8.0209,8.0209,8.0209,8.0209,8.0209,8.0209,8.0209,8.0209,8.0209,8.0209,8.0209,8.0209,8.0209,8.0209,8.0209,8.0209,8.0209,8.0209,8.0209,8.0209,8.0209,8.0209,8.0209,8.0209,8.0209,8.0209,8.0209,8.0107,8.0107,8.0175,8.0006,7.9634,7.9532,7.9498,7.9498,7.9532,7.9667,7.9769,7.554,7.5676,7.5676,7.5676,7.5676,7.5676,7.5676,7.5676,7.5676,7.5709,7.598,7.6792,7.7942,7.9025,7.9837,8.0209,8.0209,8.0209,8.0209,8.0209,8.0209,8.0209,8.0209,8.0209,8.0209,8.0209,8.0209,8.0209,8.0209,8.0209,8.0209,8.0209,8.0209,8.0209,8.0209,8.0209,8.0209,8.0209,8.0209,8.0209,8.0209,8.0209,8.0209,8.0209,8.0209,8.0209,8.0209,8.0209,8.0209,8.0209,8.0209,8.0209,8.0209,8.0209,8.0209,8.0209,8.0209,8.0209,8.0209,8.0209,8.0209,8.0209,8.0209,8.0209,8.0209,8.0209,8.0209,8.0209,8.0209,8.0209,8.0209,8.0209,8.0209,8.0209,8.0209,8.0209,8.0209,8.0209,8.0209,8.0209,8.0209,8.0209,8.0209,8.0209,8.0209,8.0209,8.0209,8.0209,8.0209,8.0242,8.0209,8.0209,8.0242,8.0242,8.0209,8.0209,8.0209,8.0209,8.0209,8.0209,8.0209,8.0209,8.0209,8.0209,8.0209,8.0209,8.0175,8.0175,8.0175,7.9972,7.987,8.0006,8.0107,8.0209,8.0209,7.51,7.5676,7.5676,7.5676,7.5676,7.5676,7.5676,7.5676,7.5676,7.5676,7.5879,7.7164,7.8247,7.9092,7.9769,8.0209,8.0209,8.0209,8.0209,8.0209,8.0209,8.0209,8.0209,8.0209,8.0209,8.0209,8.0209,8.0209,8.0209,8.0209,8.0209,8.0209,8.0209,8.0209,8.0209,8.0209,8.0209,8.0209,8.0209,8.0209,8.0209,8.0209,8.0209,8.0209,8.0209,8.0209,8.0209,8.0209,8.0209,8.0209,8.0209,8.0209,8.0209,8.0209,8.0209,8.0209,8.0209,8.0209,8.0209,8.0209,8.0209,8.0209,8.0209,8.0209,8.0209,8.0209,8.0209,8.0209,8.0209,8.0209,8.0209,8.0209,8.0209,8.0209,8.0209,8.0209,8.0209,8.0209,8.0209,8.0209,8.0209,8.0209,8.0209,8.0209,8.0209,8.0209,8.0209,8.0209,8.0276,8.031,8.0276,8.0242,8.0276,8.0276,8.0209,8.0209,8.0209,8.0209,8.0209,8.0209,8.0209,8.0209,8.0209,8.0209,8.0209,8.0209,8.0209,8.0209,8.0209,8.0209,8.0209,8.0209,8.0209,8.0209,8.0209,7.5033,7.5676,7.5676,7.5676,7.5676,7.5676,7.5676,7.5676,7.5676,7.5676,7.5777,7.7266,7.8145,7.8686,7.9701,8.0209,8.0209,8.0209,8.0209,8.0209,8.0209,8.0209,8.0209,8.0209,8.0209,8.0209,8.0209,8.0209,8.0209,8.0209,8.0209,8.0209,8.0209,8.0209,8.0209,8.0209,8.0209,8.0209,8.0209,8.0209,8.0209,8.0209,8.0209,8.0209,8.0209,8.0209,8.0209,8.0209,8.0209,8.0209,8.0209,8.0209,8.0209,8.0209,8.0209,8.0209,8.0209,8.0209,8.0209,8.0209,8.0209,8.0209,8.0209,8.0209,8.0209,8.0209,8.0209,8.0209,8.0209,8.0209,8.0209,8.0209,8.0209,8.0209,8.0209,8.0209,8.0209,8.0209,8.0209,8.0209,8.0209,8.0209,8.0209,8.0209,8.0209,8.0209,8.0209,8.0276,8.0479,8.0648,8.0682,8.0716,8.0784,8.0648,8.0581,8.0412,8.0242,8.031,8.0378,8.0479,8.0547,8.0209,8.0209,8.0209,8.0242,8.0276,8.0276,8.0209,8.0209,8.0209,8.0209,8.0209,8.0209,8.0209,8.0209,7.4695,7.5371,7.5608,7.5676,7.5676,7.5676,7.5676,7.5676,7.5676,7.5676,7.5811,7.7266,7.801,7.8416,7.9498,8.0175,8.0209,8.0209,8.0209,8.0209,8.0209,8.0209,8.0209,8.0209,8.0209,8.0209,8.0209,8.0209,8.0209,8.0209,8.0209,8.0209,8.0209,8.0209,8.0209,8.0209,8.0209,8.0209,8.0209,8.0209,8.0209,8.0209,8.0209,8.0209,8.0209,8.0209,8.0209,8.0209,8.0209,8.0209,8.0209,8.0209,8.0209,8.0209,8.0209,8.0209,8.0209,8.0209,8.0209,8.0209,8.0209,8.0209,8.0209,8.0209,8.0209,8.0209,8.0209,8.0209,8.0209,8.0209,8.0209,8.0209,8.0209,8.0209,8.0209,8.0209,8.0209,8.0209,8.0209,8.0209,8.031,8.0615,8.0818,8.0885,8.0919,8.0987,8.1156,8.1224,8.1325,8.1426,8.1426,8.146,8.146,8.1257,8.1021,8.1122,8.1257,8.1291,8.1325,8.1156,8.1088,8.0784,8.0581,8.0682,8.0648,8.0445,8.031,8.0276,8.0242,8.0209,8.0276,8.0378,8.0209,8.0209,8.0209,7.3984,7.4695,7.5405,7.5676,7.5676,7.5676,7.5676,7.5676,7.5676,7.5676,7.5879,7.7299,7.801,7.8348,7.9532,8.0141,8.0209,8.0209,8.0209,8.0209,8.0209,8.0209,8.0209,8.0209,8.0209,8.0209,8.0209,8.0209,8.0209,8.0209,8.0209,8.0209,8.0209,8.0209,8.0209,8.0209,8.0209,8.0209,8.0209,8.0209,8.0209,8.0209,8.0209,8.0209,8.0209,8.0209,8.0209,8.0209,8.0209,8.0209,8.0209,8.0209,8.0209,8.0209,8.0209,8.0209,8.0209,8.0209,8.0209,8.0209,8.0209,8.0209,8.0209,8.0209,8.0209,8.0209,8.0209,8.0209,8.0209,8.0209,8.0209,8.0242,8.031,8.0412,8.0445,8.0648,8.0682,8.0716,8.0818,8.0885,8.1088,8.1291,8.1528,8.1731,8.1765,8.19,8.2103,8.2171,8.2103,8.2205,8.2205,8.2069,8.2035,8.1968,8.1866,8.2103,8.2238,8.2272,8.2137,8.1866,8.1866,8.1799,8.1596,8.1359,8.1224,8.119,8.075,8.031,8.0615,8.0919,8.0615,8.0547,8.0344,8.0412,8.0682,7.3477,7.4627,7.4897,7.527,7.5642,7.5676,7.5676,7.5676,7.5676,7.5676,7.6014,7.7299,7.7976,7.845,7.9397,8.0209,8.0209,8.0209,8.0209,8.0209,8.0209,8.0209,8.0209,8.0209,8.0209,8.0209,8.0209,8.0209,8.0209,8.0209,8.0209,8.0209,8.0209,8.0209,8.0209,8.0209,8.0209,8.0209,8.0209,8.0209,8.0209,8.0209,8.0209,8.0209,8.0209,8.0209,8.0209,8.0209,8.0209,8.0209,8.0209,8.0209,8.0209,8.0209,8.0209,8.0209,8.0209,8.0209,8.0209,8.0209,8.0209,8.0209,8.0209,8.0209,8.0209,8.0209,8.0209,8.0209,8.0209,8.0209,8.0209,8.0716,8.0919,8.1122,8.1257,8.1663,8.1832,8.1832,8.1866,8.19,8.2002,8.2069,8.2238,8.2644,8.2746,8.2678,8.2813,8.2644,8.2509,8.2813,8.2949,8.2678,8.2577,8.2611,8.2678,8.2847,8.2813,8.2746,8.2543,8.2272,8.234,8.2678,8.2408,8.2069,8.2035,8.1934,8.1562,8.1325,8.1596,8.1697,8.1596,8.1257,8.1021,8.1291,8.1799,7.3105,7.4221,7.4492,7.5033,7.5642,7.5676,7.5676,7.5676,7.5676,7.5676,7.6014,7.7299,7.801,7.8416,7.9431,8.0209,8.0209,8.0209,8.0209,8.0209,8.0209,8.0209,8.0209,8.0209,8.0209,8.0209,8.0209,8.0209,8.0209,8.0209,8.0209,8.0209,8.0209,8.0209,8.0209,8.0209,8.0209,8.0209,8.0209,8.0209,8.0209,8.0209,8.0209,8.0209,8.0209,8.0209,8.0209,8.0209,8.0209,8.0209,8.0209,8.0209,8.0209,8.0209,8.0209,8.0209,8.0209,8.0209,8.0209,8.0209,8.0209,8.0209,8.0209,8.0209,8.0209,8.0209,8.0412,8.0479,8.0378,8.0615,8.0919,8.146,8.1494,8.1663,8.2002,8.2408,8.2441,8.2408,8.2408,8.2509,8.278,8.2847,8.305,8.3456,8.3795,8.3659,8.3524,8.3253,8.305,8.3389,8.3659,8.3456,8.3355,8.3456,8.349,8.3524,8.3422,8.3219,8.3084,8.2983,8.3253,8.3592,8.3186,8.2847,8.2813,8.2712,8.2509,8.2441,8.2509,8.2712,8.2881,8.2441,8.1832,8.2069,8.2577,7.2766,7.351,7.4255,7.4965,7.5574,7.5642,7.5676,7.5676,7.5676,7.5676,7.5811,7.7333,7.7976,7.828,7.9532,8.0175,8.0209,8.0209,8.0209,8.0209,8.0209,8.0209,8.0209,8.0209,8.0209,8.0209,8.0209,8.0209,8.0209,8.0209,8.0209,8.0209,8.0209,8.0209,8.0209,8.0209,8.0209,8.0209,8.0209,8.0209,8.0209,8.0209,8.0209,8.0209,8.0209,8.0209,8.0209,8.0209,8.0209,8.0209,8.0209,8.0209,8.0209,8.0209,8.0209,8.0209,8.0209,8.0209,8.0209,8.0209,8.0209,8.0209,8.0209,8.0209,8.031,8.0479,8.075,8.0987,8.1054,8.1528,8.2002,8.1934,8.19,8.2205,8.2577,8.2712,8.2746,8.2746,8.2746,8.2949,8.3355,8.3592,8.3998,8.4403,8.4302,8.4234,8.4099,8.4099,8.3964,8.4031,8.4268,8.4268,8.4268,8.4403,8.437,8.4099,8.4065,8.3862,8.4065,8.4065,8.4336,8.4302,8.393,8.3625,8.3592,8.3456,8.3321,8.3253,8.3219,8.3456,8.3693,8.3321,8.2644,8.2712,8.305,7.2056,7.2766,7.351,7.4255,7.4931,7.5473,7.5676,7.5676,7.5676,7.5676,7.5811,7.7299,7.7908,7.8145,7.9532,8.004,8.0209,8.0209,8.0209,8.0209,8.0209,8.0209,8.0209,8.0209,8.0209,8.0209,8.0209,8.0209,8.0209,8.0209,8.0209,8.0209,8.0209,8.0209,8.0209,8.0209,8.0209,8.0209,8.0209,8.0209,8.0209,8.0209,8.0209,8.0209,8.0209,8.0209,8.0209,8.0209,8.0209,8.0209,8.0209,8.0209,8.0209,8.0209,8.0209,8.0209,8.0209,8.0209,8.0209,8.0209,8.0209,8.0209,8.0242,8.0547,8.075,8.1021,8.1291,8.1596,8.1731,8.2103,8.2543,8.2644,8.2712,8.3016,8.3355,8.3558,8.3592,8.3592,8.3592,8.3659,8.4031,8.4133,8.4573,8.4606,8.4471,8.4573,8.4606,8.4606,8.4606,8.4606,8.4606,8.4606,8.4606,8.4606,8.4606,8.4403,8.4505,8.4539,8.4606,8.4606,8.4539,8.4471,8.4437,8.4336,8.4133,8.4133,8.4167,8.4065,8.3862,8.4099,8.4302,8.3896,8.3592,8.3592,8.3659,7.1751,7.2462,7.3172,7.4086,7.5033,7.5506,7.5676,7.5676,7.5676,7.5676,7.5845,7.6995,7.7705,7.8145,7.9194,7.987,8.0209,8.0209,8.0209,8.0209,8.0209,8.0209,8.0209,8.0209,8.0209,8.0209,8.0209,8.0209,8.0209,8.0209,8.0209,8.0209,8.0209,8.0209,8.0209,8.0209,8.0209,8.0209,8.0209,8.0209,8.0209,8.0209,8.0209,8.0209,8.0209,8.0209,8.0209,8.0209,8.0209,8.0209,8.0209,8.0209,8.0209,8.0209,8.0209,8.0209,8.0209,8.0209,8.0209,8.0209,8.0209,8.0276,8.0445,8.1054,8.1291,8.1494,8.2035,8.2475,8.2475,8.2611,8.305,8.3422,8.3659,8.3896,8.4234,8.4539,8.4573,8.4573,8.4539,8.4539,8.4573,8.4539,8.4606,8.4606,8.4606,8.4606,8.4606,8.4606,8.4606,8.4606,8.4606,8.4606,8.4606,8.4606,8.4606,8.4606,8.4606,8.4606,8.4606,8.4606,8.4606,8.4606,8.4539,8.4573,8.4573,8.4539,8.4437,8.4505,8.4471,8.4606,8.4606,8.4336,8.4133,8.42,8.4302,7.1718,7.236,7.3172,7.4255,7.5506,7.5642,7.5676,7.5676,7.5676,7.5676,7.5845,7.6555,7.7299,7.7874,7.8822,7.9532,7.9904,8.0073,8.0209,8.0209,8.0209,8.0209,8.0209,8.0209,8.0209,8.0209,8.0209,8.0209,8.0209,8.0209,8.0209,8.0209,8.0209,8.0209,8.0209,8.0209,8.0209,8.0209,8.0209,8.0209,8.0209,8.0209,8.0209,8.0209,8.0209,8.0209,8.0209,8.0209,8.0209,8.0209,8.0209,8.0209,8.0209,8.0209,8.0209,8.0209,8.0209,8.0209,8.0209,8.0209,8.0209,8.0412,8.0851,8.1494,8.1765,8.2069,8.2644,8.3253,8.3355,8.349,8.3862,8.3896,8.4031,8.4234,8.4471,8.4606,8.4606,8.4606,8.4606,8.4606,8.4606,8.4606,8.4606,8.4606,8.4606,8.4606,8.4606,8.4606,8.4606,8.4606,8.4606,8.4606,8.4606,8.4606,8.4606,8.4606,8.4606,8.4606,8.4606,8.4606,8.4606,8.4606,8.4606,8.4606,8.4606,8.4606,8.4573,8.4606,8.4606,8.4606,8.4606,8.4606,8.4606,8.4606,8.4606,7.1413,7.1684,7.2969,7.4018,7.4897,7.5473,7.5676,7.5676,7.5676,7.5676,7.5845,7.6487,7.6995,7.7367,7.8517,7.9228,7.9431,8.0006,8.0175,8.0209,8.0209,8.0209,8.0209,8.0209,8.0209,8.0209,8.0209,8.0209,8.0209,8.0209,8.0209,8.0209,8.0209,8.0209,8.0209,8.0209,8.0209,8.0209,8.0209,8.0209,8.0209,8.0209,8.0209,8.0209,8.0209,8.0209,8.0209,8.0209,8.0209,8.0209,8.0209,8.0209,8.0209,8.0209,8.0209,8.0209,8.0209,8.0209,8.0209,8.0209,8.0209,8.0412,8.0885,8.1629,8.2205,8.2678,8.3219,8.3862,8.4268,8.437,8.4437,8.437,8.4336,8.4505,8.4606,8.4606,8.4606,8.4606,8.4606,8.4606,8.4606,8.4606,8.4606,8.4606,8.4606,8.4606,8.4606,8.4606,8.4606,8.4606,8.4606,8.4606,8.4606,8.4606,8.4606,8.4606,8.4606,8.4606,8.4606,8.4606,8.4606,8.4606,8.4606,8.4606,8.4606,8.4606,8.4606,8.4606,8.4606,8.4606,8.4606,8.4606,8.4606,8.4606,8.4606,7.1312,7.1515,7.2868,7.3916,7.4661,7.5405,7.5676,7.5676,7.5676,7.5676,7.5709,7.6149,7.6555,7.6961,7.8145,7.8889,7.916,7.987,8.0141,8.0209,8.0209,8.0209,8.0209,8.0209,8.0209,8.0209,8.0209,8.0209,8.0209,8.0209,8.0209,8.0209,8.0209,8.0209,8.0209,8.0209,8.0209,8.0209,8.0209,8.0209,8.0209,8.0209,8.0209,8.0209,8.0209,8.0209,8.0209,8.0209,8.0209,8.0209,8.0209,8.0209,8.0209,8.0209,8.0209,8.0209,8.0209,8.0209,8.0209,8.0209,8.0209,8.0412,8.0885,8.1596,8.234,8.2847,8.3558,8.4167,8.4403,8.4539,8.4539,8.4505,8.4505,8.4573,8.4606,8.4606,8.4606,8.4606,8.4606,8.4606,8.4606,8.4606,8.4606,8.4606,8.4606,8.4606,8.4606,8.4606,8.4606,8.4606,8.4606,8.4606,8.4606,8.4606,8.4606,8.4606,8.4606,8.4606,8.4606,8.4606,8.4606,8.4606,8.4606,8.4606,8.4606,8.4606,8.4606,8.4606,8.4606,8.4606,8.4606,8.4606,8.4606,8.4606,8.4606,7.1312,7.1515,7.2766,7.3781,7.4525,7.5236,7.5608,7.5676,7.5676,7.5676,7.5676,7.5709,7.6149,7.6792,7.7671,7.8348,7.9058,7.9803,8.0107,8.0209,8.0209,8.0209,8.0209,8.0209,8.0209,8.0209,8.0209,8.0209,8.0209,8.0209,8.0209,8.0209,8.0209,8.0209,8.0209,8.0209,8.0209,8.0209,8.0209,8.0209,8.0209,8.0209,8.0209,8.0209,8.0209,8.0209,8.0209,8.0209,8.0209,8.0209,8.0209,8.0209,8.0209,8.0209,8.0209,8.0209,8.0209,8.0209,8.0209,8.0209,8.0209,8.0378,8.0953,8.1596,8.234,8.305,8.3795,8.4302,8.4539,8.4606,8.4606,8.4606,8.4606,8.4606,8.4606,8.4606,8.4606,8.4606,8.4606,8.4606,8.4606,8.4606,8.4606,8.4606,8.4606,8.4606,8.4606,8.4606,8.4606,8.4606,8.4606,8.4606,8.4606,8.4606,8.4606,8.4606,8.4606,8.4606,8.4606,8.4606,8.4606,8.4606,8.4606,8.4606,8.4606,8.4606,8.4606,8.4606,8.4606,8.4606,8.4606,8.4606,8.4606,8.4606,8.4606,7.1312,7.1413,7.2259,7.3037,7.3781,7.4525,7.5134,7.5642,7.5676,7.5676,7.5676,7.5709,7.5845,7.6014,7.7435,7.8179,7.8517,7.9498,8.0073,8.0209,8.0209,8.0209,8.0209,8.0209,8.0209,8.0209,8.0209,8.0209,8.0209,8.0209,8.0209,8.0209,8.0209,8.0209,8.0209,8.0209,8.0209,8.0209,8.0209,8.0209,8.0209,8.0209,8.0209,8.0209,8.0209,8.0209,8.0209,8.0209,8.0209,8.0209,8.0209,8.0209,8.0209,8.0209,8.0209,8.0209,8.0209,8.0209,8.0209,8.0209,8.0209,8.0242,8.0818,8.1528,8.2238,8.2949,8.3693,8.4403,8.4606,8.4606,8.4606,8.4606,8.4606,8.4606,8.4606,8.4606,8.4606,8.4606,8.4606,8.4606,8.4606,8.4606,8.4606,8.4606,8.4606,8.4606,8.4606,8.4606,8.4606,8.4606,8.4606,8.4606,8.4606,8.4606,8.4606,8.4606,8.4606,8.4606,8.4606,8.4606,8.4606,8.4606,8.4606,8.4606,8.4606,8.4606,8.4606,8.4606,8.4606,8.4606,8.4606,8.4606,8.4606,8.4606,8.4606]}]]